[[{"header":{"parameterUnit":"m.s-1","parameterCategory":1,"la1":30.6,"la2":28.766,"lo1":-90.7593,"lo2":-88.6598,"dx":0.0162,"dy":0.0183,"nx":116,"ny":114,"refTime":"2022-12-23T06:00:00:Z","depth":0,"parameterNumber":2,"parameterNumberName":"U-component_of_WINDS"},"data":[0.0,0.0,0.0,0.0,0.0,0.0,0.0,0.0,0.0,0.0,0.0,0.0,0.0,0.0,0.0,0.0,0.0,0.0,0.0,0.0,0.0,0.0,0.0,0.0,0.0,0.0,0.0,0.0,0.0,0.0,0.0,0.0,0.0,0.0,0.0,0.0,0.0,0.0,0.0,0.0,0.0,0.0,0.0,0.0,0.0,0.0,0.0,0.0,0.0,0.0,0.0,0.0,0.0,0.0,0.0,0.0,0.0,0.0,0.0,0.0,0.0,0.0,0.0,0.0,0.0,0.0,0.0,0.0,0.0,0.0,0.0,0.0,0.0,0.0,0.0,0.0,0.0,0.0,0.0,0.0,0.0,0.0,0.0,0.0,0.0,0.0,0.0,0.0,0.0,0.0,0.0,0.0,0.0,0.0,0.0,0.0,0.0,0.0,0.0,0.0,0.0,0.0,0.0,0.0,0.0,0.0,0.0,0.0,0.0,0.0,0.0,0.0,0.0,0.0,0.0,0.0,0.0,0.0,0.0,0.0,0.0,0.0,0.0,0.0,0.0,0.0,0.0,0.0,0.0,0.0,0.0,0.0,0.0,0.0,0.0,0.0,0.0,0.0,0.0,0.0,0.0,0.0,0.0,0.0,0.0,0.0,0.0,0.0,0.0,0.0,0.0,0.0,0.0,0.0,0.0,0.0,0.0,0.0,0.0,0.0,0.0,0.0,0.0,0.0,0.0,0.0,0.0,0.0,0.0,0.0,0.0,0.0,0.0,0.0,0.0,0.0,0.0,0.0,0.0,0.0,0.0,0.0,0.0,0.0,0.0,0.0,0.0,0.0,0.0,0.0,0.0,0.0,0.0,0.0,0.0,0.0,0.0,0.0,0.0,0.0,0.0,0.0,0.0,0.0,0.0,0.0,0.0,0.0,0.0,0.0,0.0,0.0,0.0,0.0,0.0,0.0,0.0,0.0,0.0,0.0,0.0,0.0,0.0,0.0,0.0,0.0,0.0,0.0,0.0,0.0,0.0,0.0,0.0,0.0,0.0,0.0,0.0,0.0,0.0,0.0,0.0,0.0,0.0,0.0,0.0,0.0,0.0,0.0,0.0,0.0,0.0,0.0,0.0,0.0,0.0,0.0,0.0,0.0,0.0,0.0,0.0,0.0,0.0,0.0,0.0,0.0,0.0,0.0,0.0,0.0,0.0,0.0,0.0,0.0,0.0,0.0,0.0,0.0,0.0,0.0,0.0,0.0,0.0,0.0,0.0,0.0,0.0,0.0,0.0,0.0,0.0,0.0,0.0,0.0,0.0,0.0,0.0,0.0,0.0,0.0,0.0,0.0,0.0,0.0,0.0,0.0,0.0,0.0,0.0,0.0,0.0,0.0,0.0,0.0,0.0,0.0,0.0,0.0,0.0,0.0,0.0,0.0,0.0,0.0,0.0,0.0,0.0,0.0,0.0,0.0,0.0,0.0,0.0,0.0,0.0,0.0,0.0,0.0,0.0,0.0,0.0,0.0,0.0,0.0,0.0,0.0,0.0,0.0,0.0,0.0,0.0,0.0,0.0,0.0,0.0,0.0,0.0,0.0,0.0,0.0,0.0,0.0,0.0,0.0,0.0,0.0,0.0,0.0,0.0,0.0,0.0,0.0,0.0,0.0,0.0,0.0,0.0,0.0,0.0,0.0,0.0,0.0,0.0,0.0,0.0,0.0,0.0,0.0,0.0,0.0,0.0,0.0,0.0,0.0,0.0,0.0,0.0,0.0,0.0,0.0,0.0,0.0,0.0,0.0,0.0,0.0,0.0,0.0,0.0,0.0,0.0,0.0,0.0,0.0,0.0,0.0,0.0,0.0,0.0,0.0,0.0,0.0,0.0,0.0,0.0,0.0,0.0,0.0,0.0,0.0,0.0,0.0,0.0,0.0,0.0,0.0,0.0,0.0,0.0,0.0,0.0,0.0,0.0,0.0,0.0,0.0,0.0,0.0,0.0,0.0,0.0,0.0,0.0,0.0,0.0,0.0,0.0,0.0,0.0,0.0,0.0,0.0,0.0,0.0,0.0,0.0,0.0,0.0,0.0,0.0,0.0,0.0,0.0,0.0,0.0,0.0,0.0,0.0,0.0,0.0,0.0,0.0,0.0,0.0,0.0,0.0,0.0,0.0,0.0,0.0,0.0,0.0,0.0,0.0,0.0,0.0,0.0,0.0,0.0,0.0,0.0,0.0,0.0,0.0,0.0,0.0,0.0,0.0,0.0,0.0,0.0,0.0,0.0,0.0,0.0,0.0,0.0,0.0,0.0,0.0,0.0,0.0,0.0,0.0,0.0,0.0,0.0,0.0,0.0,0.0,0.0,0.0,0.0,0.0,0.0,0.0,0.0,0.0,0.0,0.0,0.0,0.0,0.0,0.0,0.0,0.0,0.0,0.0,0.0,0.0,0.0,0.0,0.0,0.0,0.0,0.0,0.0,0.0,0.0,0.0,0.0,0.0,0.0,0.0,0.0,0.0,0.0,0.0,0.0,0.0,0.0,0.0,0.0,0.0,0.0,0.0,0.0,0.0,0.0,0.0,0.0,0.0,0.0,0.0,0.0,0.0,0.0,0.0,0.0,0.0,0.0,0.0,0.0,0.0,0.0,0.0,0.0,0.0,0.0,0.0,0.0,0.0,0.0,0.0,0.0,0.0,0.0,0.0,0.0,0.0,0.0,0.0,0.0,0.0,0.0,0.0,0.0,0.0,0.0,0.0,0.0,0.0,0.0,0.0,0.0,0.0,0.0,0.0,0.0,0.0,0.0,0.0,0.0,0.0,0.0,0.0,0.0,0.0,0.0,0.0,0.0,0.0,0.0,0.0,0.0,0.0,0.0,0.0,0.0,0.0,0.0,0.0,0.0,0.0,0.0,0.0,0.0,0.0,0.0,0.0,0.0,0.0,0.0,0.0,0.0,0.0,0.0,0.0,0.0,0.0,0.0,0.0,0.0,0.0,0.0,0.0,0.0,0.0,0.0,0.0,0.0,0.0,0.0,0.0,0.0,0.0,0.0,0.0,0.0,0.0,0.0,0.0,0.0,0.0,0.0,0.0,0.0,0.0,0.0,0.0,0.0,0.0,0.0,0.0,0.0,0.0,0.0,0.0,0.0,0.0,0.0,0.0,0.0,0.0,0.0,0.0,0.0,0.0,0.0,0.0,0.0,0.0,0.0,0.0,0.0,0.0,0.0,0.0,0.0,0.0,0.0,0.0,0.0,0.0,0.0,0.0,0.0,0.0,0.0,0.0,0.0,0.0,0.0,0.0,0.0,0.0,0.0,0.0,0.0,0.0,0.0,0.0,0.0,0.0,0.0,0.0,0.0,0.0,0.0,0.0,0.0,0.0,0.0,0.0,0.0,0.0,0.0,0.0,0.0,0.0,0.0,0.0,0.0,0.0,0.0,0.0,0.0,0.0,0.0,0.0,0.0,0.0,0.0,0.0,0.0,0.0,0.0,0.0,0.0,0.0,0.0,0.0,0.0,0.0,0.0,0.0,0.0,0.0,0.0,0.0,0.0,0.0,0.0,0.0,0.0,0.0,0.0,0.0,0.0,0.0,0.0,0.0,0.0,0.0,0.0,0.0,0.0,0.0,0.0,0.0,0.0,0.0,0.0,0.0,0.0,0.0,0.0,0.0,0.0,0.0,0.0,0.0,0.0,0.0,0.0,0.0,0.0,0.0,0.0,0.0,0.0,0.0,0.0,0.0,0.0,0.0,0.0,0.0,0.0,0.0,0.0,0.0,0.0,0.0,0.0,0.0,0.0,0.0,0.0,0.0,0.0,0.0,0.0,0.0,0.0,0.0,0.0,0.0,0.0,0.0,0.0,0.0,0.0,0.0,0.0,0.0,0.0,0.0,0.0,0.0,0.0,0.0,0.0,0.0,0.0,0.0,0.0,0.0,0.0,0.0,0.0,0.0,0.0,0.0,0.0,0.0,0.0,0.0,0.0,0.0,0.0,0.0,0.0,0.0,0.0,0.0,0.0,0.0,0.0,0.0,0.0,0.0,0.0,0.0,0.0,0.0,0.0,0.0,0.0,0.0,0.0,0.0,0.0,0.0,0.0,0.0,0.0,0.0,0.0,0.0,0.0,0.0,0.0,0.0,0.0,0.0,0.0,0.0,0.0,0.0,0.0,0.0,0.0,0.0,0.0,0.0,0.0,0.0,0.0,0.0,0.0,0.0,0.0,0.0,0.0,0.0,0.0,0.0,0.0,0.0,0.0,0.0,0.0,0.0,0.0,0.0,0.0,0.0,0.0,0.0,0.0,0.0,0.0,0.0,0.0,0.0,0.0,0.0,0.0,0.0,0.0,0.0,0.0,0.0,0.0,0.0,0.0,0.0,0.0,0.0,0.0,0.0,0.0,0.0,0.0,0.0,0.0,0.0,0.0,0.0,0.0,0.0,0.0,0.0,0.0,0.0,0.0,0.0,0.0,0.0,0.0,0.0,0.0,0.0,0.0,0.0,0.0,0.0,0.0,0.0,0.0,0.0,0.0,0.0,0.0,0.0,0.0,0.0,0.0,0.0,0.0,0.0,0.0,0.0,0.0,0.0,0.0,0.0,0.0,0.0,0.0,0.0,0.0,0.0,0.0,0.0,0.0,0.0,0.0,0.0,0.0,0.0,0.0,0.0,0.0,0.0,0.0,0.0,0.0,0.0,0.0,0.0,0.0,0.0,0.0,0.0,0.0,0.0,0.0,0.0,0.0,0.0,0.0,0.0,0.0,0.0,0.0,0.0,0.0,0.0,0.0,0.0,0.0,0.0,0.0,0.0,0.0,0.0,0.0,0.0,0.0,0.0,0.0,0.0,0.0,0.0,0.0,0.0,0.0,0.0,0.0,0.0,0.0,0.0,0.0,0.0,0.0,0.0,0.0,0.0,0.0,0.0,0.0,0.0,0.0,0.0,0.0,0.0,0.0,0.0,0.0,0.0,0.0,0.0,0.0,0.0,0.0,0.0,0.0,0.0,0.0,0.0,0.0,0.0,0.0,0.0,0.0,0.0,0.0,0.0,0.0,0.0,0.0,0.0,0.0,0.0,0.0,0.0,0.0,0.0,0.0,0.0,0.0,0.0,0.0,0.0,0.0,0.0,0.0,0.0,0.0,0.0,0.0,0.0,0.0,0.0,0.0,0.0,0.0,0.0,0.0,0.0,0.0,0.0,0.0,0.0,0.0,0.0,0.0,0.0,0.0,0.0,0.0,0.0,0.0,0.0,0.0,0.0,0.0,0.0,0.0,0.0,0.0,0.0,0.0,0.0,0.0,0.0,0.0,0.0,0.0,0.0,0.0,0.0,0.0,0.0,0.0,0.0,0.0,0.0,0.0,0.0,0.0,0.0,0.0,0.0,0.0,0.0,0.0,0.0,0.0,0.0,0.0,0.0,0.0,0.0,0.0,0.0,0.0,0.0,0.0,0.0,0.0,0.0,0.0,0.0,0.0,0.0,0.0,0.0,0.0,0.0,0.0,0.0,0.0,0.0,0.0,0.0,0.0,0.0,0.0,0.0,0.0,0.0,0.0,0.0,0.0,0.0,0.0,0.0,0.0,0.0,0.0,0.0,0.0,0.0,0.0,0.0,0.0,0.0,0.0,0.0,0.0,0.0,0.0,0.0,0.0,0.0,0.0,0.0,0.0,0.0,0.0,0.0,0.0,0.0,0.0,0.0,0.0,0.0,0.0,0.0,0.0,0.0,0.0,0.0,0.0,0.0,0.0,0.0,0.0,0.0,0.0,0.0,0.0,0.0,0.0,0.0,0.0,0.0,0.0,0.0,0.0,0.0,0.0,0.0,0.0,0.0,0.0,0.0,0.0,0.0,0.0,0.0,0.0,0.0,0.0,0.0,0.0,0.0,0.0,0.0,0.0,0.0,0.0,0.0,0.0,0.0,0.0,0.0,0.0,0.0,0.0,0.0,0.0,0.0,0.0,0.0,0.0,0.0,0.0,0.0,0.0,0.0,0.0,0.0,0.0,0.0,0.0,0.0,0.0,0.0,0.0,0.0,0.0,0.0,0.0,0.0,0.0,0.0,0.0,0.0,0.0,0.0,0.0,0.0,0.0,0.0,0.0,0.0,4.6445,0.0,0.0,0.0,0.0,0.0,0.0,0.0,0.0,0.0,0.0,0.0,0.0,0.0,0.0,0.0,0.0,0.0,0.0,0.0,0.0,0.0,0.0,0.0,0.0,2.0743,2.1059,2.1105,2.1491,0.0,0.0,0.0,0.0,0.0,0.0,0.0,0.0,0.0,2.3254,2.4965,2.5793,2.7218,2.9247,2.7883,2.7084,2.6719,0.0,0.0,0.0,0.0,0.0,0.0,0.0,0.0,0.0,0.0,0.0,0.0,0.0,0.0,0.0,0.0,0.0,0.0,0.0,0.0,0.0,0.0,0.0,0.0,0.0,0.0,0.0,0.0,0.0,0.0,0.0,0.0,0.0,0.0,0.0,0.0,0.0,0.0,0.0,0.0,0.0,0.0,0.0,0.0,0.0,0.0,0.0,0.0,0.0,0.0,0.0,0.0,0.0,0.0,0.0,0.0,0.0,0.0,0.0,0.0,0.0,0.0,0.0,0.0,0.0,0.0,0.0,0.0,0.0,0.0,0.0,4.75,0.0,0.0,0.0,0.0,0.0,0.0,0.0,0.0,0.0,0.0,0.0,0.0,0.0,0.0,0.0,0.0,0.0,0.0,0.0,0.0,0.0,2.0589,2.0781,2.1775,2.2516,2.2695,2.3369,2.3711,2.3555,2.3477,0.0,0.0,0.0,0.0,2.332,2.4163,2.5963,2.8714,2.9633,3.1362,3.3799,3.4356,3.4002,3.2787,3.0183,0.0,0.0,0.0,0.0,0.0,0.0,0.0,0.0,0.0,0.0,0.0,0.0,0.0,0.0,0.0,0.0,0.0,0.0,0.0,0.0,0.0,0.0,0.0,0.0,0.0,0.0,0.0,0.0,0.0,0.0,0.0,0.0,0.0,0.0,0.0,0.0,0.0,0.0,0.0,0.0,0.0,0.0,0.0,0.0,0.0,0.0,0.0,0.0,0.0,0.0,0.0,0.0,0.0,0.0,0.0,0.0,0.0,0.0,0.0,0.0,0.0,0.0,0.0,5.207,5.2617,5.3437,5.418,5.5351,5.6719,5.3867,5.375,5.5117,0.0,0.0,0.0,0.0,0.0,0.0,0.0,0.0,0.0,0.0,0.0,0.0,0.0,0.0,0.0,0.0,0.0,0.0,0.0,0.0,2.1775,2.2647,2.4146,2.544,2.6242,2.6406,2.6172,2.5391,2.4648,0.0,0.0,0.0,2.3437,2.4219,2.5101,2.7129,3.0368,3.5425,3.921,4.1677,4.0982,4.0985,4.1282,3.5184,3.24,3.215,0.0,0.0,0.0,0.0,0.0,0.0,0.0,0.0,0.0,0.0,0.0,0.0,0.0,0.0,0.0,0.0,0.0,0.0,0.0,0.0,0.0,0.0,0.0,0.0,0.0,0.0,0.0,0.0,0.0,0.0,0.0,0.0,0.0,0.0,0.0,0.0,0.0,0.0,0.0,0.0,0.0,4.4336,4.5351,0.0,0.0,0.0,0.0,0.0,0.0,0.0,0.0,0.0,0.0,0.0,0.0,0.0,0.0,5.332,5.5586,5.7148,5.8047,5.9492,6.0625,6.1484,6.1601,6.2187,6.3086,6.2656,0.0,5.6328,5.4765,0.0,0.0,0.0,0.0,0.0,0.0,0.0,0.0,0.0,0.0,0.0,0.0,0.0,0.0,0.0,0.0,0.0,0.0,0.0,0.0,0.0,2.724,2.8923,2.9844,3.0781,3.0547,2.875,2.8711,0.0,0.0,2.5742,2.6204,2.6579,2.926,3.2976,3.7715,4.1719,4.3957,4.453,4.4124,4.4162,4.4393,4.0921,3.835,3.6523,3.4918,0.0,0.0,0.0,0.0,0.0,0.0,0.0,0.0,0.0,0.0,0.0,0.0,0.0,0.0,0.0,0.0,0.0,0.0,0.0,0.0,0.0,0.0,0.0,0.0,0.0,0.0,0.0,0.0,0.0,0.0,0.0,0.0,0.0,0.0,0.0,0.0,0.0,0.0,0.0,4.3164,4.5156,4.7461,4.5469,4.3516,0.0,0.0,0.0,0.0,0.0,0.0,0.0,0.0,0.0,5.5156,5.6055,5.7539,5.9765,6.1406,6.2422,6.2812,6.4023,6.4805,6.5195,6.5195,6.539,6.5742,6.5742,6.4765,6.2851,5.9531,5.7031,5.5078,0.0,0.0,0.0,0.0,0.0,5.3672,0.0,0.0,0.0,0.0,0.0,0.0,0.0,0.0,0.0,0.0,0.0,0.0,2.8067,3.0606,3.2656,3.375,3.4961,3.5,3.332,3.2773,3.1367,2.875,2.8633,2.8845,2.9267,3.4167,3.928,4.4499,4.6819,4.7586,4.6894,4.6894,4.6894,4.6855,4.597,4.3778,4.0569,3.9262,3.7123,3.4314,0.0,0.0,0.0,0.0,0.0,0.0,0.0,0.0,0.0,0.0,0.0,0.0,0.0,0.0,0.0,0.0,0.0,0.0,0.0,0.0,0.0,0.0,0.0,0.0,0.0,0.0,0.0,0.0,0.0,0.0,0.0,0.0,0.0,0.0,0.0,0.0,0.0,4.5703,4.7148,5.0195,4.8633,4.6875,0.0,0.0,0.0,0.0,0.0,0.0,5.3008,5.4687,5.7148,6.039,6.1523,6.3086,6.5273,6.6172,6.6601,6.6562,6.7226,6.7539,6.7578,6.7578,6.7578,6.7539,6.7539,6.7773,6.7851,6.3515,6.1367,6.0625,5.8437,5.707,5.6601,5.9258,5.9805,5.9765,0.0,0.0,0.0,0.0,0.0,0.0,0.0,0.0,0.0,0.0,0.0,2.9012,3.1638,3.4219,3.6445,3.8125,3.8359,3.8711,3.9414,3.5625,3.3242,3.3086,3.0781,3.0315,3.1981,3.914,4.4554,4.8048,4.9702,5.0471,5.0433,5.0433,5.0433,5.0394,4.951,4.724,4.3893,4.1431,3.9815,3.8623,3.443,0.0,0.0,0.0,0.0,0.0,0.0,0.0,0.0,0.0,0.0,0.0,0.0,0.0,0.0,0.0,0.0,0.0,0.0,0.0,0.0,0.0,0.0,0.0,0.0,0.0,0.0,0.0,0.0,0.0,0.0,0.0,0.0,0.0,0.0,0.0,0.0,0.0,0.0,5.4765,5.4141,0.0,0.0,0.0,0.0,5.1133,5.2812,5.4922,5.7422,5.918,6.1289,6.3945,6.5703,6.7031,6.8008,6.8867,6.9258,6.9219,6.9258,6.9297,6.9375,6.9375,6.9336,6.9258,6.9258,6.8867,6.8047,6.6133,6.5312,6.5195,6.4219,6.332,6.2851,6.5469,6.6406,6.664,0.0,0.0,0.0,2.0312,2.0312,2.0312,2.0312,2.1575,2.3195,2.4935,2.8428,3.1977,3.5156,3.7773,4.0039,4.1719,4.2383,4.2383,4.1562,3.8516,3.6992,3.7578,3.5629,3.7112,4.257,4.5706,4.8659,5.147,5.2028,5.2318,5.2318,5.2318,5.2318,5.2279,5.1395,5.0317,4.9009,4.6471,4.4278,4.2393,4.0854,3.7777,0.0,0.0,0.0,0.0,0.0,0.0,0.0,0.0,0.0,0.0,0.0,0.0,0.0,0.0,0.0,0.0,0.0,0.0,0.0,0.0,0.0,0.0,0.0,0.0,0.0,0.0,0.0,0.0,0.0,0.0,0.0,0.0,0.0,0.0,0.0,0.0,0.0,5.5156,5.5508,0.0,5.4023,5.4922,5.6015,5.7109,5.9336,6.1289,6.2773,6.3945,6.5,6.5937,6.6562,6.7305,6.8203,6.9023,6.9726,7.0234,7.082,7.1039,7.0908,7.1493,7.1684,7.1507,7.1525,7.1369,7.0979,6.9255,6.7727,6.6406,6.6094,6.5781,6.5703,6.7187,6.7734,6.789,0.0,2.0119,0.0,2.0312,2.0312,2.0412,2.0714,2.2569,2.4663,2.6679,3.0765,3.4687,3.7812,4.0234,4.2305,4.3984,4.4922,4.5195,4.4648,4.1914,4.0574,4.1162,3.9736,4.2183,4.9132,5.0009,5.1582,5.4049,5.4049,5.4049,5.4049,5.4049,5.4049,5.401,5.3164,5.2779,5.2664,5.0664,4.8355,4.5932,4.4739,4.197,3.8392,0.0,0.0,0.0,0.0,0.0,0.0,0.0,0.0,0.0,0.0,0.0,0.0,0.0,0.0,0.0,0.0,0.0,0.0,0.0,0.0,0.0,0.0,0.0,0.0,0.0,0.0,0.0,0.0,0.0,0.0,0.0,0.0,0.0,0.0,0.0,5.4883,5.6055,5.6953,5.7344,5.7031,5.8594,6.0195,6.1601,6.332,6.4531,6.5117,6.5976,6.6601,6.6875,6.7461,6.8281,6.9453,7.0245,7.1068,7.1926,7.2438,7.2585,7.25,7.3058,7.3241,7.3123,7.3142,7.2967,7.2579,7.1221,6.96,6.8007,6.7994,6.8015,6.8132,6.8991,6.9325,6.9492,0.0,1.9735,2.0312,2.0312,2.0312,2.0648,2.1545,2.3979,2.6629,2.9295,3.3398,3.707,3.9687,4.1484,4.3164,4.4922,4.5859,4.707,4.8828,4.5624,4.3676,4.3784,4.2993,4.5235,5.0828,5.177,5.3371,5.5742,5.5742,5.5742,5.5742,5.5742,5.5742,5.5665,5.4895,5.4549,5.4472,5.3626,5.1818,4.9279,4.5893,4.447,4.3932,0.0,0.0,0.0,0.0,0.0,0.0,0.0,0.0,0.0,0.0,0.0,0.0,0.0,0.0,0.0,0.0,0.0,0.0,0.0,0.0,0.0,0.0,0.0,0.0,0.0,0.0,0.0,0.0,0.0,0.0,0.0,0.0,0.0,5.293,5.4336,5.6094,5.7773,5.8789,5.9609,6.039,6.2031,6.3398,6.4297,6.4336,6.4375,6.4414,6.5234,6.6092,6.6991,6.8593,7.0273,7.1992,7.2696,7.3457,7.437,7.415,7.4087,7.4071,7.4074,7.4101,7.411,7.411,7.3611,7.2794,7.1975,7.1129,7.0375,7.021,7.0173,7.029,7.1145,7.1581,7.1875,2.0004,2.0158,2.0312,2.0312,2.0866,2.1436,2.1726,2.5083,2.8271,3.0273,3.4844,3.8867,4.1445,4.3242,4.5,4.6719,4.7109,4.7969,4.9726,4.5405,4.3551,4.5371,4.9192,5.2291,5.443,5.4643,5.5335,5.6626,5.6626,5.6626,5.6626,5.6626,5.6319,5.5703,5.5472,5.5357,5.5318,5.4472,5.3741,5.2895,5.0702,4.8355,4.6047,0.0,0.0,0.0,0.0,0.0,0.0,0.0,0.0,0.0,0.0,0.0,0.0,0.0,0.0,0.0,0.0,0.0,0.0,0.0,0.0,0.0,0.0,0.0,0.0,0.0,0.0,0.0,0.0,0.0,0.0,0.0,5.4805,5.6523,5.5664,5.7539,5.918,5.9648,6.1055,6.2031,6.2265,6.3281,6.4297,6.5195,6.5234,6.5781,6.707,6.78,6.8562,6.9396,7.0353,7.1399,7.249,7.3324,7.4231,7.5255,7.5644,7.5839,7.5916,7.6342,7.6485,7.6399,7.6399,7.6284,7.5976,7.5091,7.463,7.4053,7.0618,6.9239,6.9355,7.0228,7.1356,7.2568,1.9812,2.0042,2.0427,2.0781,2.1326,2.1978,2.2779,2.6282,2.9453,3.1211,3.5937,3.9961,4.2148,4.4297,4.6094,4.7461,4.8594,4.9322,4.9651,4.675,4.6271,4.9039,5.2368,5.4852,5.6319,5.6973,5.755,5.805,5.8396,5.8588,5.8588,5.8588,5.8127,5.728,5.728,5.6896,5.6203,5.5742,5.5318,5.4895,5.3549,5.1587,4.9433,4.8355,4.6509,4.4432,4.4201,4.3355,4.2547,4.3855,0.0,0.0,0.0,0.0,0.0,0.0,0.0,0.0,0.0,0.0,0.0,0.0,0.0,0.0,0.0,0.0,0.0,0.0,0.0,0.0,0.0,0.0,0.0,0.0,5.8125,5.9844,5.9336,6.0234,6.1094,6.1445,6.2383,6.3281,6.4023,6.4531,6.5351,6.6601,6.6603,6.7331,6.9032,6.944,7.0144,7.1304,7.2081,7.308,7.4302,7.5055,7.5978,7.6938,7.7216,7.7562,7.7946,7.8292,7.86,0.0,7.89,7.89,7.8823,7.7938,7.7592,0.0,0.0,0.0,0.0,0.0,7.3355,7.4284,1.928,1.985,2.0666,2.1459,2.184,2.2557,2.4141,2.7426,3.0351,3.2109,3.6836,4.0664,4.2344,4.4883,4.6797,4.7656,4.9996,5.0774,4.9255,4.9384,5.0692,5.3272,5.3772,5.5023,5.7242,5.8742,5.9588,5.9781,6.055,6.0935,6.0935,6.0935,6.0473,5.9627,5.955,5.8665,5.728,5.7165,5.6703,5.5934,5.5126,5.4203,5.3087,5.0625,4.9202,4.8317,4.674,4.5201,4.4085,4.5009,0.0,0.0,0.0,0.0,0.0,0.0,0.0,0.0,0.0,0.0,0.0,0.0,0.0,0.0,0.0,0.0,0.0,0.0,0.0,0.0,0.0,0.0,0.0,0.0,6.1015,6.3047,6.3125,6.2578,6.2383,6.3086,6.3242,6.3906,6.5469,6.5775,6.6507,6.8034,6.8058,6.8794,7.0537,0.0,0.0,0.0,0.0,7.5272,7.684,7.7531,7.8369,7.9246,7.9131,7.9477,8.0285,8.0246,8.0669,8.1362,8.1362,8.1362,8.1323,8.0554,8.0246,7.9977,7.7323,7.6284,7.6322,7.6583,7.6688,0.0,1.9812,2.0696,2.1358,2.1613,2.286,2.3933,2.4323,2.7967,3.125,3.2969,3.7695,4.1601,4.3281,4.5781,4.7695,4.8555,5.0353,5.1221,5.079,5.3097,5.4194,5.3443,5.5945,5.7873,5.8973,5.9319,6.0204,6.1589,6.1781,6.1858,6.1858,6.1858,6.1358,6.0512,5.9819,5.9319,5.8973,5.8319,5.7934,5.7703,5.6857,5.5588,5.4049,5.2125,5.1318,5.1048,5.0048,4.951,4.9471,5.0971,5.0125,4.8548,4.924,4.7932,0.0,0.0,0.0,0.0,0.0,0.0,0.0,0.0,0.0,0.0,0.0,0.0,0.0,0.0,0.0,0.0,0.0,0.0,0.0,6.164,6.2578,6.3242,6.3945,6.4492,6.4648,6.4101,6.4687,6.5234,6.5586,6.6711,6.757,6.7917,6.8413,6.975,7.2121,7.2762,0.0,7.6502,7.7254,7.81,7.9169,8.0015,8.09,8.1855,0.0,0.0,8.3131,8.2939,8.2939,8.3131,8.3131,8.3131,8.3093,8.2939,8.2862,8.2554,7.9285,7.8015,7.8092,7.8861,7.9131,7.9208,2.0789,2.0951,2.1374,2.2778,2.3734,2.452,2.4998,2.8398,3.1484,3.3164,3.7969,4.168,4.2891,4.5,4.6289,4.6289,4.818,5.027,5.2252,5.4194,5.5253,5.5176,5.7566,5.9281,6.0127,6.0973,6.205,6.3358,6.3782,6.4012,6.4012,6.4012,6.3551,6.2666,6.2243,6.1589,6.0742,5.9896,5.9319,5.8819,5.7973,5.7165,5.6165,5.401,5.3203,5.3087,5.2241,5.1933,5.2087,5.2933,5.2626,5.201,5.2472,5.1433,4.9548,0.0,0.0,0.0,0.0,0.0,0.0,0.0,0.0,0.0,0.0,0.0,0.0,0.0,0.0,5.6484,5.8203,0.0,6.1588,6.3355,6.3945,6.4281,6.4749,6.5544,6.5764,6.4896,6.5933,6.6696,6.6596,6.7689,6.8767,6.9651,7.0305,7.1757,7.4341,7.511,7.6677,7.9215,7.9631,8.04,8.1708,8.2131,8.2593,8.3125,8.3439,8.3862,8.4439,8.4709,8.5093,8.5517,8.594,8.6132,8.6132,8.6132,8.6132,8.5978,8.4247,8.2824,8.1747,8.2208,8.2362,8.2401,2.1529,2.1234,2.161,2.3921,2.4508,2.4865,2.5583,2.8516,3.125,3.2969,3.7422,4.082,4.1797,4.332,4.4258,4.4219,4.6445,4.947,5.3332,5.4523,5.5737,5.7203,5.8704,6.005,6.1243,6.2627,6.382,6.4859,6.5551,6.5897,6.5897,6.5897,6.5513,6.4859,6.4666,6.3858,6.2512,6.1473,6.0666,5.9935,5.8934,5.855,5.828,5.6088,5.5126,5.4857,5.401,5.3703,5.3703,5.3703,5.4241,5.4972,5.4972,5.4626,5.3741,5.151,5.024,0.0,0.0,0.0,0.0,0.0,0.0,0.0,0.0,5.3029,5.4359,5.6317,5.7957,5.952,6.1045,6.2406,6.3624,6.458,6.5077,6.5436,6.575,6.6396,6.6588,6.6026,6.723,6.8126,6.8097,6.8846,7.0002,7.1563,7.2381,7.3957,7.6601,7.74,7.8938,8.1516,8.1593,8.2324,8.3824,8.4016,8.417,8.4324,8.4516,8.4939,8.567,8.6324,8.6978,8.7671,8.8402,8.8709,8.8709,8.8709,8.8709,8.8709,8.8709,8.7555,8.5863,8.5709,8.5632,8.5632,2.1235,2.2156,2.3041,2.4176,2.4983,2.5515,2.5699,2.8008,3.0351,3.2109,3.5508,3.8359,4.0,4.1055,4.2812,4.5742,4.8125,5.0618,5.3392,5.5566,5.7165,5.8127,5.9011,6.0589,6.2974,6.3205,6.4128,6.5743,6.5859,6.5897,6.5897,6.5897,6.5859,6.5705,6.4936,6.4512,6.4205,6.2627,6.1897,6.1666,6.0012,5.9358,5.9281,5.828,5.7396,5.6588,5.5742,5.5434,5.5434,5.5434,5.6011,5.6703,5.6703,5.7165,5.7511,5.6472,5.5511,5.4472,5.2818,5.1395,5.0798,5.2279,5.2759,5.4033,0.0,5.8775,5.8584,6.1145,6.248,6.3425,6.4399,6.4815,6.5308,6.6185,6.5765,6.5851,6.7384,6.7537,6.7679,6.8179,6.8552,6.909,6.9821,7.0529,7.131,7.2227,7.364,7.5553,7.813,7.9054,8.0708,8.3247,8.3324,8.3785,8.4747,8.5478,8.6209,8.6978,8.7748,8.8171,8.8286,8.8363,8.844,8.8556,8.8671,8.8709,8.8709,8.8709,8.8709,8.8709,8.8709,8.894,8.9248,8.8556,8.8248,8.8248,2.2244,2.3528,2.4652,2.5078,2.5445,2.5662,2.5703,2.75,2.9453,3.1211,3.3984,3.625,3.75,3.7969,3.9375,4.2305,4.5605,4.8811,5.189,5.516,5.7165,5.7511,5.8819,6.0242,6.182,6.282,6.3897,6.5128,6.5628,6.5897,6.5897,6.5897,6.5897,6.5859,6.4974,6.4589,6.4474,6.282,6.2089,6.1973,6.0742,6.0242,6.0204,5.9896,5.9511,5.905,5.7703,5.6896,0.0,5.7049,5.7126,5.7088,5.7588,5.7319,5.7011,5.8127,5.7511,5.6626,5.7396,5.6011,5.4664,5.5857,5.695,5.8303,6.0519,6.1311,6.2045,6.3671,6.429,6.4657,6.5025,6.5037,6.5328,6.6316,6.6516,6.6775,6.7513,6.8833,6.9756,6.9937,7.0898,7.1321,7.0651,7.1794,7.3293,7.5101,7.6284,7.8015,8.0592,8.1554,8.2939,8.4978,8.5055,8.5709,8.7094,8.744,8.7786,8.8171,8.8517,8.8709,8.8709,8.9171,8.9671,9.0133,9.0133,9.0133,9.0133,9.0133,9.0133,9.0133,9.0133,9.0364,9.0556,8.971,8.971,9.0133,2.3064,2.4405,2.56,2.5641,2.5671,2.5703,2.5703,2.6992,2.8476,3.0,3.2226,3.3984,3.4844,3.5351,3.6484,3.8633,4.3188,4.7195,5.0082,5.4293,5.678,5.6973,5.8165,5.9435,6.0781,6.2204,6.3512,6.4589,6.5474,6.5897,6.5897,6.5897,6.5782,6.5513,6.4897,6.4474,6.4166,6.2704,6.2089,6.2012,6.1127,6.0781,6.0781,6.0781,6.0666,6.0281,5.9088,5.8242,5.7703,5.7896,5.7665,5.7434,5.7819,5.7242,5.6934,5.9473,5.9358,5.8704,6.005,5.9281,5.8204,5.8819,6.0296,6.1642,6.1612,6.2882,6.4205,6.4806,6.5128,6.5295,6.5295,6.541,6.5774,6.6566,6.7289,6.7884,6.8385,6.9986,7.1217,7.1591,7.3129,7.3707,7.2437,7.3437,7.5245,7.7784,7.8746,8.0323,8.2862,8.3824,8.5055,8.6748,8.6824,8.7401,8.8671,8.8902,8.9017,8.9017,8.9248,8.9402,8.9402,8.9979,9.0594,9.121,9.121,9.121,9.121,9.121,9.121,9.121,9.121,9.121,9.1133,9.0479,9.0671,9.121,2.3188,2.4392,2.5592,2.5592,2.5667,2.5703,2.5703,2.6445,2.7344,2.8242,2.9922,3.1367,3.2226,3.3789,3.5117,3.6055,4.2226,4.6787,4.8353,5.3157,5.6242,5.6973,5.7049,5.8242,6.0742,6.1666,6.2935,6.4589,6.5474,6.5897,6.5897,6.5897,6.5436,6.4628,6.4628,6.4128,6.3281,6.2435,6.2089,6.2012,6.1127,6.0781,6.0781,6.0781,6.0281,5.955,5.9473,5.9435,5.9165,5.7588,5.7588,5.8127,5.728,5.7588,5.8704,6.1281,6.1973,6.1589,5.9973,6.0089,6.0704,6.0704,6.1973,6.3243,6.3243,6.3935,6.4589,6.4628,6.5282,6.5859,6.5859,6.6667,6.7321,6.7346,6.8039,6.9167,7.0871,7.0986,7.1514,7.3245,7.4899,7.5899,7.5861,7.5899,7.6976,7.9515,8.0516,8.2131,8.4709,8.5593,8.6824,8.8556,8.8632,8.8632,8.8709,8.9479,8.9863,8.9863,9.071,9.1133,9.1133,9.1171,9.1171,9.121,9.121,9.121,9.121,9.121,9.121,9.121,9.121,9.121,9.121,9.1171,9.1171,9.121,2.3979,2.4863,2.5659,2.5659,2.5702,2.5898,2.6484,2.6328,2.6641,2.8125,2.9805,0.0,0.0,0.0,0.0,0.0,4.0937,4.4716,4.7554,5.1261,5.4007,5.5412,5.6434,5.7396,5.8242,6.0204,6.1512,6.2089,6.3474,6.4166,6.4166,6.4166,6.4012,6.3705,6.3166,6.2781,6.2435,6.1589,6.1243,6.1204,6.0935,6.0781,6.0858,6.1435,6.0435,5.8627,0.0,5.7473,5.6973,5.7011,5.6819,5.6742,5.7588,5.728,5.6973,5.8973,6.0781,6.2204,6.2743,6.2666,6.2743,6.3897,6.5013,6.582,6.582,6.6513,6.7128,6.7128,6.7821,6.859,6.9129,6.9052,6.909,6.9629,6.9937,7.0321,7.0937,7.2399,7.386,7.5014,7.6169,7.7284,7.84,7.8015,0.0,8.1285,8.2285,8.3862,8.6401,8.7363,8.8325,8.9479,8.9517,8.9787,9.0364,9.0633,9.0748,9.0787,9.1056,9.121,9.121,9.121,9.121,9.121,9.121,9.121,9.121,9.121,9.121,9.121,9.121,9.121,9.121,9.121,9.121,9.121,2.4058,2.4902,2.5699,2.5699,2.5944,0.0,0.0,0.0,0.0,0.0,0.0,0.0,0.0,0.0,0.0,0.0,0.0,4.2891,4.5391,4.8903,5.1741,5.3699,5.4413,5.5318,5.6511,5.7857,5.9281,6.0781,6.1897,6.2858,6.3782,6.3474,6.3166,6.2858,6.232,6.1935,6.1589,6.105,6.132,6.205,6.0819,6.0896,6.1589,6.0627,5.905,0.0,5.5703,5.4818,5.4395,5.4664,5.478,5.5011,5.6126,5.6742,5.7357,5.8781,6.0781,6.2974,6.4936,6.4859,6.4628,6.6359,6.7167,6.7552,6.7552,6.8244,6.8859,6.8859,6.9321,6.9937,7.0744,7.0475,7.0706,7.2437,7.2976,7.3399,7.4014,7.5476,7.663,7.6861,7.7669,7.8746,8.0131,8.0285,8.1131,8.3093,8.4286,8.594,8.8171,8.8825,8.9517,9.0364,9.0364,9.0633,9.121,9.121,9.121,9.121,9.121,9.121,9.121,9.121,9.121,9.121,9.1518,9.1672,9.171,9.1979,9.2095,9.2095,9.2095,9.2095,9.2095,9.2095,9.2095,9.1979,2.3555,2.4609,2.5781,0.0,0.0,0.0,0.0,0.0,0.0,0.0,0.0,0.0,0.0,0.0,0.0,0.0,0.0,0.0,4.2031,4.6055,4.9451,5.1761,5.1162,5.2298,5.5434,5.4857,5.6472,6.0473,6.055,6.182,6.4205,6.3397,6.2627,6.1897,6.1897,6.1435,6.0666,6.0666,6.205,6.3935,6.0666,6.0781,6.2474,5.8511,5.6395,5.5241,5.2818,5.1933,5.1741,5.101,5.1972,5.3549,5.3587,5.6395,5.9858,6.0742,6.2166,6.4051,6.6513,6.6667,6.6551,6.8129,6.8552,6.859,6.859,6.9283,6.9898,6.986,6.986,7.0129,7.0898,7.1014,7.2129,7.5399,7.6669,7.7784,7.94,7.9669,7.9477,7.8707,7.9361,8.0246,8.1208,8.2824,8.417,8.5016,0.0,8.8171,8.9825,8.994,9.0364,9.1171,9.121,9.121,9.121,9.121,9.121,9.121,9.121,9.121,9.1287,9.1287,9.1287,9.1364,9.221,9.2556,9.2633,9.3403,9.371,9.371,9.371,9.371,9.371,9.371,9.371,9.3364,0.0,0.0,0.0,0.0,0.0,0.0,0.0,0.0,0.0,0.0,0.0,0.0,0.0,0.0,0.0,0.0,0.0,0.0,4.0391,4.3203,4.5932,4.8493,5.0031,5.1508,5.3012,5.3993,5.5011,5.6126,5.7357,5.828,5.8934,5.9358,5.9473,5.9281,5.9281,5.9165,5.8934,5.8934,5.8934,5.8858,5.7973,5.7627,5.7588,5.7165,5.5665,5.3741,5.3087,5.2087,5.1087,5.1471,5.4395,5.8011,5.8665,6.0473,6.2512,6.3397,6.482,6.6397,6.7705,6.8821,6.9744,7.0167,7.0744,7.1245,7.1245,7.1898,7.236,7.1706,7.2091,7.2591,7.2822,7.286,7.3322,7.4784,7.5745,7.6476,7.6899,7.8054,7.9208,8.0323,8.0631,8.1593,8.3747,8.544,8.6786,0.0,8.8132,8.8825,8.9863,9.0517,9.0979,9.121,9.121,9.121,9.121,9.121,9.121,9.121,9.121,9.1556,9.2172,9.2172,9.2479,9.3056,9.3287,9.3403,9.3403,9.3633,9.371,9.371,9.371,9.371,9.371,9.371,9.371,9.3518,0.0,0.0,0.0,0.0,0.0,0.0,0.0,0.0,0.0,0.0,0.0,0.0,0.0,0.0,0.0,0.0,0.0,0.0,0.0,4.0391,4.2461,4.5,4.6356,4.7777,4.9279,4.9836,5.101,5.2818,5.301,5.4049,5.5895,5.5626,5.5703,5.6088,5.6472,5.6626,5.6665,5.7011,5.7319,0.0,0.0,5.5472,5.5549,5.4164,5.2779,5.1471,5.1087,5.1318,5.1972,5.3164,5.5972,5.9127,5.9973,6.1627,6.3628,6.5243,6.6628,6.7936,6.9167,7.0167,7.0975,7.136,7.1822,7.2206,7.2206,7.2591,7.2668,7.1822,7.2014,7.236,7.236,7.3283,7.4553,7.6092,7.7707,7.89,7.9285,8.0477,8.14,8.1593,8.1939,8.3054,8.5209,8.6632,8.7902,8.9133,8.9594,8.9979,9.0441,9.0941,9.121,9.121,9.121,9.121,9.121,9.121,9.121,9.121,9.1595,9.2018,9.2518,9.2864,9.3249,9.371,0.0,9.4249,9.4287,9.4672,9.4826,9.4826,9.4826,9.4826,9.4826,9.4826,9.4826,9.4788,0.0,0.0,0.0,0.0,0.0,0.0,0.0,0.0,0.0,3.1523,3.1953,3.2539,3.3476,3.4258,0.0,0.0,0.0,0.0,0.0,0.0,3.9414,4.1641,4.1992,4.3095,4.5197,4.4739,4.626,4.9856,4.8586,4.9856,5.3472,5.2164,5.1972,5.2741,5.3626,5.401,5.4049,5.4741,5.578,5.6703,5.3857,5.351,5.428,0.0,4.9317,4.9317,4.8663,5.0587,5.3664,5.5434,5.7357,5.9127,6.005,6.2089,6.4589,6.6936,6.8129,6.9052,7.0514,7.0975,7.1245,7.2014,7.236,7.2514,7.2399,7.2283,7.1898,7.0937,7.0667,7.0552,7.0552,7.2668,7.5207,7.7746,8.0208,8.217,8.3247,8.4093,8.4093,8.2785,8.3324,8.4478,8.6286,8.7132,8.8286,8.994,9.0787,9.121,9.121,9.121,9.121,9.121,9.121,9.121,9.121,9.1325,9.1364,9.1364,9.2249,9.271,9.2864,9.3557,9.3941,9.4095,0.0,0.0,9.5211,9.598,9.6288,9.6288,9.6288,9.6365,9.648,9.648,9.6519,9.6634,0.0,0.0,0.0,0.0,0.0,0.0,0.0,0.0,0.0,0.0,3.3398,3.2773,0.0,0.0,0.0,0.0,0.0,0.0,0.0,0.0,0.0,3.918,4.0508,4.1699,4.2702,4.3902,4.4795,4.5393,4.6547,4.7509,4.824,4.9317,4.9894,5.0087,5.0971,5.1356,5.1356,5.151,5.0894,4.9894,5.001,4.9817,4.9356,4.8586,0.0,0.0,5.0048,5.1972,5.4626,5.7049,5.9896,6.2704,6.4282,6.6551,6.8821,6.9937,7.036,7.0514,7.0821,7.1437,7.2014,7.2168,7.3245,7.4091,7.3437,7.2706,7.1745,7.0206,6.936,6.8821,6.8821,7.0937,7.3476,7.6015,7.7977,7.9939,8.2208,8.267,8.317,8.4324,8.4593,8.5632,8.8017,8.8402,8.9171,9.0864,9.1133,9.121,9.121,9.121,9.121,9.121,9.121,9.121,9.121,9.1902,9.2287,9.2287,9.3095,9.3864,9.4557,9.4711,9.5172,9.5865,0.0,0.0,9.6095,9.6249,9.6288,9.6288,9.6288,9.6711,9.7288,9.7288,9.775,9.8365,0.0,0.0,0.0,0.0,0.0,0.0,0.0,3.4297,3.5781,3.8359,3.8008,3.7148,3.6172,3.5664,3.5547,0.0,0.0,0.0,0.0,0.0,0.0,3.7226,3.8437,3.94,4.0096,4.13,4.2294,4.3008,0.0,4.4047,4.4932,4.574,4.6355,4.6817,4.8125,4.8702,4.874,4.9163,4.8355,4.6894,4.774,4.7586,4.6817,0.0,0.0,0.0,4.9702,5.251,5.5972,5.7203,6.0742,6.4859,6.6128,6.7667,6.9283,7.0514,7.0898,7.1014,7.1437,7.186,7.2399,7.3283,7.413,7.4361,7.3129,7.2168,7.0783,6.8244,6.7705,6.7475,6.659,6.959,7.2745,7.4437,7.7207,8.0054,8.2631,8.3362,8.4132,8.5401,8.5517,8.6363,8.8479,8.8709,8.9402,9.1056,9.121,9.121,9.121,9.121,9.121,9.121,9.121,9.1441,9.1864,9.2287,9.271,9.3133,9.398,9.4595,9.5018,9.548,9.5903,9.6288,9.6288,0.0,9.6288,9.6288,9.6288,9.6326,9.6749,9.7173,9.7557,9.8019,9.8442,9.8788,0.0,0.0,0.0,0.0,0.0,0.0,0.0,3.6875,3.8516,4.1836,4.2539,4.1562,3.8711,3.7461,3.6523,0.0,0.0,0.0,0.0,0.0,0.0,0.0,0.0,3.7326,3.7996,0.0,0.0,4.1277,4.0739,0.0,0.0,0.0,0.0,0.0,4.5855,4.6624,4.6663,4.7317,4.6586,0.0,0.0,4.6086,4.5355,0.0,0.0,0.0,0.0,5.2587,5.6588,5.7511,6.0819,6.4859,6.6782,6.7975,6.8975,7.0475,7.0898,7.1091,7.1937,7.2322,7.2822,7.4322,7.4861,7.4476,7.2629,7.1245,6.9475,6.6282,6.582,6.5782,6.5013,6.8436,7.2014,7.3976,7.7246,8.0592,8.3708,8.4747,8.5478,8.6286,8.6363,8.6978,8.8556,8.8709,8.9402,9.1056,9.1364,0.0,9.1479,9.1479,9.1556,9.1748,9.1748,9.2056,9.2749,9.2941,9.3364,9.398,9.4864,9.5288,9.5288,9.598,9.6288,9.6288,9.6288,0.0,0.0,9.6557,9.6673,9.6903,9.7519,9.7904,9.8134,9.8827,9.9173,9.9327,0.0,0.0,0.0,0.0,0.0,0.0,0.0,3.7266,3.9336,4.5078,4.4531,4.3164,4.2031,4.0508,3.8281,0.0,0.0,0.0,0.0,0.0,0.0,0.0,0.0,0.0,0.0,0.0,0.0,3.9508,4.0162,0.0,0.0,0.0,0.0,0.0,0.0,4.5701,4.5701,4.5778,0.0,0.0,0.0,0.0,0.0,0.0,0.0,0.0,0.0,5.2356,5.5318,5.9165,6.0281,6.105,6.6551,6.8898,6.9744,7.0629,7.0898,7.1091,7.1937,7.2783,7.3591,7.4476,7.5284,7.5245,7.2745,7.036,6.7898,6.5243,6.3551,6.3205,6.5359,6.7398,7.0552,7.6053,7.79,8.0323,8.5209,8.594,8.6324,8.7171,8.7286,8.7632,8.8594,8.8709,8.9402,9.1056,0.0,0.0,9.2364,9.2364,9.271,9.3441,9.348,9.3518,9.3595,9.4364,9.4788,9.4864,9.5749,9.6172,9.6172,9.6249,9.6288,9.6288,9.6288,0.0,0.0,9.7403,9.7865,9.8557,9.8634,9.9173,9.9865,9.9942,10.0404,10.1096,0.0,0.0,0.0,0.0,0.0,0.0,3.8125,3.8437,4.0234,4.6289,4.6484,4.5508,4.4101,4.2891,4.0391,3.5859,0.0,0.0,0.0,0.0,0.0,0.0,0.0,0.0,0.0,0.0,3.8654,3.9377,4.0662,0.0,0.0,0.0,0.0,0.0,0.0,4.5316,4.4816,4.4816,0.0,0.0,0.0,0.0,0.0,0.0,0.0,0.0,0.0,0.0,5.6242,5.7934,5.9973,6.2204,6.4589,6.6974,6.9167,7.0514,7.1629,7.2552,7.2899,7.3591,7.4437,7.5284,7.5361,7.4553,7.2014,6.9436,6.6898,6.4359,6.3281,6.3281,6.482,6.6474,6.9244,7.4207,7.5707,7.7823,8.2439,8.3978,8.5093,8.6478,8.7094,8.794,8.9286,8.944,9.0133,9.1864,0.0,0.0,9.3903,9.3518,9.3364,9.3672,9.371,9.3941,9.448,9.4826,9.5249,9.5788,9.6134,9.6288,9.6288,9.6288,9.6557,9.7019,9.7019,0.0,0.0,9.8288,9.8481,9.8865,9.9365,9.9788,10.0173,10.0596,10.1019,10.1289,0.0,0.0,0.0,0.0,0.0,3.3476,3.8398,3.9062,4.0976,4.6484,4.6992,4.6445,4.5508,4.3476,4.082,3.7461,3.6445,0.0,0.0,0.0,0.0,0.0,0.0,0.0,0.0,0.0,3.8926,4.0185,4.153,4.1854,0.0,0.0,4.4239,4.3508,0.0,0.0,0.0,0.0,0.0,0.0,0.0,0.0,0.0,0.0,0.0,0.0,0.0,0.0,0.0,0.0,0.0,6.2012,6.3012,6.532,6.8129,7.0552,7.2168,7.3283,7.4053,7.4476,7.4899,7.5784,7.5361,7.4053,7.1475,6.8936,6.6359,6.382,6.3128,6.3281,6.4397,6.5974,6.8513,7.2822,7.4399,7.6669,8.1208,8.3093,8.4593,8.6286,8.7248,8.8248,8.944,9.0248,9.1056,0.0,0.0,0.0,0.0,9.4672,9.448,9.448,9.448,9.4749,9.5365,9.5365,9.5672,9.6288,9.6288,9.6288,9.6326,9.6557,9.698,9.7519,0.0,0.0,0.0,9.9173,9.9327,9.9596,10.0212,10.0481,10.0481,10.1096,10.1289,10.1289,0.0,0.0,0.0,0.0,0.0,0.0,3.668,3.8789,4.1445,4.5742,4.5547,4.5351,4.6172,4.1719,3.8984,3.9805,3.75,0.0,0.0,0.0,0.0,0.0,0.0,0.0,0.0,0.0,3.9508,4.197,4.2739,4.3085,4.3124,4.4778,4.5124,4.4316,0.0,0.0,0.0,0.0,0.0,0.0,0.0,0.0,4.9279,0.0,0.0,0.0,0.0,0.0,0.0,0.0,0.0,0.0,0.0,6.4512,6.6744,7.0937,7.2206,7.2745,7.5284,7.5361,7.4899,7.5784,7.5361,7.4053,7.1475,6.8936,6.6359,6.382,6.2666,6.2627,6.4282,6.5974,6.8513,7.2822,7.4899,7.7746,8.2862,8.4324,8.5517,8.7171,8.8171,8.8671,8.8709,9.0979,9.2133,0.0,0.0,0.0,0.0,9.5826,9.6288,9.6288,9.6288,9.6288,9.6288,9.6288,9.6288,9.6288,9.6288,9.6288,9.6326,9.7134,9.748,0.0,0.0,0.0,0.0,10.0096,10.0596,10.1289,10.1289,10.1289,10.1289,10.1289,10.1289,10.1289,0.0,0.0,0.0,0.0,0.0,0.0,0.0,3.5039,3.6172,4.0469,4.0273,4.0508,4.2578,3.9766,3.7812,3.8086,3.6836,0.0,0.0,0.0,0.0,0.0,0.0,0.0,0.0,0.0,4.1001,4.2944,4.5358,4.6509,4.6547,4.7048,4.6855,4.6047,4.574,4.5278,0.0,0.0,0.0,0.0,0.0,4.6509,4.8625,0.0,0.0,0.0,0.0,0.0,0.0,0.0,0.0,0.0,0.0,0.0,0.0,6.7628,7.0783,7.3129,7.336,7.4053,7.463,7.4361,7.363,7.2476,7.0514,6.809,6.5705,6.3705,6.3089,6.3281,6.4397,6.5513,6.8244,7.4245,7.5168,7.6899,8.1977,8.4439,8.594,8.644,8.8286,8.9517,8.9517,8.9748,9.0517,0.0,0.0,0.0,0.0,9.6134,9.6288,9.6288,9.6288,9.6288,9.6288,9.6288,9.6288,9.6288,9.6288,9.6596,9.7134,9.7365,0.0,0.0,0.0,0.0,0.0,10.0904,10.1096,10.1289,10.1289,10.1289,10.1289,10.1289,10.1289,10.1289,0.0,0.0,0.0,0.0,0.0,0.0,0.0,3.3867,3.4609,3.7266,3.6875,3.7422,4.0391,3.7539,3.5898,3.7187,3.6211,0.0,0.0,0.0,0.0,0.0,0.0,0.0,0.0,3.9334,4.1673,4.5323,4.7569,4.8971,4.9548,5.0202,4.9394,4.7317,4.6778,4.5893,0.0,0.0,0.0,0.0,4.5509,4.7009,4.9202,0.0,0.0,0.0,0.0,0.0,0.0,0.0,0.0,0.0,0.0,0.0,0.0,0.0,6.7782,7.0937,7.2322,7.3437,7.413,7.363,7.2591,7.1283,6.959,6.7244,6.4936,6.3205,6.3089,6.3474,6.4012,6.5359,6.7936,7.2822,7.3707,7.5668,8.1093,8.3208,8.4786,8.6401,8.8556,8.9787,8.9479,9.0133,0.0,0.0,0.0,0.0,0.0,9.6288,9.6134,9.5826,9.6134,9.6288,9.6288,9.6288,9.6288,9.6288,9.6596,9.7019,9.7519,9.8173,0.0,0.0,0.0,0.0,0.0,10.1289,10.1289,10.1289,10.1289,10.1289,10.1289,10.1289,10.1289,10.1289,0.0,0.0,0.0,0.0,0.0,0.0,0.0,3.4609,3.5625,3.5625,3.4922,3.5664,3.8906,3.4961,3.3398,3.6562,0.0,0.0,0.0,0.0,0.0,0.0,0.0,0.0,0.0,3.91,4.1933,4.8482,4.9465,5.0737,5.2318,5.3857,5.2356,4.8355,4.824,4.724,0.0,0.0,0.0,0.0,4.6086,4.7702,0.0,0.0,0.0,0.0,0.0,0.0,0.0,0.0,0.0,0.0,0.0,0.0,0.0,0.0,0.0,0.0,0.0,7.2937,7.3053,7.2976,7.1745,7.0129,6.8513,6.6244,0.0,6.2435,6.2704,6.3281,6.3474,6.5436,6.7705,6.9821,7.1514,7.463,8.0554,8.1516,8.317,8.7286,8.8979,8.9594,8.9017,9.1672,0.0,0.0,0.0,0.0,0.0,9.6288,9.5942,9.5095,9.5865,9.6288,9.6211,9.6288,9.6326,9.6403,9.7134,9.7557,9.775,9.9365,0.0,0.0,0.0,0.0,0.0,10.1289,10.1289,10.1289,10.1289,10.1289,10.1289,10.1289,10.1289,10.1289,0.0,0.0,0.0,0.0,0.0,0.0,0.0,0.0,0.0,0.0,3.1914,3.2109,3.293,3.1914,3.1523,0.0,0.0,0.0,0.0,0.0,0.0,0.0,0.0,0.0,0.0,4.0965,4.4172,4.8375,5.1718,5.4182,5.578,5.5549,5.3857,5.0971,4.9663,4.7778,0.0,0.0,0.0,0.0,4.7355,4.8394,0.0,0.0,0.0,0.0,5.3203,5.4318,0.0,0.0,0.0,0.0,0.0,0.0,0.0,0.0,6.1473,6.3512,6.6013,0.0,6.8475,6.7821,6.7359,6.6782,0.0,6.4512,6.332,6.232,6.2243,6.2974,6.4936,6.5782,6.8013,7.3591,7.5399,7.7938,8.3247,8.567,8.8017,9.0941,8.994,8.9671,9.1441,9.1095,0.0,0.0,0.0,0.0,0.0,9.6288,9.6211,9.6019,9.6211,9.598,9.5288,9.598,9.6596,9.7211,9.7403,9.8211,9.9481,9.9904,0.0,0.0,0.0,0.0,10.1289,10.1289,10.1289,10.1289,10.1289,10.1289,10.1289,10.1289,10.1289,10.1289,0.0,0.0,0.0,0.0,0.0,0.0,0.0,0.0,0.0,0.0,0.0,0.0,0.0,0.0,0.0,0.0,0.0,0.0,0.0,0.0,0.0,0.0,0.0,0.0,3.8954,4.1183,4.4684,4.9451,5.2508,5.5259,5.7588,5.7126,5.5318,5.2395,4.951,4.7278,0.0,0.0,0.0,4.7471,4.7509,0.0,0.0,0.0,0.0,0.0,5.2741,5.378,0.0,5.778,5.8781,5.8858,0.0,0.0,0.0,0.0,5.955,6.1089,6.2012,6.4936,6.759,6.7167,6.6744,6.6244,6.5397,6.3935,6.2512,6.1666,6.2127,6.3205,6.4974,6.7205,6.9975,7.3668,7.6938,8.0669,8.5401,8.8594,9.0825,9.1787,9.1364,9.121,0.0,0.0,0.0,0.0,0.0,0.0,0.0,9.6288,9.5942,9.5134,9.548,9.5672,9.5595,9.6057,9.6711,9.7519,9.7904,9.8788,10.0096,10.0481,10.0904,0.0,0.0,0.0,10.1289,10.1289,10.1289,10.1289,10.1289,10.1289,10.1289,10.1289,10.1289,10.1289,0.0,0.0,0.0,0.0,0.0,0.0,0.0,0.0,0.0,0.0,0.0,0.0,0.0,0.0,0.0,0.0,0.0,0.0,0.0,0.0,0.0,0.0,0.0,3.7284,3.9991,4.0885,4.4449,5.0778,5.2986,5.5583,5.8511,5.8896,5.6973,5.3049,4.9048,4.6663,0.0,0.0,4.5893,4.8048,4.7355,0.0,0.0,0.0,0.0,0.0,0.0,0.0,0.0,5.8665,5.9896,5.9588,6.005,0.0,0.0,0.0,0.0,0.0,5.9896,6.4166,6.8244,6.759,6.709,6.6513,6.5705,6.382,6.205,6.132,6.2435,6.4012,6.5667,6.936,7.2552,7.3553,7.8207,8.2978,8.6671,9.0017,9.1941,9.1441,9.2518,0.0,0.0,0.0,0.0,0.0,0.0,0.0,0.0,9.6288,9.5634,9.4134,9.4788,9.5557,9.6288,9.6288,9.6788,9.7711,9.8596,9.9442,10.0289,10.1019,10.1289,0.0,0.0,0.0,10.1289,10.1289,10.1289,10.1289,10.1289,10.1289,10.1289,10.1289,10.1289,10.1289,0.0,0.0,0.0,0.0,0.0,0.0,0.0,0.0,0.0,0.0,0.0,0.0,0.0,0.0,0.0,0.0,0.0,0.0,0.0,0.0,0.0,0.0,0.0,0.0,4.1629,4.1928,4.4889,5.0702,5.4699,5.7543,5.9358,6.1512,5.9204,5.3087,5.0279,4.774,4.5586,4.547,4.6432,4.8086,4.7971,0.0,0.0,0.0,0.0,0.0,0.0,0.0,0.0,5.6819,5.8434,5.9281,5.7973,0.0,0.0,0.0,0.0,0.0,6.1743,6.5513,6.7552,6.3974,6.4012,6.4743,6.3897,6.3397,6.3089,6.2935,6.3705,6.5974,7.1168,7.2168,7.4091,7.9823,8.2747,8.4786,8.6094,8.8632,9.0787,9.2133,0.0,0.0,0.0,0.0,0.0,0.0,0.0,0.0,0.0,9.6288,9.6172,9.5903,9.6019,9.6172,9.6288,9.6288,9.7057,9.8596,9.9481,10.0289,10.1096,10.1212,10.1289,0.0,0.0,10.1289,10.1289,10.1289,10.1289,10.1289,10.1289,10.1289,10.1289,10.1289,10.1289,10.1289,0.0,0.0,0.0,0.0,0.0,0.0,0.0,0.0,0.0,0.0,0.0,0.0,0.0,0.0,0.0,0.0,0.0,0.0,0.0,0.0,0.0,0.0,0.0,0.0,4.2731,4.4675,4.8201,5.3395,5.6851,5.9811,6.2243,6.1127,5.7703,5.2395,4.9817,4.7548,4.5586,4.5586,4.6586,4.8086,0.0,0.0,0.0,0.0,0.0,0.0,0.0,0.0,0.0,0.0,5.8127,5.9281,5.8088,0.0,0.0,0.0,0.0,0.0,5.9935,6.3397,6.6205,6.5667,6.7782,7.009,7.0167,6.909,6.7975,6.7513,6.809,6.9821,7.3476,7.5707,7.9054,8.5401,8.6324,8.6709,8.7979,8.9979,9.1595,0.0,0.0,0.0,0.0,0.0,0.0,0.0,0.0,0.0,0.0,0.0,9.6288,9.6288,9.5403,9.5365,9.6288,9.6288,9.7134,9.8788,9.9673,10.0481,10.1289,10.1289,10.1289,10.1289,0.0,10.1289,10.1289,10.1289,10.1289,10.1289,10.1289,10.1289,10.1289,10.1289,10.1289,10.1289,0.0,0.0,0.0,0.0,0.0,0.0,0.0,0.0,0.0,0.0,0.0,0.0,0.0,0.0,0.0,0.0,0.0,0.0,0.0,0.0,0.0,0.0,0.0,0.0,0.0,4.8221,5.182,5.6588,5.948,6.217,6.4512,6.0473,5.6203,5.1818,4.9471,4.7355,4.5586,4.5817,4.674,4.8125,0.0,0.0,0.0,0.0,0.0,0.0,0.0,0.0,0.0,0.0,0.0,0.0,0.0,0.0,0.0,5.7165,5.6934,5.7665,5.9319,6.2435,6.5897,6.8859,7.1591,7.3976,7.563,7.4014,7.2168,7.2091,7.2937,7.4245,7.613,7.9977,8.4286,8.8632,8.8248,8.7863,8.9133,9.0787,9.1902,0.0,0.0,0.0,0.0,0.0,0.0,0.0,0.0,0.0,0.0,0.0,9.6673,9.6865,9.5211,9.5134,9.6865,9.6673,9.7326,9.8788,9.9865,10.0712,10.1289,10.1289,10.1289,10.1289,10.1289,10.1289,10.1289,10.1289,10.1289,10.1289,10.1289,10.1289,10.1289,10.1289,10.1289,10.1289,0.0,0.0,0.0,0.0,0.0,0.0,0.0,0.0,0.0,0.0,0.0,0.0,0.0,0.0,0.0,0.0,0.0,0.0,0.0,0.0,0.0,0.0,0.0,0.0,0.0,5.2423,5.4537,5.9242,6.2734,6.45,6.4512,6.105,5.6742,5.1818,5.0087,4.7932,4.5663,4.6471,4.7317,4.8163,4.8971,0.0,0.0,0.0,0.0,0.0,0.0,0.0,0.0,0.0,0.0,0.0,0.0,0.0,5.9473,5.9281,5.8742,5.9088,6.3051,6.5513,6.7936,7.2091,7.1591,7.1091,7.5091,7.4014,7.286,7.5168,7.6899,7.8784,8.1285,8.5247,8.8017,8.7632,8.7478,8.744,8.7555,0.0,0.0,0.0,0.0,0.0,0.0,0.0,0.0,0.0,0.0,0.0,0.0,0.0,0.0,9.8596,9.698,9.6903,9.8596,9.7827,9.7865,9.8827,10.0404,10.1212,10.1289,10.1289,10.1289,10.1289,10.1289,10.1289,10.1289,10.1289,10.1289,10.1289,10.1289,10.1289,10.1289,10.1289,10.1289,10.1289,0.0,0.0,0.0,0.0,0.0,0.0,0.0,0.0,0.0,0.0,0.0,0.0,0.0,0.0,0.0,0.0,0.0,0.0,0.0,0.0,0.0,0.0,0.0,4.7684,5.282,5.5667,5.9486,6.4422,6.5641,6.5385,6.3705,5.9242,5.528,5.1818,4.9586,4.8048,4.7163,4.7509,4.8432,4.9702,4.9471,4.9933,0.0,0.0,0.0,0.0,0.0,0.0,0.0,0.0,5.578,5.7665,5.6934,5.8357,6.0089,5.905,5.855,5.8896,6.1512,6.4628,6.7859,7.1091,7.3168,7.5399,7.9092,7.9169,7.9054,8.1131,8.2054,8.2939,8.4401,8.7286,8.9017,8.7632,8.7401,8.7401,8.7401,0.0,0.0,0.0,0.0,0.0,0.0,0.0,0.0,0.0,0.0,0.0,0.0,0.0,0.0,9.9558,9.7442,9.7096,9.8788,9.7942,9.7942,9.8827,10.0519,10.1289,10.1289,10.1289,10.1289,10.1289,10.1289,10.1289,10.1289,10.1289,10.1289,10.1289,10.1289,10.1289,10.1289,10.1289,10.1289,10.1289,0.0,0.0,0.0,0.0,0.0,0.0,0.0,0.0,0.0,0.0,0.0,0.0,0.0,0.0,0.0,0.0,0.0,0.0,0.0,0.0,0.0,0.0,0.0,4.799,5.2487,5.7653,6.1989,6.5397,6.6013,6.4859,6.2012,5.7703,5.4626,5.2626,5.0048,4.9202,4.9702,4.9163,4.9625,5.0625,5.0048,5.0164,0.0,0.0,0.0,0.0,0.0,0.0,0.0,0.0,5.5318,5.7396,5.7011,5.8704,6.055,5.9435,6.0242,6.1666,6.2551,6.5474,6.8975,7.1822,7.4707,7.79,8.1823,8.2516,8.2939,8.5209,8.5709,8.6094,8.7478,8.8248,8.8517,8.7902,8.7363,8.7094,0.0,0.0,0.0,0.0,0.0,0.0,0.0,0.0,0.0,0.0,0.0,0.0,0.0,0.0,0.0,0.0,9.8019,9.7634,9.9558,9.8211,9.8096,9.9211,10.0596,10.1289,10.1289,10.1289,10.1289,10.1289,10.1289,10.1289,10.1289,10.1289,10.1289,10.1289,10.1289,10.1289,10.1289,10.1289,10.1289,10.1289,0.0,0.0,0.0,0.0,0.0,0.0,0.0,0.0,0.0,0.0,0.0,0.0,0.0,0.0,0.0,0.0,0.0,0.0,3.0898,3.2461,3.457,3.7187,4.2226,4.7385,5.2498,5.8182,6.107,6.1019,6.3424,6.282,5.9435,5.6857,5.5241,0.0,0.0,0.0,5.3087,5.1433,5.0702,5.0702,5.0702,5.0702,5.0702,0.0,0.0,0.0,0.0,0.0,0.0,0.0,5.5011,5.6165,5.8665,6.0089,6.0819,6.0781,6.4397,6.8167,6.7282,6.8936,7.1745,7.513,7.6015,7.74,8.2439,8.2939,8.3285,8.6709,8.744,8.8209,9.071,8.8402,8.6671,8.8402,8.7209,8.644,0.0,0.0,0.0,0.0,0.0,0.0,0.0,0.0,0.0,0.0,0.0,0.0,0.0,0.0,0.0,0.0,9.8827,9.8711,10.1212,9.875,9.8365,10.0096,10.0904,10.1289,10.1289,10.1289,10.1289,10.1289,10.1289,10.1289,10.1289,10.1289,10.1289,10.1289,10.1289,10.1289,10.1289,10.1289,10.1289,10.1289,0.0,0.0,0.0,0.0,0.0,0.0,0.0,0.0,0.0,0.0,0.0,0.0,0.0,0.0,0.0,0.0,0.0,0.0,3.1758,3.2812,3.457,3.7187,4.1641,4.4781,4.6348,5.1409,5.6865,6.2617,6.2757,6.1089,5.7703,5.5126,0.0,5.3549,0.0,0.0,5.2241,5.1779,5.1895,5.2395,5.1779,5.1895,5.2395,0.0,0.0,0.0,0.0,0.0,0.0,0.0,0.0,0.0,5.7511,5.9973,6.2204,6.0396,6.2204,6.4628,6.382,6.759,7.2052,7.3053,7.7823,8.267,8.417,8.4324,8.5093,8.8479,8.9671,8.994,8.9517,8.8594,8.7709,8.6978,8.694,0.0,0.0,0.0,0.0,0.0,0.0,0.0,0.0,0.0,0.0,0.0,0.0,0.0,0.0,0.0,0.0,0.0,9.9135,9.8481,9.8634,9.7865,9.8057,9.9211,9.9981,10.0481,10.0481,10.1019,10.1289,10.1289,10.1289,10.1289,10.1289,10.1289,10.1019,10.0481,10.1096,10.1289,10.1289,10.1289,10.1289,10.1289,0.0,0.0,0.0,0.0,0.0,0.0,0.0,0.0,3.0898,3.0898,3.0898,3.0898,0.0,0.0,0.0,3.0898,3.1211,0.0,3.2187,3.3594,3.5469,3.7734,4.1602,4.479,4.7056,5.0615,5.437,5.828,5.8819,5.7857,5.5472,5.4934,0.0,5.5703,0.0,5.5742,5.4895,5.4203,5.3857,5.3664,5.3126,5.3241,5.3626,0.0,0.0,0.0,0.0,0.0,0.0,0.0,0.0,0.0,5.6896,5.8973,6.1358,6.1473,6.4282,6.7628,6.8821,7.2591,7.6553,7.79,8.1323,8.4824,8.6517,8.6901,8.7555,8.994,9.0556,9.0364,8.9363,8.8632,0.0,8.6786,0.0,0.0,0.0,0.0,0.0,0.0,0.0,0.0,0.0,0.0,0.0,0.0,0.0,0.0,0.0,0.0,0.0,0.0,9.8904,9.8211,9.8019,9.7673,9.7942,9.8788,9.9673,9.9904,9.9596,10.0789,10.1289,10.1289,10.1289,10.1289,10.1289,10.1289,10.1019,10.0596,10.1096,10.1289,10.1289,10.1289,10.1289,10.1289,0.0,0.0,0.0,0.0,0.0,0.0,0.0,3.0937,3.0898,3.0898,3.0898,3.0898,0.0,0.0,0.0,3.1016,3.1758,3.2305,3.2539,3.4726,3.6875,3.8867,4.224,4.6527,5.1833,5.3254,5.2682,5.024,5.2933,5.3818,5.3049,0.0,5.7857,5.9435,0.0,6.0204,5.905,5.7357,5.578,5.4395,5.4395,5.4472,5.4511,5.3549,0.0,0.0,0.0,0.0,0.0,0.0,0.0,0.0,5.678,5.7703,5.9165,6.3012,6.8359,7.386,7.7707,8.04,8.2862,8.6209,8.5593,8.517,8.9017,8.9979,9.0248,9.1056,9.0556,8.9979,8.9825,8.8594,8.7594,0.0,0.0,0.0,0.0,0.0,0.0,0.0,0.0,0.0,0.0,0.0,0.0,0.0,0.0,0.0,0.0,0.0,0.0,0.0,9.8327,9.7865,9.8557,9.7788,9.7865,0.0,9.9596,9.9635,9.9096,10.0596,10.1289,10.1289,10.1289,10.1289,10.1212,10.1289,10.1212,10.1096,10.1212,10.1289,10.1212,10.1289,10.1289,10.1289,0.0,0.0,0.0,0.0,0.0,0.0,3.1836,3.1328,3.0898,3.0898,3.0898,3.0898,3.0898,3.0898,0.0,3.1875,3.2109,3.3047,3.5039,3.5703,3.7656,4.1406,4.4821,4.7473,4.9276,4.8277,4.7394,4.6701,5.0587,5.2049,0.0,0.0,0.0,5.8627,0.0,5.9204,0.0,5.4741,5.3818,5.3472,5.3472,5.428,5.528,5.378,5.3087,0.0,0.0,0.0,0.0,0.0,0.0,0.0,5.7319,5.8588,5.9435,6.0319,6.482,6.9706,7.0591,7.5476,8.0977,8.3708,8.6517,8.8786,8.971,9.0441,9.0979,9.1171,9.1056,9.0517,8.921,8.9171,0.0,0.0,0.0,0.0,0.0,0.0,0.0,0.0,0.0,0.0,0.0,0.0,0.0,0.0,0.0,0.0,0.0,0.0,0.0,9.8057,9.7711,9.7288,9.6826,9.6634,9.7326,0.0,9.8981,9.9673,10.0789,10.1096,10.1289,10.1289,10.1289,10.0904,10.0404,10.1019,10.0519,9.9481,10.0789,10.0904,10.0404,10.1096,10.1289,10.1289,0.0,0.0,0.0,0.0,0.0,0.0,0.0,0.0,3.0898,3.0898,3.125,3.1523,3.1523,3.1875,0.0,0.0,3.3164,3.4141,3.5898,3.6797,3.9336,4.4062,4.661,4.7928,4.7933,4.6453,4.5278,4.4393,4.7009,4.8894,0.0,0.0,0.0,5.8896,0.0,5.8742,0.0,0.0,0.0,5.3895,5.4703,5.528,5.5549,5.4318,5.3318,5.2433,5.1164,0.0,0.0,0.0,0.0,0.0,0.0,0.0,5.8858,6.1743,6.532,6.936,7.386,7.7977,8.1823,8.5209,8.7979,9.0017,9.0441,9.0864,9.121,9.121,9.121,9.0825,8.9517,0.0,0.0,0.0,0.0,0.0,0.0,0.0,0.0,0.0,0.0,0.0,0.0,0.0,0.0,0.0,0.0,0.0,0.0,9.7596,9.7096,9.748,9.7134,9.6711,9.6288,9.6288,9.7134,9.8788,9.8788,9.9673,10.1289,10.1289,10.1289,10.1289,10.1289,10.1096,10.0712,10.1096,10.0789,10.0096,10.1019,10.1019,10.0712,10.1096,10.1289,10.1289,0.0,0.0,0.0,0.0,0.0,0.0,0.0,0.0,0.0,3.1328,3.1953,3.2422,3.2422,3.3008,3.3476,0.0,0.0,0.0,3.6172,3.8125,4.1211,4.5664,4.7279,4.7722,4.708,4.5796,4.4547,4.3316,4.4124,4.6278,0.0,0.0,0.0,5.9281,0.0,0.0,0.0,0.0,0.0,0.0,5.5549,5.578,5.5164,5.4357,5.3164,5.1779,5.0971,5.1664,5.301,5.3164,0.0,0.0,0.0,0.0,5.8242,6.3474,6.6513,6.9898,7.7784,8.117,8.3516,8.7671,8.9402,9.0325,9.1056,9.121,9.121,9.121,9.121,9.0979,0.0,0.0,0.0,0.0,0.0,0.0,0.0,0.0,0.0,0.0,0.0,0.0,0.0,0.0,0.0,0.0,0.0,0.0,9.825,9.7057,9.6596,9.7288,9.6634,9.6288,9.6288,9.6442,9.7288,9.8788,9.9096,9.9942,10.1289,10.1289,10.1289,10.1289,10.1289,10.1289,10.1289,10.1289,10.1212,10.1096,10.1212,10.1212,10.1096,10.1212,10.1289,10.1289,0.0,0.0,0.0,0.0,0.0,0.0,0.0,0.0,0.0,0.0,3.3164,3.3242,3.3242,3.3359,3.3711,3.4453,3.4648,3.5391,3.7031,0.0,0.0,4.3984,4.5445,4.618,4.6095,4.435,4.3662,4.4124,4.5009,4.7163,0.0,0.0,0.0,5.8473,0.0,0.0,0.0,0.0,0.0,0.0,5.251,5.2972,5.3433,5.2587,5.2125,5.1779,5.0971,5.1279,5.2202,5.2972,5.4318,0.0,0.0,0.0,5.8588,6.0819,6.4243,6.7705,6.9706,7.6707,8.4286,8.7825,8.9863,9.1056,9.1171,9.121,9.121,9.121,9.121,9.1171,0.0,0.0,0.0,0.0,0.0,0.0,0.0,0.0,0.0,0.0,0.0,0.0,0.0,0.0,0.0,0.0,0.0,0.0,9.6596,9.6442,9.6365,9.648,9.6365,9.6288,9.6288,9.698,9.7827,9.8827,10.0289,10.1096,10.1289,10.1289,10.1289,10.1289,10.1289,10.1289,10.1289,10.1289,10.0904,10.0289,10.1019,10.0904,10.0289,10.1019,10.1289,10.1289,0.0,0.0,0.0,0.0,0.0,0.0,0.0,0.0,0.0,0.0,0.0,3.3594,3.4062,3.457,3.5,3.5391,3.543,3.5976,3.7226,4.0078,4.2092,4.2875,4.3942,4.4471,4.4453,4.3079,4.2777,4.3624,4.447,4.7355,0.0,5.4126,5.6434,0.0,0.0,0.0,0.0,0.0,0.0,0.0,5.1741,5.328,5.5088,5.2779,5.3087,5.4395,5.1664,5.151,5.2702,5.3087,5.4626,5.6626,5.7896,0.0,0.0,0.0,6.2781,6.6205,7.186,7.8746,8.5132,8.8517,9.0287,9.121,9.121,9.121,9.121,9.121,9.1595,0.0,0.0,0.0,0.0,0.0,0.0,0.0,0.0,0.0,0.0,0.0,0.0,0.0,0.0,0.0,0.0,0.0,0.0,9.5365,9.6249,9.6288,9.6288,9.6288,9.6288,9.6288,9.6288,9.7096,9.8173,9.9519,10.0712,10.1289,10.1289,10.1289,10.1289,10.1289,10.1289,10.1289,10.1289,10.1289,10.1096,10.0789,10.1212,10.1096,10.0789,10.1212,10.1289,10.1289,0.0,0.0,0.0,0.0,0.0,0.0,0.0,0.0,0.0,0.0,0.0,3.4297,3.4961,0.0,0.0,0.0,3.6016,3.6367,3.7226,3.9141,4.0647,4.1585,4.2148,4.2482,4.2626,4.187,4.2008,4.3085,4.4355,0.0,5.3549,5.4857,5.7357,0.0,5.7703,5.6242,0.0,0.0,0.0,0.0,5.2779,5.4857,5.7165,5.5703,5.6857,5.8704,5.4472,5.3895,5.4972,5.3895,5.5203,5.7434,5.8088,5.9011,0.0,0.0,0.0,6.4512,7.3053,7.8438,8.2747,8.7209,8.9286,9.0402,9.1056,9.121,9.121,9.121,9.171,0.0,0.0,0.0,0.0,0.0,0.0,0.0,0.0,0.0,0.0,0.0,0.0,0.0,0.0,0.0,0.0,0.0,0.0,9.5595,9.6288,9.6288,9.6288,9.6288,9.6288,9.6288,9.6288,9.7326,9.8711,10.0404,10.1019,10.1289,10.1289,10.1289,10.1289,10.1289,10.1289,10.1289,10.1289,10.1289,10.1289,10.1289,10.1289,10.1289,10.1289,10.1289,10.1289,10.1289,0.0,0.0,0.0,0.0,0.0,0.0,0.0,0.0,0.0,0.0,0.0,3.5898,3.5937,3.5976,3.6016,3.6016,3.6016,3.6367,3.7226,3.7422,3.8185,3.9754,3.9815,0.0,4.0831,4.0677,4.1393,4.3085,0.0,0.0,5.4472,5.6934,6.0319,6.4166,6.0012,5.7703,5.678,0.0,0.0,0.0,0.0,5.7319,5.8665,6.2474,6.4551,6.4859,6.0589,5.9627,5.9781,0.0,5.6126,5.8242,5.828,5.9435,6.0742,0.0,0.0,0.0,6.8436,7.1437,7.463,8.2054,8.5786,8.8209,9.0671,9.121,9.121,9.121,9.1248,0.0,0.0,0.0,0.0,0.0,0.0,0.0,0.0,0.0,0.0,0.0,0.0,0.0,0.0,0.0,0.0,0.0,0.0,9.6249,9.6288,9.6288,9.6288,9.6288,9.6288,9.6288,9.6288,9.7904,9.9596,10.1212,10.1289,10.1289,10.1289,10.1289,10.1289,10.1289,10.1289,10.1289,10.1289,10.1289,10.1289,10.1289,10.1289,10.1289,10.1289,10.1289,10.1289,10.1289,0.0,0.0,0.0,0.0,0.0,0.0,0.0,0.0,0.0,0.0,0.0,0.0,0.0,3.6328,3.6016,3.6016,3.6016,3.6133,3.6445,3.6992,0.0,3.8782,3.9301,3.9877,4.0562,4.0508,4.1085,0.0,0.0,4.7855,5.2895,5.5434,5.8627,6.205,5.9973,5.8896,5.8357,5.4741,0.0,0.0,0.0,5.9665,6.2589,6.4666,6.7321,6.9398,6.5128,6.2397,6.055,0.0,0.0,5.8319,5.8319,5.9435,6.0781,6.0781,6.155,6.3474,6.8359,7.1321,7.4361,7.9785,8.3901,8.6786,8.7709,8.9633,9.121,9.121,9.2056,0.0,0.0,0.0,0.0,0.0,0.0,0.0,0.0,0.0,0.0,0.0,0.0,0.0,0.0,0.0,0.0,0.0,0.0,0.0,9.6288,9.6288,9.6288,9.6288,9.6288,9.6826,9.7904,9.8481,9.9365,10.0481,10.0481,10.0481,10.0481,10.0481,10.0789,10.1289,10.1289,10.1289,10.1289,10.1289,10.1289,10.1289,10.1289,10.1289,10.1289,10.1289,10.1289,10.1289,0.0,0.0,0.0,0.0,0.0,0.0,0.0,0.0,0.0,0.0,0.0,0.0,0.0,0.0,3.6758,3.6445,3.6445,3.6283,3.5997,3.6499,3.7235,3.82,3.8774,3.9531,4.0469,4.0508,4.0931,0.0,0.0,0.0,0.0,5.4395,5.7511,6.0742,5.9627,5.9588,0.0,0.0,0.0,5.4895,0.0,6.2858,6.4974,6.8436,7.1091,0.0,0.0,0.0,0.0,0.0,0.0,0.0,0.0,6.0819,6.0781,6.0781,6.1781,6.3512,6.6359,6.9206,7.2437,7.6976,8.0439,8.3478,8.6324,8.8286,8.9825,9.0979,9.2326,0.0,0.0,0.0,0.0,0.0,0.0,0.0,0.0,0.0,0.0,0.0,0.0,0.0,0.0,0.0,0.0,0.0,0.0,0.0,9.6249,9.6288,9.6288,9.6288,9.6288,9.698,9.8365,9.8365,9.8788,9.9635,9.9635,9.9827,10.0096,10.0096,10.0404,10.0904,10.0904,10.1096,10.1289,10.1289,10.1289,10.1289,10.1289,10.1289,10.1289,10.1289,10.1289,10.1289,0.0,0.0,0.0,0.0,0.0,0.0,0.0,0.0,0.0,0.0,0.0,0.0,0.0,0.0,0.0,3.7578,3.746,3.7058,3.61,3.5968,3.6622,3.807,3.8146,0.0,0.0,4.0508,0.0,0.0,0.0,0.0,0.0,0.0,5.7396,6.0589,5.9011,5.9665,6.1935,0.0,6.0204,6.0012,0.0,6.6898,6.5782,0.0,0.0,0.0,7.4091,7.3745,0.0,7.1706,0.0,0.0,0.0,6.3512,6.0781,6.0781,6.1435,6.2127,0.0,0.0,0.0,7.3245,7.5207,7.8054,8.6401,8.7055,8.6901,9.0325,9.1748,0.0,0.0,0.0,0.0,0.0,0.0,0.0,0.0,0.0,0.0,0.0,0.0,0.0,0.0,0.0,0.0,0.0,0.0,9.5326,9.6211,9.6288,9.6288,9.6288,9.6288,9.6673,9.748,9.7519,9.7904,9.875,9.875,9.9211,10.0096,9.9981,10.0096,10.0096,10.0096,10.0481,10.1212,10.1289,10.1289,10.1289,10.1289,10.1289,10.1289,10.1289,10.1289,10.1289,0.0,0.0,0.0,0.0,0.0,3.9101,3.8867,3.9023,3.9609,0.0,0.0,0.0,0.0,0.0,0.0,4.1914,4.1324,4.0268,3.8738,3.8007,3.8046,3.8992,3.9016,3.9492,4.0469,4.0508,4.0623,0.0,0.0,0.0,0.0,0.0,5.4434,5.7165,5.7934,5.8704,5.9242,5.7742,0.0,5.9858,6.3974,6.7821,0.0,0.0,0.0,0.0,0.0,7.8823,7.6245,0.0,7.3283,6.8821,0.0,6.2551,6.0781,6.0781,6.182,6.2974,6.2974,0.0,0.0,0.0,0.0,0.0,7.7746,8.0131,8.267,8.6709,8.8709,9.0479,0.0,0.0,0.0,0.0,0.0,0.0,0.0,0.0,0.0,0.0,0.0,0.0,0.0,0.0,0.0,0.0,9.421,9.4441,9.5288,9.5942,9.6288,9.6288,9.6288,9.6673,9.748,9.7519,9.7634,9.7865,9.7865,9.8327,9.9135,9.8519,9.8904,10.0096,9.9442,9.9288,9.9558,10.0212,10.0404,10.0481,10.1096,10.1289,10.1289,10.1289,10.1289,10.1289,0.0,0.0,3.9101,3.9609,4.0976,4.2031,4.2031,4.2031,4.25,0.0,0.0,0.0,0.0,0.0,0.0,0.0,4.3772,4.2356,4.0261,3.9262,3.8916,3.9339,3.9685,4.0223,4.1046,4.1393,4.1393,4.1046,4.3239,0.0,0.0,0.0,5.1856,5.3703,5.5395,5.6357,5.6665,5.5626,5.7049,0.0,6.6436,0.0,0.0,7.8015,8.0669,0.0,0.0,0.0,7.9285,8.1862,7.7784,0.0,0.0,6.5436,6.2243,6.155,6.3012,6.4743,6.4051,6.5359,6.7128,6.7975,0.0,0.0,7.6746,7.8861,8.14,0.0,8.9325,9.0979,0.0,0.0,0.0,0.0,0.0,0.0,0.0,0.0,0.0,0.0,0.0,0.0,0.0,0.0,0.0,9.4095,9.3595,9.371,9.4941,9.5826,9.6288,9.6288,9.6288,9.6519,9.698,9.7019,9.7019,9.7019,9.7019,9.7442,9.825,9.775,9.8057,9.8981,9.8481,9.825,9.8327,9.9211,9.975,10.0173,10.1019,10.1289,10.1289,10.1289,10.1289,10.1289,0.0,0.0,4.1406,4.1677,4.371,4.5351,4.5622,4.5616,4.5926,0.0,0.0,0.0,0.0,0.0,0.0,0.0,4.5813,4.4056,4.1431,4.0246,3.9646,3.9585,4.0354,4.12,4.2047,4.2854,4.2854,4.2085,4.3585,4.4393,4.4662,4.7778,0.0,5.0779,5.2356,5.3549,5.4395,5.4857,5.755,6.2204,7.0514,7.2591,0.0,0.0,8.1246,8.0131,8.3939,8.3862,8.2593,8.6863,8.317,0.0,0.0,0.0,6.5397,6.3051,6.4936,6.7398,6.5513,6.6744,6.8706,6.9398,6.9052,0.0,7.8784,7.9669,8.0862,0.0,9.0287,9.1287,0.0,0.0,0.0,0.0,0.0,0.0,0.0,0.0,0.0,0.0,0.0,0.0,0.0,9.3518,9.321,9.4595,9.3326,9.321,9.4903,9.5711,9.6172,9.6172,9.6249,9.6288,9.6288,9.6288,9.6288,9.6288,9.6288,9.6711,9.7519,9.7403,9.748,9.7634,9.7557,9.7557,9.7711,9.8481,9.9288,10.0173,10.1019,10.1289,10.1289,10.1289,10.1289,10.1289,4.1054,4.1771,4.2687,4.4628,4.614,4.7725,4.9534,4.9315,4.9707,5.1823,0.0,0.0,0.0,0.0,0.0,0.0,0.0,4.7532,4.4987,4.2624,4.1354,4.1316,4.2124,4.297,4.3778,4.397,4.397,4.3816,4.4124,4.5009,4.6432,4.774,4.9202,5.0741,5.1741,5.2664,5.3664,5.7088,6.1358,6.6013,6.7859,0.0,7.7246,8.167,8.4747,8.6824,8.7671,8.7632,8.7055,8.6017,8.4055,8.1016,0.0,0.0,7.2514,6.6013,6.7975,7.1591,6.8513,6.8552,6.9321,6.8783,6.9052,0.0,6.9975,7.1398,7.3822,7.8092,8.0169,8.2131,0.0,0.0,0.0,0.0,0.0,0.0,0.0,0.0,0.0,0.0,0.0,0.0,0.0,9.3672,9.3326,9.3018,9.2672,9.321,9.4903,9.5172,9.5249,9.5249,9.5942,9.6288,9.6288,9.6288,9.6288,9.6288,9.6288,9.6711,9.748,9.6826,9.7288,9.8519,9.7788,9.7904,9.8557,9.8711,9.9288,10.0173,10.1019,10.1289,10.1289,10.1289,10.1289,10.1289,4.2499,4.3779,4.5405,4.7423,4.9337,5.142,5.3829,5.3528,5.3738,0.0,0.0,0.0,0.0,0.0,0.0,0.0,0.0,0.0,4.7124,4.5316,4.3778,4.2508,4.3662,4.4739,4.5586,4.5586,4.5586,4.5586,4.5163,4.5393,4.6278,4.7509,5.0394,5.4395,5.2664,5.4049,5.7627,5.7627,6.005,6.4397,6.9475,0.0,8.0746,8.417,8.6824,8.8748,8.9133,8.9863,9.0248,8.8132,8.5401,0.0,7.9939,7.7977,7.563,7.0552,7.2052,7.4553,7.0706,7.0283,7.0821,7.0398,7.0014,0.0,0.0,7.1552,7.2976,7.8092,7.8784,7.9515,8.2978,0.0,0.0,0.0,0.0,0.0,0.0,0.0,0.0,0.0,0.0,0.0,0.0,9.4595,9.4172,9.3787,9.3749,9.4095,9.4941,9.5403,9.5441,9.5018,9.5865,9.6288,9.6288,9.6288,9.6288,9.6288,9.6288,9.6519,9.6903,9.648,9.6749,9.7519,9.7096,9.7634,9.875,9.8327,9.9173,10.0712,10.0712,10.0904,10.1289,10.1289,10.1289,10.1289,4.3645,4.5683,4.7889,4.9368,5.1817,5.4398,5.6713,5.6483,5.6729,0.0,0.0,0.0,0.0,0.0,0.0,0.0,0.0,0.0,0.0,4.8663,4.7278,4.5393,4.5778,4.6855,4.8548,4.7625,4.7048,4.6894,4.6009,4.5701,4.5893,4.7394,5.1241,5.6742,5.4395,5.6357,6.1204,5.8704,6.0012,6.4436,0.0,7.7861,8.1054,8.5324,8.744,8.8363,8.9671,9.1056,9.1941,9.0056,8.6671,8.3401,8.417,8.2131,0.0,7.4476,7.5861,7.7707,7.2937,7.2399,7.2976,7.2168,7.1283,7.1283,0.0,0.0,0.0,7.8977,7.8592,7.813,8.09,0.0,0.0,0.0,0.0,0.0,0.0,8.9479,0.0,0.0,0.0,0.0,0.0,0.0,9.4364,9.5172,9.448,9.421,9.4711,9.5749,9.5826,9.4788,9.5749,9.6288,9.6288,9.6288,9.6288,9.6288,9.6288,9.6288,9.6288,9.6288,9.6365,9.6519,9.6519,9.7403,9.8711,9.7865,9.8904,10.1019,10.0404,10.0596,10.1289,10.1289,10.1289,10.1289,4.5316,4.6855,4.8432,4.9296,5.1718,5.4117,5.5651,5.5899,5.678,0.0,0.0,0.0,0.0,0.0,0.0,0.0,0.0,0.0,5.5164,0.0,5.2702,5.3164,4.974,4.9971,5.4587,5.0279,4.7625,4.6894,4.6009,4.6009,4.6778,4.7702,4.9356,5.1779,5.6511,5.8665,5.9011,6.3012,6.8436,0.0,7.5515,7.5399,0.0,8.2477,8.5709,8.6786,8.994,9.1171,9.0979,0.0,8.7286,8.5824,0.0,8.2477,8.5401,7.5322,7.79,8.2631,7.6053,7.5476,7.5822,7.2014,7.2591,7.3091,6.9013,0.0,7.1283,7.2052,0.0,7.3014,7.3399,0.0,0.0,0.0,0.0,0.0,7.7284,8.2324,8.6209,0.0,0.0,0.0,0.0,0.0,0.0,9.5865,9.2633,9.1479,9.371,9.5403,9.5557,9.3903,9.5441,9.6288,9.6288,9.6288,9.6288,9.6288,9.6288,9.6288,9.6288,9.6288,9.6673,9.7365,9.7365,9.7904,9.8711,9.7865,9.8596,10.0212,10.0096,10.0596,10.1289,10.1289,10.1289,10.1289,4.5393,4.7817,4.9779,5.0087,5.2738,5.5198,5.628,5.8588,6.055,0.0,0.0,0.0,0.0,0.0,0.0,0.0,0.0,6.2127,0.0,0.0,5.5011,5.2395,5.101,5.1318,5.3472,5.0433,4.8702,4.8355,4.6509,4.6278,4.7625,4.8471,5.2125,5.8088,6.0089,6.3551,6.7821,6.7475,6.8975,0.0,0.0,0.0,0.0,8.3439,8.7594,8.8632,9.1095,9.1941,9.1864,0.0,8.8786,0.0,0.0,0.0,8.3555,7.99,8.0285,8.09,7.6015,7.6322,7.7092,7.336,7.3553,7.3745,7.0129,6.8975,6.9244,7.1245,0.0,0.0,0.0,0.0,0.0,0.0,7.4899,0.0,0.0,0.0,8.3785,0.0,0.0,0.0,0.0,0.0,0.0,0.0,0.0,9.1979,9.5057,9.5403,9.5211,9.448,9.5172,9.5788,9.6288,9.6288,9.6288,9.6288,9.6288,9.6288,9.6288,9.6288,9.648,9.6826,9.7288,9.7711,9.8057,9.8211,9.8673,9.9404,9.9904,10.0596,10.1289,10.1289,10.1289,10.1289,4.6009,4.8471,5.0317,5.0317,5.3126,5.5742,5.6819,5.9819,6.2281,0.0,0.0,0.0,6.6705,6.7321,0.0,0.0,6.8282,6.6628,0.0,0.0,5.9358,5.7049,5.4164,5.3587,5.5703,5.201,4.9856,4.9394,4.7317,4.7163,4.8817,4.9471,5.3741,6.0973,6.2704,6.7013,7.2899,7.1668,7.186,7.3053,7.4668,7.6169,7.8169,8.5286,8.894,9.0441,9.171,9.2133,9.2133,9.2018,8.9133,0.0,8.9787,0.0,8.3247,8.3516,8.2939,8.1362,7.7207,7.763,7.8169,7.386,7.3399,7.336,7.0783,6.9129,6.8859,7.1321,0.0,0.0,0.0,0.0,7.036,7.136,0.0,7.4361,7.1052,7.5745,8.0015,0.0,0.0,0.0,0.0,0.0,0.0,0.0,0.0,0.0,9.5749,9.6019,9.5711,9.5018,9.5441,9.5865,9.6288,9.6288,9.6288,9.6288,9.6288,9.6288,9.6288,9.6288,9.6288,9.6326,9.6903,9.7173,9.725,9.8096,9.8442,9.8557,9.9673,10.0481,10.1019,10.1212,10.1289,10.1289,4.7855,4.8779,4.9433,4.9433,5.2279,5.5088,5.6742,5.7819,5.9627,0.0,0.0,0.0,0.0,0.0,0.0,0.0,0.0,7.6245,7.2014,0.0,6.7782,7.2552,6.0973,5.7896,0.0,5.6511,5.1048,4.9394,4.8471,4.8894,5.0625,5.0625,5.2125,5.5126,6.3281,6.7552,6.9013,7.5438,8.0554,8.4286,8.3555,8.617,9.0287,0.0,8.8248,9.1171,9.121,0.0,0.0,8.8402,8.7478,0.0,0.0,0.0,0.0,0.0,0.0,0.0,0.0,0.0,0.0,7.2668,0.0,0.0,0.0,0.0,7.0821,7.0937,7.2206,7.286,7.1245,7.0898,7.0629,6.9898,7.0514,0.0,0.0,7.136,7.2552,7.2591,0.0,0.0,0.0,0.0,0.0,0.0,0.0,0.0,9.4749,9.7326,9.7557,9.5057,9.6557,9.7057,9.6326,9.6288,9.6288,9.6288,9.6288,9.6288,9.6288,9.6288,9.6288,9.6288,9.6326,9.6326,9.6403,9.7211,9.7557,9.7711,9.9442,10.0096,10.0212,10.1019,10.1289,10.1289,4.9779,5.1433,5.2049,4.9779,5.2241,5.5434,5.8242,6.0358,0.0,0.0,0.0,0.0,0.0,7.3822,7.513,0.0,0.0,7.6361,7.3245,7.0629,0.0,0.0,0.0,6.155,0.0,5.8319,5.4164,5.1895,5.051,5.0702,5.2356,5.2356,5.4318,5.8088,6.432,6.9783,7.4514,7.7938,8.117,0.0,0.0,8.6324,9.0287,0.0,0.0,9.121,9.121,9.121,0.0,9.021,8.8786,8.7555,8.8363,8.7094,8.544,8.594,8.5747,0.0,0.0,0.0,8.3632,7.6823,0.0,0.0,0.0,0.0,0.0,7.1129,7.2706,7.3591,7.1321,7.0475,7.0206,7.0437,7.0283,6.9821,0.0,6.9321,7.0321,7.2014,7.6976,8.0246,0.0,0.0,0.0,0.0,0.0,0.0,0.0,9.6134,9.6403,9.6634,9.6134,9.6249,9.7096,9.6557,9.6288,9.6288,9.6288,9.6288,9.6288,9.6288,9.6288,9.6326,9.6865,9.6788,9.6442,9.8404,9.8211,9.698,9.9788,10.0212,9.9404,10.0789,10.1289,10.1289,5.2549,5.378,5.4126,5.1664,5.401,5.7126,0.0,0.0,0.0,0.0,6.9975,0.0,7.4553,0.0,7.6053,0.0,7.8477,7.7707,7.5438,7.3399,0.0,7.2822,6.8167,0.0,0.0,0.0,5.8896,5.6357,5.4395,5.3972,5.5011,5.4703,5.6319,5.9704,6.4512,7.0283,7.6553,7.9477,8.2862,0.0,0.0,8.8402,0.0,0.0,9.171,9.1287,0.0,9.1902,9.1672,9.1672,9.0364,8.9056,9.0671,8.894,8.6632,8.8286,8.7594,8.6094,8.5209,8.6132,0.0,8.0131,7.9477,0.0,7.3476,0.0,7.4437,0.0,7.3553,7.4322,7.4514,7.2129,7.0591,7.2014,7.0821,6.9398,0.0,6.8898,6.9783,7.1129,7.4745,7.763,7.8938,0.0,0.0,0.0,0.0,0.0,0.0,0.0,9.6365,9.748,9.6749,9.6711,9.748,9.698,9.6596,9.6288,9.6288,9.6288,9.6288,9.6288,9.6288,9.6326,9.6865,9.6942,9.6865,9.8827,9.8673,9.7442,10.0212,10.0481,9.9442,10.0789,10.1289,10.1289,5.6049,5.5972,5.578,5.5049,5.7396,0.0,0.0,0.0,6.8013,0.0,7.2591,7.4668,7.7207,7.8207,7.9054,7.99,8.0746,8.0516,7.8861,7.6399,0.0,0.0,7.3245,7.1668,7.4899,0.0,0.0,6.2397,5.9742,5.8434,5.8396,5.7588,5.805,5.9742,6.4012,6.9206,7.5168,8.0131,8.5747,9.1325,9.2172,9.2479,9.2595,9.3441,0.0,9.1518,9.3133,9.321,9.2556,9.2556,9.2018,9.1325,9.1325,9.1287,9.1248,9.1248,9.1248,9.0671,8.8248,8.7594,8.6594,8.2439,0.0,0.0,0.0,0.0,7.7438,0.0,0.0,7.5515,8.0054,7.5553,7.1898,7.4091,7.1745,6.936,6.859,6.9821,7.0552,6.9975,7.136,7.4822,8.1016,7.5553,0.0,0.0,0.0,8.6824,0.0,0.0,9.7326,9.748,9.8288,9.8365,9.7557,9.7519,9.7134,9.6365,9.6326,9.6288,9.6288,9.6288,9.6288,9.6288,9.6288,9.6749,9.7557,9.8442,9.8788,9.8981,10.0596,10.0789,10.0289,10.1019,10.1289,10.1289,5.8704,5.955,6.0589,0.0,5.9165,5.8973,0.0,0.0,0.0,0.0,7.4861,7.7284,7.9862,8.0823,8.167,8.2554,8.2824,0.0,0.0,0.0,0.0,8.317,7.8746,7.6938,7.8477,7.2091,0.0,6.6782,6.232,6.0165,6.0165,5.9935,6.005,6.0627,6.4282,6.9898,7.6823,8.0054,8.5555,9.2172,9.2402,9.2479,0.0,0.0,9.398,9.3095,9.3557,9.3557,9.3403,9.3403,9.3249,9.3056,9.3056,9.2633,9.2172,9.2172,9.171,9.1056,9.0402,9.021,8.9517,8.6517,8.5286,8.4016,0.0,0.0,0.0,0.0,0.0,0.0,0.0,0.0,0.0,7.1398,6.9706,6.8898,6.9321,0.0,0.0,7.2245,0.0,0.0,0.0,7.763,8.2324,0.0,0.0,0.0,9.698,0.0,0.0,9.7403,9.7711,9.8057,9.8442,9.7827,9.7403,9.7173,9.6596,9.6288,9.6288,9.6288,9.6288,9.6288,9.6288,9.6749,9.7557,9.8442,9.8788,9.8981,10.0596,10.1212,10.1019,10.1212,10.1289,10.1289,6.1204,6.3166,6.5128,6.5936,0.0,0.0,6.7436,0.0,0.0,7.463,7.7053,0.0,8.04,8.1939,8.3054,8.3555,8.3593,0.0,8.2554,0.0,0.0,8.3208,8.1631,8.0939,8.1439,7.7015,0.0,7.0629,0.0,6.3897,6.1358,6.1743,6.1704,6.1512,6.4897,6.986,7.6015,8.19,8.7094,9.1479,9.2979,0.0,0.0,9.5057,9.5249,9.4826,9.4826,9.4595,9.4249,9.4249,9.4018,9.371,9.371,9.3403,9.3018,9.3018,9.2672,9.2287,9.2287,9.2287,9.1941,9.0517,8.9787,8.8671,8.5747,8.6209,8.6824,0.0,0.0,0.0,0.0,0.0,0.0,6.9937,6.8744,6.8436,0.0,0.0,0.0,0.0,7.3322,0.0,0.0,7.763,8.2978,8.2362,8.6632,0.0,0.0,0.0,0.0,9.7403,9.7519,9.7904,9.8788,9.7942,9.7519,9.748,9.6673,9.6288,9.6288,9.6288,9.6288,9.6288,9.6288,9.698,9.8096,9.8596,9.9211,9.9981,10.0904,10.1289,10.1289,10.1289,10.1289,10.1289,6.3512,6.6397,6.8975,0.0,0.0,0.0,0.0,7.3899,0.0,7.763,0.0,8.0785,8.0785,8.2862,8.4247,8.4247,0.0,8.3632,8.2208,8.3439,8.3632,8.217,8.3478,8.4247,8.4247,8.2401,7.9054,0.0,0.0,6.8052,6.2281,6.3205,6.3166,6.2397,6.5897,7.0206,7.5438,8.4632,8.9325,9.0825,9.3787,9.5057,9.5249,9.6019,9.6288,9.6288,9.6172,9.5711,9.5172,9.5172,9.4672,9.4057,9.4057,9.3941,9.3864,9.3864,9.3787,9.371,9.371,9.371,9.371,9.371,9.371,9.2941,9.0017,8.944,8.9517,8.9517,8.7171,8.6748,0.0,0.0,0.0,7.0321,0.0,0.0,0.0,0.0,0.0,0.0,0.0,0.0,0.0,7.6476,8.1054,8.1747,8.2785,0.0,0.0,0.0,9.3518,9.725,9.7557,0.0,9.8481,0.0,9.7673,9.7326,9.6749,9.6403,9.6288,9.6288,9.6288,9.6288,9.6288,9.725,9.8788,9.8788,9.9788,10.1289,10.1289,10.1289,10.1289,10.1289,10.1289,10.1289,6.5436,6.8167,7.0514,7.0667,0.0,7.7169,8.0092,7.8861,7.8554,8.1093,8.4132,8.6055,8.6055,8.7094,8.7786,8.7786,8.7786,0.0,0.0,0.0,0.0,8.7363,8.7632,8.7786,8.7786,8.4747,8.1323,0.0,0.0,6.8936,6.3128,6.4705,6.4589,6.3281,6.7398,7.3937,8.2093,8.5978,0.0,9.4172,9.4749,9.5441,9.6095,9.6249,9.6288,9.6211,9.548,9.5595,9.6057,9.6057,9.598,9.5826,9.5826,9.5365,9.4749,9.4749,9.4249,9.371,9.371,9.371,9.371,9.371,9.371,9.3557,9.2941,9.3364,9.3903,9.3903,9.3403,9.2479,9.0864,0.0,0.0,0.0,0.0,0.0,0.0,0.0,0.0,0.0,0.0,0.0,0.0,0.0,7.9015,7.9169,8.1246,0.0,0.0,0.0,9.0825,0.0,9.7865,0.0,0.0,0.0,0.0,9.6519,9.7057,9.6942,9.6288,9.6288,9.6288,9.6288,9.6288,9.725,9.8788,9.8788,9.9788,10.1289,10.1289,10.1289,10.1289,10.1289,10.1289,10.1289,7.0398,7.2476,7.463,7.5976,0.0,0.0,0.0,8.4362,0.0,8.3708,8.5093,8.6094,8.6094,8.7671,8.8709,8.8709,8.8709,8.8709,8.8709,8.8709,8.8709,8.8709,8.8709,0.0,8.8709,8.7094,8.3708,7.8477,0.0,7.1129,6.4012,6.5282,6.5205,6.4282,7.0744,7.663,8.1977,0.0,0.0,9.3826,9.5134,9.6172,9.6903,9.6903,9.7211,9.748,9.6596,9.6288,9.6249,9.5788,9.5634,9.5711,9.6172,9.5711,9.5095,9.5518,9.5057,9.448,9.4941,9.5057,9.5057,9.5057,9.5057,9.5057,9.5057,9.5365,9.5672,9.5672,9.5672,9.448,9.0633,8.6094,0.0,0.0,0.0,0.0,0.0,0.0,8.0246,0.0,0.0,0.0,0.0,0.0,7.9285,7.7977,8.0246,8.4632,0.0,0.0,9.0133,0.0,0.0,0.0,0.0,0.0,0.0,9.7596,9.7096,9.6673,9.6288,9.6288,9.6288,9.6288,9.6288,9.698,9.8211,9.9096,10.0212,10.1289,10.1289,10.1289,10.1289,10.1289,10.1289,10.1289,7.5322,7.6899,7.8784,8.0977,8.3054,0.0,8.617,8.8556,8.9171,8.6324,8.6132,8.6247,8.6247,8.8017,8.921,8.921,8.921,8.921,8.921,8.921,8.921,8.921,8.921,8.921,8.921,8.9066,8.5992,0.0,0.0,0.0,6.5936,6.6628,6.7167,6.7859,0.0,0.0,0.0,0.0,9.1941,9.3749,9.5749,9.7057,9.775,9.7557,9.7942,9.8404,9.7557,9.6596,9.5672,9.5172,9.4864,9.4903,9.598,9.5557,9.4864,9.5557,9.5403,9.5134,9.5826,9.6172,9.6288,9.6288,9.6288,9.6288,9.6288,9.6288,9.6288,9.6288,9.6288,9.498,9.071,8.794,0.0,0.0,0.0,0.0,0.0,0.0,0.0,0.0,0.0,0.0,0.0,0.0,0.0,7.9169,8.0516,8.3939,8.9787,0.0,0.0,0.0,0.0,9.7134,9.7442,0.0,9.8288,0.0,9.7288,9.6634,9.6288,9.6288,9.6288,9.6288,9.6288,9.6865,9.7904,9.9442,10.0596,10.1289,10.1289,10.1289,10.1289,10.1289,10.1289,10.1289,7.7823,7.9554,0.0,0.0,0.0,0.0,0.0,8.944,9.0671,8.9594,9.0133,9.0633,9.0633,9.0825,9.0979,9.0979,9.0979,9.0979,9.0979,9.0979,9.0979,9.0979,9.0979,9.0979,9.0979,9.0298,8.8077,0.0,0.0,7.6526,0.0,7.0398,7.286,0.0,0.0,0.0,0.0,9.0056,9.2749,9.7057,9.7288,9.7904,9.8596,9.7788,9.7557,9.7519,9.6711,9.5365,9.4057,9.4749,9.448,9.4095,9.5788,9.5172,9.3826,9.3903,9.4441,9.5018,9.5095,9.5711,9.6288,9.6288,9.6288,9.6288,9.6288,9.6288,9.6288,9.6288,9.6288,9.498,9.071,9.2749,9.2556,0.0,0.0,0.0,0.0,0.0,8.5901,8.894,0.0,0.0,0.0,0.0,0.0,0.0,8.3362,8.3478,0.0,0.0,0.0,9.2787,9.4403,9.4518,9.3095,9.8327,0.0,9.6557,9.7904,9.7788,9.6288,9.6288,9.6288,9.6288,9.6288,9.7211,9.875,9.9712,10.0596,10.1289,10.1289,10.1289,10.1289,10.1289,10.1289,10.1289,0.0,0.0,0.0,0.0,0.0,0.0,0.0,8.9877,9.0413,9.0069,9.0722,9.121,9.121,9.08,9.0528,9.0528,9.0198,8.9939,8.9939,8.9939,8.9939,8.9939,8.9939,8.9939,8.9939,9.0073,8.8409,0.0,0.0,0.0,0.0,0.0,0.0,0.0,0.0,8.7248,9.0594,9.2787,9.4941,9.6826,9.7326,9.7711,9.8057,9.8211,9.8288,9.8173,9.7326,9.5942,9.4595,9.548,9.4864,9.3903,9.5134,9.4672,9.3787,9.4326,9.4364,9.4326,9.4864,9.5634,9.6288,9.6288,9.6288,9.6288,9.6288,9.6288,9.6288,9.6288,9.6288,9.5788,9.4057,9.3056,9.2364,0.0,0.0,0.0,0.0,0.0,0.0,9.3518,0.0,9.0902,0.0,0.0,0.0,0.0,7.94,7.9361,0.0,0.0,0.0,9.0133,0.0,9.6211,9.4018,9.7865,9.9135,9.7788,9.7442,9.6942,9.6288,9.6288,9.6288,9.6288,9.6288,9.725,9.8827,9.9173,10.0096,10.1289,10.1289,10.1289,10.1289,10.1289,10.1289,10.1289,8.5431,0.0,8.6164,0.0,8.803,8.7877,9.0149,9.0281,9.0266,9.0494,9.0966,9.1257,9.1261,9.0788,9.0486,9.0532,9.0096,8.9838,8.9838,8.9838,8.9838,8.9838,8.9838,0.0,8.9838,9.0096,8.9156,8.6989,8.4733,0.0,0.0,0.0,0.0,0.0,8.8563,9.0864,9.1979,9.5018,9.6442,9.6711,9.7288,9.7634,9.7904,9.8288,9.8404,9.8327,9.7711,9.6403,9.5134,9.6019,9.5326,9.4134,9.448,9.3864,9.3095,9.371,9.3633,9.3518,9.4364,9.5249,9.598,9.6249,9.6288,9.6288,9.6288,9.6288,9.6288,9.6288,9.6288,9.6288,9.6288,9.3826,9.2556,9.4903,0.0,0.0,0.0,9.4672,0.0,9.4749,9.3557,0.0,0.0,0.0,0.0,0.0,7.9554,0.0,0.0,0.0,0.0,0.0,0.0,0.0,0.0,9.7904,9.9058,9.8788,9.7326,9.6519,9.6288,9.6288,9.6288,9.6326,9.6557,9.748,9.8827,9.9058,9.9981,10.1289,10.1289,10.1289,10.1289,10.1289,10.1289,10.1289,8.6282,8.6543,8.7322,8.9686,8.9535,8.9604,9.1126,9.0775,9.0593,9.1369,9.1483,9.1444,9.14,9.1369,9.1406,9.1461,9.1483,9.1483,9.1483,9.1483,9.1483,0.0,0.0,9.1483,9.1483,9.0819,9.0782,9.1407,0.0,0.0,8.5046,8.3247,8.5152,9.004,9.0838,9.3056,9.6249,9.6288,9.6749,9.748,9.7519,9.8019,9.8673,9.7827,9.7519,9.7519,9.7519,9.6403,9.5134,9.6019,9.5711,9.4826,9.398,9.2556,9.1248,9.1248,9.1864,9.2672,9.348,9.4326,9.5211,9.6095,9.6288,9.6288,9.6288,9.6288,9.6288,9.6288,9.6288,9.6288,9.6288,9.6249,9.4864,9.0671,0.0,0.0,0.0,9.1479,0.0,9.1364,8.5363,0.0,9.0556,0.0,0.0,0.0,0.0,0.0,0.0,0.0,0.0,9.3518,9.4557,0.0,9.6288,9.8788,9.9635,9.8788,9.7904,9.7057,9.6288,9.6288,9.6288,9.6326,9.7134,9.798,9.8865,9.9712,10.0596,10.1289,10.1289,10.1289,10.1289,10.1289,10.1289,10.1289,8.819,8.8822,8.9551,9.0852,9.0493,9.0205,9.0699,9.0563,9.0558,9.076,9.1226,9.1525,9.1582,9.1132,9.0792,0.0,9.034,9.0053,0.0,9.0053,9.0053,9.0053,9.0053,9.0053,9.0053,9.0377,9.059,9.0797,0.0,0.0,0.0,8.8226,9.0058,9.4369,9.5137,9.6095,9.7173,9.775,9.8134,9.8404,9.8404,9.8211,9.7865,9.7596,9.7173,9.6673,9.6673,9.5942,9.5018,9.5326,9.4826,9.4057,9.3787,9.3749,9.3787,9.3787,9.3557,9.3364,9.3633,9.3903,9.4172,9.4441,9.4518,9.4518,9.4518,9.498,9.5403,9.5403,9.5903,9.6288,9.6288,9.6288,9.6019,9.5211,9.5249,0.0,9.5095,0.0,9.4326,9.4634,9.3249,0.0,0.0,9.071,0.0,0.0,0.0,0.0,0.0,0.0,0.0,0.0,9.5903,0.0,9.6326,9.825,9.9058,9.8788,9.7365,9.6557,9.6288,9.6288,9.6288,9.6326,9.7134,9.798,9.8865,9.975,10.0596,10.1289,10.1289,10.1289,10.1289,10.1289,10.1289,10.1289,8.9247,8.9684,9.0221,9.1,9.059,9.0295,9.0812,9.0731,9.0646,9.0943,9.1359,9.1634,9.175,9.1313,0.0,9.098,9.0615,9.0298,9.0298,9.0298,9.0298,9.0298,9.0298,9.0298,9.0298,0.0,0.0,9.098,9.0685,9.1055,9.1974,9.2024,9.3535,9.6363,9.7174,9.7519,9.7519,9.775,9.7865,9.7827,9.748,9.725,9.7057,9.7057,9.6749,9.6288,9.6288,9.5942,9.548,9.548,9.5134,9.4672,9.4672,9.5057,9.5365,9.4711,9.4134,9.3749,9.4095,9.4172,9.4249,9.4595,9.4441,9.4095,9.3749,9.4364,9.498,9.498,9.5672,9.6288,9.6288,9.6288,9.648,9.698,9.6172,9.5865,9.6903,0.0,9.5211,0.0,0.0,0.0,0.0,9.3056,0.0,0.0,0.0,0.0,0.0,0.0,0.0,9.3172,9.7711,0.0,9.775,9.8442,9.8634,9.8288,9.6942,9.6288,9.6288,9.6288,9.648,9.6788,9.7634,9.8481,9.9327,10.0212,10.0789,10.1289,10.1289,10.1289,10.1289,10.1289,10.1289,10.1289,8.9491,8.9491,0.0,0.0,9.0046,0.0,9.1502,9.1154,9.0959,9.1693,9.1803,9.1803,9.1803,9.1803,9.1803,9.1803,0.0,0.0,0.0,9.1803,9.1803,9.1803,9.1803,0.0,9.1803,9.1803,9.1803,9.1803,9.2529,9.2923,9.3125,9.4462,9.5553,9.6532,9.7245,9.7596,9.7557,9.6865,9.6519,9.6403,9.5518,9.5711,9.648,9.6326,9.6326,9.6365,9.6326,9.6288,9.6288,9.6288,9.6288,9.6288,9.6288,9.6288,9.598,9.4364,9.3826,9.398,9.4788,9.4941,9.5095,9.5903,9.5518,9.4711,9.3864,9.4326,9.4903,9.4903,9.5557,9.6134,9.6211,9.6211,9.6249,9.6288,9.6288,9.6288,9.6288,9.6288,9.5134,0.0,0.0,0.0,0.0,9.2287,9.3633,0.0,0.0,0.0,0.0,0.0,9.1287,9.8673,9.9673,10.0096,10.0096,9.9173,9.825,9.7403,9.6673,9.6288,9.6288,9.6288,9.6749,9.7557,9.8404,9.9288,10.0173,10.1019,10.1289,10.1289,10.1289,10.1289,10.1289,10.1289,10.1289,10.1289,0.0,0.0,9.0554,9.1355,9.136,9.1362,9.1723,9.1617,9.1583,9.1767,9.1803,9.1803,9.1803,9.1803,9.1803,9.1803,9.1803,9.1803,9.1803,9.1803,9.1803,9.1803,9.1803,9.1803,9.1803,9.1803,9.1803,9.1803,9.1358,9.2104,9.3919,9.3625,9.4857,9.7362,9.8189,9.8538,9.8519,9.8981,9.8827,9.8134,9.725,9.7442,9.8057,9.6788,9.6673,9.7134,9.6519,9.6288,9.6288,9.6288,9.6288,9.6288,9.6288,9.6288,9.6211,9.5826,9.5211,9.4749,9.4941,9.4518,9.4057,9.4249,9.4172,9.3941,9.3749,9.3864,9.4018,9.4018,9.4172,9.4518,9.5172,9.5288,9.5518,9.6211,9.6288,9.6288,9.6288,9.6288,9.6019,0.0,9.5095,9.5095,9.5095,9.5288,9.4557,0.0,0.0,0.0,0.0,9.3364,9.5211,9.9635,9.9981,10.0096,10.0096,9.8596,9.7403,9.6596,9.6403,9.6288,9.6288,9.6288,9.6749,9.7557,9.8404,9.9288,10.0173,10.1019,10.1289,10.1289,10.1289,10.1289,10.1289,10.1289,10.1289,10.1289,9.1069,9.1143,9.1289,9.173,9.1803,9.1803,9.1803,9.1803,9.1803,9.1803,9.2134,9.2391,9.2391,9.2721,9.2941,9.2941,9.2244,9.1803,9.1803,9.217,9.2207,9.1803,9.2537,9.2758,9.2391,9.2758,9.2941,9.2941,9.2823,9.3657,9.5269,9.5138,9.6399,9.8763,9.9223,9.9431,9.9365,9.9058,9.8865,9.8673,9.7442,9.7673,9.8673,9.7365,9.7134,9.7403,9.6596,9.6288,9.6288,9.6288,9.6288,9.6288,9.6288,9.6288,9.6288,9.6288,9.5942,9.5595,9.5595,9.5249,9.4788,9.4403,9.4287,9.4172,9.3787,9.4018,9.4287,9.4287,9.4287,9.4441,9.4903,9.498,9.5134,9.5634,9.6057,9.6288,9.6288,9.6288,0.0,9.6288,9.6288,9.6288,9.6288,9.6288,9.5672,9.421,0.0,0.0,9.5942,9.6826,9.8173,9.9981,10.0096,9.9904,9.9519,9.7827,9.6749,9.6288,9.6288,9.6288,9.6288,9.6288,9.698,9.8134,9.8596,9.9481,10.0712,10.1096,10.1289,10.1289,10.1289,10.1289,10.1289,10.1289,10.1289,10.1289,9.1803,9.1803,9.1803,9.1803,9.1803,9.1803,9.1803,9.1913,9.1987,9.1987,9.2758,9.3272,9.3272,9.3896,9.4299,9.4299,9.2978,9.217,9.217,9.2868,9.2941,9.2207,9.3418,9.3859,9.3308,9.3932,9.4299,9.4299,9.48,9.5464,9.6358,9.6869,9.8067,9.9769,9.9853,9.9936,9.9825,9.8481,9.8173,9.848,9.7097,9.7365,9.8552,9.7669,9.7517,9.7596,9.6674,9.6482,9.6634,9.6403,9.6365,9.648,9.6326,9.6288,9.6288,9.6288,9.6288,9.6288,9.6288,9.6288,9.6134,9.5365,9.5211,9.498,9.4249,9.4557,9.498,9.498,9.4903,9.4826,9.498,9.498,9.4903,9.4634,9.5557,9.6172,9.5788,0.0,9.6288,9.6288,9.6288,9.6288,9.6288,9.6403,9.6749,9.7442,9.775,0.0,0.0,10.0212,10.0289,10.0289,10.0173,9.9596,9.8596,9.7057,9.6288,9.6288,9.6288,9.6288,9.6288,9.6288,9.7211,9.8788,9.8788,9.975,10.1289,10.1289,10.1289,10.1289,10.1289,10.1289,10.1289,10.1289,10.1289,10.1289,9.1803,9.1803,9.1803,9.1803,9.1803,9.1803,9.1803,9.2427,9.2905,9.2905,9.3602,9.4116,9.4116,9.4226,9.4299,9.4299,9.4042,9.3896,9.3896,9.4042,9.4042,9.3896,9.3492,9.3565,9.4079,9.4226,9.4299,9.4299,9.3713,9.4227,9.5626,9.5069,9.5997,9.8217,9.8876,9.9098,9.9114,9.9514,9.8933,9.7769,9.7494,9.7589,9.7794,9.6945,9.7515,9.8495,9.6967,9.7235,9.8211,9.6788,9.6749,9.7211,9.6519,9.6288,9.6288,9.6288,9.6288,9.6288,9.6288,9.6288,9.6288,9.6134,9.6095,9.6057,9.5942,9.5441,9.498,9.498,9.4403,9.4134,9.4864,9.498,9.4518,9.3133,9.4826,9.5557,9.3403,0.0,9.6288,9.6288,9.6288,9.6288,9.6288,9.6903,9.7365,9.748,9.8865,9.9788,10.0096,10.0712,10.1096,10.1096,10.0481,9.9327,9.7711,9.6788,9.6288,9.6288,9.6288,9.6288,9.6288,9.6288,9.7211,9.8788,9.8788,9.975,10.1289,10.1289,10.1289,10.1289,10.1289,10.1289,10.1289,10.1289,10.1289,10.1289,9.1803,9.1803,9.1803,9.1803,9.1803,9.195,9.2427,9.2831,9.3272,9.3675,9.4446,9.496,9.496,9.5327,9.5584,9.5584,9.5584,9.5584,9.5584,9.518,9.474,9.4299,9.4777,9.5217,9.5584,9.5584,9.5584,9.5584,9.5217,9.5663,9.6762,9.6391,9.6988,9.8467,9.9291,9.9619,9.9574,9.9517,9.9319,9.8916,9.8034,9.7966,9.8328,9.7441,9.7901,9.8773,9.7468,9.7495,9.8057,9.775,9.7288,9.6865,9.6942,9.6634,9.6288,9.6288,9.6288,9.6288,9.6288,9.6288,9.6288,9.6288,9.6288,9.6288,9.6288,9.598,9.5711,9.5711,9.5018,9.4518,9.4903,9.498,9.4903,9.4595,9.5903,0.0,0.0,9.6903,9.7634,9.7634,9.7634,9.7634,9.7634,9.798,9.8404,9.8865,9.9635,10.0289,10.0712,10.1096,10.1289,10.1289,10.0096,9.9019,9.8211,9.6942,9.6519,9.6942,9.6519,9.6519,9.6942,9.6942,9.7865,9.9481,9.9481,10.0212,10.1289,10.1289,10.1289,10.1289,10.1289,10.1289,10.1289,10.1289,10.1289,10.1289,9.1803,9.1803,9.184,9.206,9.2097,9.2391,9.3235,9.3529,9.3896,9.4483,9.529,9.5804,9.5804,9.6318,9.6685,9.6685,9.6685,9.6685,9.6685,9.6135,9.5511,9.4887,9.6025,9.6612,9.6428,9.6612,9.6685,9.6685,9.6685,9.699,9.7525,9.7525,9.7897,9.8467,9.9291,9.9653,9.9615,9.9125,9.9188,9.9524,9.8233,9.7989,9.8392,9.7692,9.7969,9.8552,9.7908,9.7807,9.821,9.8635,9.8096,9.725,9.7673,9.725,9.6596,9.6596,9.6442,9.6288,9.6288,9.6288,9.6288,9.6288,9.6288,9.6288,9.6288,9.6288,9.6288,9.6288,9.5788,9.5288,9.5288,9.5288,9.5326,9.5403,0.0,0.0,0.0,9.8134,9.8557,9.8788,9.8788,9.8788,9.8788,9.8981,9.9365,9.9981,10.0289,10.0596,10.1289,10.1289,10.1289,10.1289,9.9865,9.8981,9.8788,9.7519,9.7096,9.7519,9.7096,9.7211,9.7788,9.7788,9.8634,10.0096,10.0096,10.0596,10.1289,10.1289,10.1289,10.1289,10.1289,10.1289,10.1289,10.1289,10.1289,10.1289,9.1803,9.1803,9.206,9.2868,9.3015,9.3272,9.4079,9.485,9.5364,9.5401,9.6098,9.6612,9.6612,9.6649,9.6685,9.6685,9.6685,9.6685,9.6685,9.6649,9.6575,9.6539,9.6649,9.6355,9.5621,9.6318,9.6685,9.6685,9.6685,9.6685,9.6762,9.6762,9.6801,9.6952,9.7663,9.7993,9.8058,9.8697,9.8576,9.7993,9.7852,9.7418,9.6877,9.6803,9.7206,9.7834,9.7718,9.869,9.9869,9.9093,9.925,9.9673,9.8942,9.8096,9.7403,9.7403,9.6865,9.6288,9.6288,9.6288,9.6288,9.6288,9.6288,9.6288,9.6288,9.6288,9.6288,9.6288,9.6249,9.6211,9.6211,9.6211,9.5441,9.3133,0.0,0.0,9.4287,9.6095,9.7904,9.8711,9.8788,9.8788,9.8788,9.9519,9.9981,10.0096,10.0789,10.1212,10.1289,10.1289,10.1289,10.1289,10.0481,9.9596,9.8788,9.8673,9.825,9.7519,9.825,9.8634,9.8711,9.8711,9.9211,10.0096,10.0096,10.0596,10.1289,10.1289,10.1289,10.1289,10.1289,10.1289,10.1289,10.1289,10.1289,10.1289,9.3345,9.3345,9.3455,9.3786,9.3822,9.4116,9.4923,9.5327,9.5694,9.6171,9.6502,9.6685,9.6685,9.6685,9.6685,9.6685,9.6685,9.6685,9.6685,9.6685,9.6685,9.6685,9.6685,9.6575,9.6245,9.6539,9.6685,9.6685,9.6685,9.6685,9.6685,9.6685,9.6685,9.6762,9.7492,9.783,9.783,9.8124,9.8058,9.7763,9.7317,9.6915,9.6685,9.6685,9.7137,9.7823,9.8336,9.8849,9.9479,10.009,9.9865,9.9327,9.9519,9.9019,9.8288,9.8288,9.7711,9.7057,9.7057,9.6673,9.6288,9.6288,9.6288,9.6288,9.6288,9.6288,9.6288,9.6288,9.6288,9.6288,9.6288,9.6288,9.6134,9.5672,0.0,9.7019,9.6865,9.8173,9.925,9.9558,9.9981,10.0404,10.0404,10.0596,10.0789,10.0789,10.1096,10.1289,10.1289,10.1289,10.1289,10.1289,10.1019,10.0712,10.0404,9.9327,9.8904,9.9096,9.8904,9.9058,9.9596,9.9596,10.0096,10.0789,10.0789,10.1019,10.1289,10.1289,10.1289,10.1289,10.1289,10.1289,10.1289,10.1289,10.1289,10.1289,9.4298,9.4261,9.441,9.463,9.4666,9.496,9.5768,9.5878,9.6061,9.6649,9.6685,9.6685,9.6685,9.6685,9.6685,9.6685,9.6685,9.6685,9.6685,9.6685,9.6685,9.6685,9.6685,9.6685,9.6685,9.6685,9.6685,9.6685,9.6685,9.6685,9.6685,9.6685,9.6685,9.6685,9.721,9.7492,9.7492,9.7492,9.7492,9.7422,9.6915,9.6685,9.6685,9.6685,9.7027,9.7525,9.8342,9.8744,9.915,10.0486,10.0284,9.9673,10.0289,9.9904,9.9135,9.8865,9.8365,9.7865,9.7557,9.7096,9.6634,9.6365,9.6288,9.6288,9.6288,9.6288,9.6288,9.6288,9.6288,9.6288,9.6288,9.6288,9.648,9.7019,9.7134,9.7403,9.825,9.9135,9.9788,10.0096,10.0789,10.1289,10.1289,10.1289,10.1289,10.1289,10.1289,10.1289,10.1289,10.1289,10.1289,10.1289,10.1289,10.1289,10.1289,10.0212,9.975,10.0096,9.975,9.9904,10.0481,10.0481,10.0789,10.1289,10.1289,10.1289,10.1289,10.1289,10.1289,10.1289,10.1289,10.1289,10.1289,10.1289,10.1289,10.1289,9.4289,9.4332,9.4554,9.5401,9.5511,9.5804,9.6575,9.6685,9.6685,9.6685,9.6685,9.6685,9.6685,9.6685,9.6685,9.6685,9.6685,9.6685,9.6685,9.6685,9.6685,9.6685,9.6685,9.6685,9.6685,9.6685,9.6685,9.6685,9.6685,9.6685,9.6685,9.6685,9.6685,9.6685,9.6685,9.6685,9.6685,9.6685,9.6685,9.6685,9.6685,9.6685,9.6685,9.6685,9.6685,9.6838,9.7525,9.8279,9.9122,9.9949,10.0716,10.1327,10.1289,10.0789,9.9942,9.9058,9.8827,9.8634,9.775,9.7519,9.7326,9.6519,9.6288,9.6288,9.6288,9.6288,9.6288,9.6288,9.6288,9.6288,9.6288,9.6288,9.6288,9.6288,9.6288,9.6596,9.7365,9.825,9.9096,9.9981,10.0789,10.1289,10.1289,10.1289,10.1289,10.1289,10.1289,10.1289,10.1289,10.1289,10.1289,10.1289,10.1289,10.1289,10.1289,10.1289,10.0904,10.0096,10.0904,10.1289,10.1289,10.1289,10.1289,10.1289,10.1289,10.1289,10.1289,10.1289,10.1289,10.1289,10.1289,10.1289,10.1289,10.1289,10.1289,10.1289,9.5985,9.5948,9.6098,9.6318,9.6355,9.6428,9.6649,9.6685,9.6685,9.6685,9.6685,9.6685,9.6685,9.6685,9.6685,9.6685,9.6685,9.6685,9.6685,9.6685,9.6685,9.6685,9.6685,9.6685,9.6685,9.6685,9.6685,9.6685,9.6685,9.6685,9.6685,9.6685,9.6685,9.6685,9.6685,9.6685,9.6685,9.6685,9.6685,9.6685,9.6685,9.6685,9.6685,9.6685,9.6685,9.6838,9.7525,9.7927,9.8342,9.9706,10.0328,10.0633,10.1093,10.1096,10.0904,10.0596,10.0212,9.9635,9.9404,9.8865,9.8057,9.6634,9.6288,9.6288,9.6288,9.6288,9.6288,9.6288,9.6288,9.6288,9.6288,9.6288,9.6288,9.6288,9.6288,9.6365,9.6634,9.7904,9.8673,9.8327,10.0096,10.1096,10.0481,10.1019,10.1289,10.1289,10.1289,10.1289,10.1289,10.1289,10.1289,10.1289,10.1289,10.1289,10.1289,10.1289,10.1212,10.0904,10.1212,10.1289,10.1289,10.1289,10.1289,10.1289,10.1289,10.1289,10.1289,10.1289,10.1289,10.1289,10.1289,10.1289,10.1289,10.1289,10.1289,10.1289,9.6685,9.6685,9.6685,9.6685,9.6685,9.6685,9.6685,9.6685,9.6685,9.6685,9.6685,9.6685,9.6685,9.6685,9.6685,9.6685,9.6685,9.6685,9.6685,9.6685,9.6685,9.6685,9.6685,9.6685,9.6685,9.6685,9.6685,9.6685,9.6685,9.6685,9.6685,9.6685,9.6685,9.6685,9.6685,9.6685,9.6685,9.6685,9.6685,9.6685,9.6685,9.6685,9.6685,9.6685,9.6685,9.6762,9.721,9.7525,9.7993,9.9291,10.0098,10.0678,10.117,10.1289,10.1289,10.1289,10.0981,10.0481,10.0173,9.9712,9.8981,9.7634,9.7019,9.6711,9.6365,9.6288,9.6288,9.6288,9.6288,9.6288,9.6288,9.6288,9.6288,9.6288,9.6288,9.6288,9.6288,9.775,9.8596,9.8096,9.9981,10.1096,10.0596,10.1019,10.1289,10.1289,10.1289,10.1289,10.1289,10.1289,10.1289,10.1289,10.1289,10.1289,10.1289,10.1289,10.1289,10.1289,10.1289,10.1289,10.1289,10.1289,10.1289,10.1289,10.1289,10.1289,10.1289,10.1289,10.1289,10.1289,10.1289,10.1289,10.1289,10.1289,10.1289,10.1289,9.6685,9.6685,9.6685,9.6685,9.6685,9.6685,9.6685,9.6685,9.6685,9.6685,9.6685,9.6685,9.6685,9.6685,9.6685,9.6685,9.6685,9.6685,9.6685,9.6685,9.6685,9.6685,9.6685,9.6685,9.6685,9.6685,9.6685,9.6685,9.6685,9.6685,9.6685,9.6685,9.6685,9.6685,9.6685,9.6685,9.6685,9.6685,9.6685,9.6685,9.6685,9.6685,9.6685,9.6685,9.6685,9.6685,9.6685,9.7137,9.783,9.8712,10.001,10.1289,10.1289,10.1289,10.1289,10.1289,10.1289,10.1096,10.0404,10.0212,9.9981,9.9135,9.8327,9.7519,9.6711,9.648,9.6403,9.6403,9.6365,9.6288,9.6288,9.6288,9.6288,9.6288,9.6365,9.6403,9.6403,9.7865,9.8904,9.8788,10.0289,10.1289,10.1212,10.1289,10.1289,10.1289,10.1289,10.1289,10.1289,10.1289,10.1289,10.1289,10.1289,10.1289,10.1289,10.1289,10.1289,10.1289,10.1289,10.1289,10.1289,10.1289,10.1289,10.1289,10.1289,10.1289,10.1289,10.1289,10.1289,10.1289,10.1289,10.1289,10.1289,10.1289,10.1289,10.1289,9.6685,9.6685,9.6685,9.6685,9.6685,9.6685,9.6685,9.6685,9.6685,9.6685,9.6685,9.6685,9.6685,9.6685,9.6685,9.6685,9.6685,9.6685,9.6685,9.6685,9.6685,9.6685,9.6685,9.6685,9.6685,9.6685,9.6685,9.6685,9.6685,9.6685,9.6685,9.6685,9.6685,9.6685,9.6685,9.6685,9.6685,9.6685,9.6685,9.6685,9.6685,9.6685,9.6685,9.6685,9.6685,9.6685,9.6685,9.6801,9.7137,9.8529,10.001,10.1289,10.1289,10.1289,10.1289,10.1289,10.1289,10.1289,10.1096,10.1019,10.0789,9.9981,9.9673,9.9288,9.8442,9.7711,9.725,9.725,9.6749,9.6288,9.6288,9.6288,9.6288,9.6288,9.6826,9.725,9.725,9.8711,9.9558,9.8865,10.0289,10.1096,10.0404,10.0904,10.1289,10.1289,10.1289,10.1289,10.1289,10.1289,10.1289,10.1289,10.1289,10.1289,10.1289,10.1289,10.1289,10.1289,10.1289,10.1289,10.1289,10.1289,10.1289,10.1289,10.1289,10.1289,10.1289,10.1289,10.1289,10.1289,10.1289,10.1289,10.1289,10.1289,10.1289,10.1289,9.6685,9.6685,9.6685,9.6685,9.6685,9.6685,9.6685,9.6685,9.6685,9.6685,9.6685,9.6685,9.6685,9.6685,9.6685,9.6685,9.6685,9.6685,9.6685,9.6685,9.6685,9.6685,9.6685,9.6685,9.6685,9.6685,9.6685,9.6685,9.6685,9.6685,9.6685,9.6685,9.6685,9.6685,9.6685,9.6685,9.6685,9.6685,9.6685,9.6685,9.6685,9.6685,9.6685,9.6685,9.6685,9.6685,9.6685,9.6915,9.7459,9.8591,9.9809,10.0765,10.121,10.1289,10.1289,10.1289,10.1289,10.1289,10.1289,10.1289,10.1212,10.0789,10.0712,10.0289,9.9096,9.8442,9.8134,9.8134,9.7442,9.6865,9.6865,9.6557,9.6442,9.6826,9.725,9.7634,9.8057,9.925,9.9904,9.9481,10.0519,10.1096,10.0712,10.1096,10.1289,10.1289,10.1289,10.1289,10.1289,10.1289,10.1289,10.1289,10.1289,10.1289,10.1289,10.1289,10.1289,10.1289,10.1289,10.1289,10.1289,10.1289,10.1289,10.1289,10.1289,10.1289,10.1289,10.1289,10.1289,10.1289,10.1289,10.1289,10.1289,10.1289,10.1289,10.1289,9.6685,9.6685,9.6685,9.6685,9.6685,9.6685,9.6685,9.6685,9.6685,9.6685,9.6685,9.6685,9.6685,9.6685,9.6685,9.6685,9.6685,9.6685,9.6685,9.6685,9.6685,9.6685,9.6685,9.6685,9.6685,9.6685,9.6685,9.6685,9.6685,9.6685,9.6685,9.6685,9.6685,9.6685,9.6685,9.6685,9.6685,9.6685,9.6685,9.6685,9.6685,9.6685,9.6685,9.6685,9.6685,9.6685,9.6685,9.7137,9.786,9.8591,9.9401,10.0319,10.0889,10.121,10.1289,10.1289,10.1289,10.1289,10.1289,10.1289,10.1289,10.1289,10.1289,10.0904,9.9558,9.9135,9.9019,9.9019,9.8327,9.7711,9.7711,9.7173,9.6942,9.7596,9.7865,9.8211,9.8904,9.975,10.0289,10.0289,10.0904,10.1289,10.1289,10.1289,10.1289,10.1289,10.1289,10.1289,10.1289,10.1289,10.1289,10.1289,10.1289,10.1289,10.1289,10.1289,10.1289,10.1289,10.1289,10.1289,10.1289,10.1289,10.1289,10.1289,10.1289,10.1289,10.1289,10.1289,10.1289,10.1289,10.1289,10.1289,10.1289,10.1289,10.1289,10.1289,9.6685,9.6685,9.6685,9.6685,9.6685,9.6685,9.6685,9.6685,9.6685,9.6685,9.6685,9.6685,9.6685,9.6685,9.6685,9.6685,9.6685,9.6685,9.6685,9.6685,9.6685,9.6685,9.6685,9.6685,9.6685,9.6685,9.6685,9.6685,9.6685,9.6685,9.6685,9.6685,9.6685,9.6685,9.6685,9.6685,9.6685,9.6685,9.6685,9.6685,9.6685,9.6685,9.6685,9.6685,9.6685,9.6685,9.6685,9.7137,9.783,9.7927,9.8949,10.0185,10.028,10.0804,10.1289,10.1289,10.1289,10.1289,10.1289,10.1289,10.1289,10.1289,10.1289,10.1212,10.1019,10.0404,9.9904,9.9904,9.9211,9.8634,9.8634,9.8519,9.8481,9.8596,9.925,9.9788,9.9904,10.0596,10.1096,10.1096,10.1212,10.1289,10.1289,10.1289,10.1289,10.1289,10.1289,10.1289,10.1289,10.1289,10.1289,10.1289,10.1289,10.1289,10.1289,10.1289,10.1289,10.1289,10.1289,10.1289,10.1289,10.1289,10.1289,10.1289,10.1289,10.1289,10.1289,10.1289,10.1289,10.1289,10.1289,10.1289,10.1289,10.1289,10.1289,10.1289,9.6685,9.6685,9.6685,9.6685,9.6685,9.6685,9.6685,9.6685,9.6685,9.6685,9.6685,9.6685,9.6685,9.6685,9.6685,9.6685,9.6685,9.6685,9.6685,9.6685,9.6685,9.6685,9.6685,9.6685,9.6685,9.6685,9.6685,9.6685,9.6685,9.6685,9.6685,9.6685,9.6685,9.6685,9.6685,9.6685,9.6685,9.6685,9.6685,9.6685,9.6685,9.6685,9.6685,9.6685,9.6685,9.6685,9.6685,9.6915,9.7317,9.8188,9.8949,9.9706,10.0467,10.1011,10.1289,10.1289,10.1289,10.1289,10.1289,10.1289,10.1289,10.1289,10.1289,10.1289,10.1289,10.1019,10.0789,10.0789,10.0096,9.9519,9.9519,9.9135,9.8942,9.9442,9.9827,10.0289,10.0712,10.1096,10.1289,10.1289,10.1289,10.1289,10.1289,10.1289,10.1289,10.1289,10.1289,10.1289,10.1289,10.1289,10.1289,10.1289,10.1289,10.1289,10.1289,10.1289,10.1289,10.1289,10.1289,10.1289,10.1289,10.1289,10.1289,10.1289,10.1289,10.1289,10.1289,10.1289,10.1289,10.1289,10.1289,10.1289,10.1289,10.1289,10.1289,10.1289]},{"header":{"parameterUnit":"m.s-1","parameterCategory":1,"la1":30.6,"la2":28.766,"lo1":-90.7593,"lo2":-88.6598,"dx":0.0162,"dy":0.0183,"nx":116,"ny":114,"refTime":"2022-12-23T06:00:00:Z","depth":0,"parameterNumber":3,"parameterNumberName":"V-component_of_WINDS"},"data":[0.0,0.0,0.0,0.0,0.0,0.0,0.0,0.0,0.0,0.0,0.0,0.0,0.0,0.0,0.0,0.0,0.0,0.0,0.0,0.0,0.0,0.0,0.0,0.0,0.0,0.0,0.0,0.0,0.0,0.0,0.0,0.0,0.0,0.0,0.0,0.0,0.0,0.0,0.0,0.0,0.0,0.0,0.0,0.0,0.0,0.0,0.0,0.0,0.0,0.0,0.0,0.0,0.0,0.0,0.0,0.0,0.0,0.0,0.0,0.0,0.0,0.0,0.0,0.0,0.0,0.0,0.0,0.0,0.0,0.0,0.0,0.0,0.0,0.0,0.0,0.0,0.0,0.0,0.0,0.0,0.0,0.0,0.0,0.0,0.0,0.0,0.0,0.0,0.0,0.0,0.0,0.0,0.0,0.0,0.0,0.0,0.0,0.0,0.0,0.0,0.0,0.0,0.0,0.0,0.0,0.0,0.0,0.0,0.0,0.0,0.0,0.0,0.0,0.0,0.0,0.0,0.0,0.0,0.0,0.0,0.0,0.0,0.0,0.0,0.0,0.0,0.0,0.0,0.0,0.0,0.0,0.0,0.0,0.0,0.0,0.0,0.0,0.0,0.0,0.0,0.0,0.0,0.0,0.0,0.0,0.0,0.0,0.0,0.0,0.0,0.0,0.0,0.0,0.0,0.0,0.0,0.0,0.0,0.0,0.0,0.0,0.0,0.0,0.0,0.0,0.0,0.0,0.0,0.0,0.0,0.0,0.0,0.0,0.0,0.0,0.0,0.0,0.0,0.0,0.0,0.0,0.0,0.0,0.0,0.0,0.0,0.0,0.0,0.0,0.0,0.0,0.0,0.0,0.0,0.0,0.0,0.0,0.0,0.0,0.0,0.0,0.0,0.0,0.0,0.0,0.0,0.0,0.0,0.0,0.0,0.0,0.0,0.0,0.0,0.0,0.0,0.0,0.0,0.0,0.0,0.0,0.0,0.0,0.0,0.0,0.0,0.0,0.0,0.0,0.0,0.0,0.0,0.0,0.0,0.0,0.0,0.0,0.0,0.0,0.0,0.0,0.0,0.0,0.0,0.0,0.0,0.0,0.0,0.0,0.0,0.0,0.0,0.0,0.0,0.0,0.0,0.0,0.0,0.0,0.0,0.0,0.0,0.0,0.0,0.0,0.0,0.0,0.0,0.0,0.0,0.0,0.0,0.0,0.0,0.0,0.0,0.0,0.0,0.0,0.0,0.0,0.0,0.0,0.0,0.0,0.0,0.0,0.0,0.0,0.0,0.0,0.0,0.0,0.0,0.0,0.0,0.0,0.0,0.0,0.0,0.0,0.0,0.0,0.0,0.0,0.0,0.0,0.0,0.0,0.0,0.0,0.0,0.0,0.0,0.0,0.0,0.0,0.0,0.0,0.0,0.0,0.0,0.0,0.0,0.0,0.0,0.0,0.0,0.0,0.0,0.0,0.0,0.0,0.0,0.0,0.0,0.0,0.0,0.0,0.0,0.0,0.0,0.0,0.0,0.0,0.0,0.0,0.0,0.0,0.0,0.0,0.0,0.0,0.0,0.0,0.0,0.0,0.0,0.0,0.0,0.0,0.0,0.0,0.0,0.0,0.0,0.0,0.0,0.0,0.0,0.0,0.0,0.0,0.0,0.0,0.0,0.0,0.0,0.0,0.0,0.0,0.0,0.0,0.0,0.0,0.0,0.0,0.0,0.0,0.0,0.0,0.0,0.0,0.0,0.0,0.0,0.0,0.0,0.0,0.0,0.0,0.0,0.0,0.0,0.0,0.0,0.0,0.0,0.0,0.0,0.0,0.0,0.0,0.0,0.0,0.0,0.0,0.0,0.0,0.0,0.0,0.0,0.0,0.0,0.0,0.0,0.0,0.0,0.0,0.0,0.0,0.0,0.0,0.0,0.0,0.0,0.0,0.0,0.0,0.0,0.0,0.0,0.0,0.0,0.0,0.0,0.0,0.0,0.0,0.0,0.0,0.0,0.0,0.0,0.0,0.0,0.0,0.0,0.0,0.0,0.0,0.0,0.0,0.0,0.0,0.0,0.0,0.0,0.0,0.0,0.0,0.0,0.0,0.0,0.0,0.0,0.0,0.0,0.0,0.0,0.0,0.0,0.0,0.0,0.0,0.0,0.0,0.0,0.0,0.0,0.0,0.0,0.0,0.0,0.0,0.0,0.0,0.0,0.0,0.0,0.0,0.0,0.0,0.0,0.0,0.0,0.0,0.0,0.0,0.0,0.0,0.0,0.0,0.0,0.0,0.0,0.0,0.0,0.0,0.0,0.0,0.0,0.0,0.0,0.0,0.0,0.0,0.0,0.0,0.0,0.0,0.0,0.0,0.0,0.0,0.0,0.0,0.0,0.0,0.0,0.0,0.0,0.0,0.0,0.0,0.0,0.0,0.0,0.0,0.0,0.0,0.0,0.0,0.0,0.0,0.0,0.0,0.0,0.0,0.0,0.0,0.0,0.0,0.0,0.0,0.0,0.0,0.0,0.0,0.0,0.0,0.0,0.0,0.0,0.0,0.0,0.0,0.0,0.0,0.0,0.0,0.0,0.0,0.0,0.0,0.0,0.0,0.0,0.0,0.0,0.0,0.0,0.0,0.0,0.0,0.0,0.0,0.0,0.0,0.0,0.0,0.0,0.0,0.0,0.0,0.0,0.0,0.0,0.0,0.0,0.0,0.0,0.0,0.0,0.0,0.0,0.0,0.0,0.0,0.0,0.0,0.0,0.0,0.0,0.0,0.0,0.0,0.0,0.0,0.0,0.0,0.0,0.0,0.0,0.0,0.0,0.0,0.0,0.0,0.0,0.0,0.0,0.0,0.0,0.0,0.0,0.0,0.0,0.0,0.0,0.0,0.0,0.0,0.0,0.0,0.0,0.0,0.0,0.0,0.0,0.0,0.0,0.0,0.0,0.0,0.0,0.0,0.0,0.0,0.0,0.0,0.0,0.0,0.0,0.0,0.0,0.0,0.0,0.0,0.0,0.0,0.0,0.0,0.0,0.0,0.0,0.0,0.0,0.0,0.0,0.0,0.0,0.0,0.0,0.0,0.0,0.0,0.0,0.0,0.0,0.0,0.0,0.0,0.0,0.0,0.0,0.0,0.0,0.0,0.0,0.0,0.0,0.0,0.0,0.0,0.0,0.0,0.0,0.0,0.0,0.0,0.0,0.0,0.0,0.0,0.0,0.0,0.0,0.0,0.0,0.0,0.0,0.0,0.0,0.0,0.0,0.0,0.0,0.0,0.0,0.0,0.0,0.0,0.0,0.0,0.0,0.0,0.0,0.0,0.0,0.0,0.0,0.0,0.0,0.0,0.0,0.0,0.0,0.0,0.0,0.0,0.0,0.0,0.0,0.0,0.0,0.0,0.0,0.0,0.0,0.0,0.0,0.0,0.0,0.0,0.0,0.0,0.0,0.0,0.0,0.0,0.0,0.0,0.0,0.0,0.0,0.0,0.0,0.0,0.0,0.0,0.0,0.0,0.0,0.0,0.0,0.0,0.0,0.0,0.0,0.0,0.0,0.0,0.0,0.0,0.0,0.0,0.0,0.0,0.0,0.0,0.0,0.0,0.0,0.0,0.0,0.0,0.0,0.0,0.0,0.0,0.0,0.0,0.0,0.0,0.0,0.0,0.0,0.0,0.0,0.0,0.0,0.0,0.0,0.0,0.0,0.0,0.0,0.0,0.0,0.0,0.0,0.0,0.0,0.0,0.0,0.0,0.0,0.0,0.0,0.0,0.0,0.0,0.0,0.0,0.0,0.0,0.0,0.0,0.0,0.0,0.0,0.0,0.0,0.0,0.0,0.0,0.0,0.0,0.0,0.0,0.0,0.0,0.0,0.0,0.0,0.0,0.0,0.0,0.0,0.0,0.0,0.0,0.0,0.0,0.0,0.0,0.0,0.0,0.0,0.0,0.0,0.0,0.0,0.0,0.0,0.0,0.0,0.0,0.0,0.0,0.0,0.0,0.0,0.0,0.0,0.0,0.0,0.0,0.0,0.0,0.0,0.0,0.0,0.0,0.0,0.0,0.0,0.0,0.0,0.0,0.0,0.0,0.0,0.0,0.0,0.0,0.0,0.0,0.0,0.0,0.0,0.0,0.0,0.0,0.0,0.0,0.0,0.0,0.0,0.0,0.0,0.0,0.0,0.0,0.0,0.0,0.0,0.0,0.0,0.0,0.0,0.0,0.0,0.0,0.0,0.0,0.0,0.0,0.0,0.0,0.0,0.0,0.0,0.0,0.0,0.0,0.0,0.0,0.0,0.0,0.0,0.0,0.0,0.0,0.0,0.0,0.0,0.0,0.0,0.0,0.0,0.0,0.0,0.0,0.0,0.0,0.0,0.0,0.0,0.0,0.0,0.0,0.0,0.0,0.0,0.0,0.0,0.0,0.0,0.0,0.0,0.0,0.0,0.0,0.0,0.0,0.0,0.0,0.0,0.0,0.0,0.0,0.0,0.0,0.0,0.0,0.0,0.0,0.0,0.0,0.0,0.0,0.0,0.0,0.0,0.0,0.0,0.0,0.0,0.0,0.0,0.0,0.0,0.0,0.0,0.0,0.0,0.0,0.0,0.0,0.0,0.0,0.0,0.0,0.0,0.0,0.0,0.0,0.0,0.0,0.0,0.0,0.0,0.0,0.0,0.0,0.0,0.0,0.0,0.0,0.0,0.0,0.0,0.0,0.0,0.0,0.0,0.0,0.0,0.0,0.0,0.0,0.0,0.0,0.0,0.0,0.0,0.0,0.0,0.0,0.0,0.0,0.0,0.0,0.0,0.0,0.0,0.0,0.0,0.0,0.0,0.0,0.0,0.0,0.0,0.0,0.0,0.0,0.0,0.0,0.0,0.0,0.0,0.0,0.0,0.0,0.0,0.0,0.0,0.0,0.0,0.0,0.0,0.0,0.0,0.0,0.0,0.0,0.0,0.0,0.0,0.0,0.0,0.0,0.0,0.0,0.0,0.0,0.0,0.0,0.0,0.0,0.0,0.0,0.0,0.0,0.0,0.0,0.0,0.0,0.0,0.0,0.0,0.0,0.0,0.0,0.0,0.0,0.0,0.0,0.0,0.0,0.0,0.0,0.0,0.0,0.0,0.0,0.0,0.0,0.0,0.0,0.0,0.0,0.0,0.0,0.0,0.0,0.0,0.0,0.0,0.0,0.0,0.0,0.0,0.0,0.0,0.0,0.0,0.0,0.0,0.0,0.0,0.0,0.0,0.0,0.0,0.0,0.0,0.0,0.0,0.0,0.0,0.0,0.0,0.0,0.0,0.0,0.0,0.0,0.0,0.0,0.0,0.0,0.0,0.0,0.0,0.0,0.0,0.0,0.0,0.0,0.0,0.0,0.0,0.0,0.0,0.0,0.0,0.0,0.0,0.0,0.0,0.0,0.0,0.0,0.0,0.0,0.0,0.0,0.0,0.0,0.0,0.0,0.0,0.0,0.0,0.0,0.0,0.0,0.0,0.0,0.0,0.0,0.0,0.0,0.0,0.0,0.0,0.0,0.0,0.0,0.0,0.0,0.0,0.0,0.0,0.0,0.0,0.0,0.0,0.0,0.0,0.0,0.0,0.0,0.0,0.0,0.0,0.0,0.0,0.0,0.0,0.0,0.0,0.0,0.0,0.0,0.0,0.0,0.0,0.0,0.0,0.0,0.0,0.0,0.0,0.0,0.0,0.0,0.0,0.0,0.0,0.0,0.0,0.0,0.0,0.0,0.0,0.0,0.0,0.0,0.0,0.0,0.0,0.0,0.0,0.0,0.0,0.0,0.0,0.0,0.0,0.0,0.0,0.0,0.0,0.0,0.0,0.0,0.0,0.0,0.0,0.0,0.0,0.0,0.0,0.0,0.0,0.0,0.0,0.0,0.0,0.0,0.0,0.0,0.0,0.0,0.0,0.0,0.0,0.0,0.0,0.0,0.0,0.0,0.0,0.0,0.0,0.0,0.0,0.0,0.0,0.0,0.0,0.0,0.0,0.0,0.0,0.0,0.0,0.0,0.0,0.0,0.0,0.0,0.0,0.0,0.0,0.0,0.0,0.0,0.0,0.0,0.0,0.0,0.0,0.0,0.0,0.0,0.0,0.0,0.0,0.0,0.0,0.0,0.0,0.0,0.0,0.0,0.0,0.0,0.0,0.0,0.0,0.0,0.0,0.0,0.0,0.0,0.0,0.0,0.0,0.0,-0.3611,-0.3619,-0.3579,-0.2544,0.0,0.0,0.0,0.0,0.0,0.0,0.0,0.0,0.0,0.1117,0.3398,0.3396,0.4677,0.7022,0.4729,0.237,0.0,0.0,0.0,0.0,0.0,0.0,0.0,0.0,0.0,0.0,0.0,0.0,0.0,0.0,0.0,0.0,0.0,0.0,0.0,0.0,0.0,0.0,0.0,0.0,0.0,0.0,0.0,0.0,0.0,0.0,0.0,0.0,0.0,0.0,0.0,0.0,0.0,0.0,0.0,0.0,0.0,0.0,0.0,0.0,0.0,0.0,0.0,0.0,0.0,0.0,0.0,0.0,0.0,0.0,0.0,0.0,0.0,0.0,0.0,0.0,0.0,0.0,0.0,0.0,0.0,0.0,0.0,0.0,0.0,0.0,0.0,0.0,0.0,0.0,0.0,0.0,0.0,0.0,0.0,0.0,0.0,0.0,0.0,0.0,0.0,0.0,0.0,0.0,0.0,0.0,0.0,0.0,0.0,0.0,-0.3584,-0.3618,-0.3595,-0.3415,-0.2988,-0.1174,0.0,0.0,0.0,0.0,0.0,0.0,0.0,0.0,0.0897,0.3303,0.7226,0.7251,0.7241,0.7261,0.7459,0.5309,0.1288,0.0856,0.0,0.0,0.0,0.0,0.0,0.0,0.0,0.0,0.0,0.0,0.0,0.0,0.0,0.0,0.0,0.0,0.0,0.0,0.0,0.0,0.0,0.0,0.0,0.0,0.0,0.0,0.0,0.0,0.0,0.0,0.0,0.0,0.0,0.0,0.0,0.0,0.0,0.0,0.0,0.0,0.0,0.0,0.0,0.0,0.0,0.0,0.0,0.0,0.0,0.0,0.0,0.0,0.0,0.0,0.0,0.0,0.0,0.0,0.0,0.0,0.0,0.0,0.0,0.0,0.0,0.0,0.0,0.0,0.0,0.0,0.0,0.0,0.0,0.0,0.0,0.0,0.0,0.0,0.0,0.0,0.0,0.0,0.0,0.0,0.0,0.0,0.0,0.0,0.0,0.0,0.0,0.0,-0.3595,-0.3587,-0.3609,-0.273,-0.063,-0.0173,0.0,0.0,0.0,0.0,0.0,0.0,0.0,0.0,0.4539,0.7269,0.7854,0.7691,0.771,0.7913,0.7596,0.7135,0.6538,0.4164,0.3405,0.3876,0.0,0.0,0.0,0.0,0.0,0.0,0.0,0.0,0.0,0.0,0.0,0.0,0.0,0.0,0.0,0.0,0.0,0.0,0.0,0.0,0.0,0.0,0.0,0.0,0.0,0.0,0.0,0.0,0.0,0.0,0.0,0.0,0.0,0.0,0.0,0.0,0.0,0.0,0.0,0.0,0.0,0.0,0.0,0.0,0.0,0.0,0.0,0.0,0.0,0.0,0.0,0.0,0.0,0.0,0.0,0.0,0.0,0.0,0.0,0.0,0.0,0.0,0.0,0.0,0.0,0.0,0.0,0.0,0.0,0.0,0.0,0.0,0.0,0.0,0.0,0.0,0.0,0.0,0.0,0.0,0.0,0.0,0.0,0.0,0.0,0.0,0.0,0.0,0.0,0.0,0.0,0.0,-0.2383,-0.1136,-0.0065,0.0,0.0,0.0,0.0,0.0,0.0,0.0,0.1545,0.4926,0.7295,0.8375,0.8189,0.8109,0.8048,0.7952,0.778,0.7787,0.7828,0.6573,0.5817,0.5621,0.6,0.0,0.0,0.0,0.0,0.0,0.0,0.0,0.0,0.0,0.0,0.0,0.0,0.0,0.0,0.0,0.0,0.0,0.0,0.0,0.0,0.0,0.0,0.0,0.0,0.0,0.0,0.0,0.0,0.0,0.0,0.0,0.0,0.0,0.0,0.0,0.0,0.0,0.0,0.0,0.0,0.0,0.0,0.0,0.0,0.0,0.0,0.0,0.0,0.0,0.0,0.0,0.0,0.0,0.0,0.0,0.0,0.0,0.0,0.0,0.0,0.0,0.0,0.0,0.0,0.0,0.0,0.0,0.0,0.0,0.0,0.0,0.0,0.0,0.0,0.0,0.0,0.0,0.0,0.0,0.0,0.0,0.0,0.0,0.0,0.0,0.0,0.0,0.0,0.0,0.0,-0.2764,-0.1069,0.0,0.0,0.0,0.0,0.0,0.0,0.0,0.0,0.0,0.2841,0.9018,0.9075,0.8888,0.8549,0.8466,0.8391,0.8269,0.8269,0.8269,0.8262,0.8106,0.7719,0.7245,0.7011,0.6546,0.6051,0.0,0.0,0.0,0.0,0.0,0.0,0.0,0.0,0.0,0.0,0.0,0.0,0.0,0.0,0.0,0.0,0.0,0.0,0.0,0.0,0.0,0.0,0.0,0.0,0.0,0.0,0.0,0.0,0.0,0.0,0.0,0.0,0.0,0.0,0.0,0.0,0.0,0.0,0.0,0.0,0.0,0.0,0.0,0.0,0.0,0.0,0.0,0.0,0.0,0.0,0.0,0.0,0.0,0.0,0.0,0.0,0.0,0.0,0.0,0.0,0.0,0.0,0.0,0.0,0.0,0.0,0.0,0.0,0.0,0.0,0.0,0.0,0.0,0.0,0.0,0.0,0.0,0.0,0.0,0.0,0.0,0.0,0.0,0.0,0.0,0.0,0.0,-0.273,-0.0414,-0.0075,0.0,0.0,0.0,0.0,0.0,0.0,0.0,0.0,0.0,0.3053,0.9625,0.9487,0.9267,0.9122,0.8988,0.8899,0.8893,0.8893,0.8893,0.8886,0.873,0.833,0.774,0.7305,0.7021,0.681,0.6071,0.0,0.0,0.0,0.0,0.0,0.0,0.0,0.0,0.0,0.0,0.0,0.0,0.0,0.0,0.0,0.0,0.0,0.0,0.0,0.0,0.0,0.0,0.0,0.0,0.0,0.0,0.0,0.0,0.0,0.0,0.0,0.0,0.0,0.0,0.0,0.0,0.0,0.0,0.0,0.0,0.0,0.0,0.0,0.0,0.0,0.0,0.0,0.0,0.0,0.0,0.0,0.0,0.0,0.0,0.0,0.0,0.0,0.0,0.0,0.0,0.0,0.0,0.0,0.0,0.0,0.0,0.0,0.0,0.0,0.0,0.0,0.0,0.0,0.0,0.0,0.0,0.0,0.0,-0.3581,-0.3581,-0.3581,-0.3581,-0.361,-0.3622,-0.3615,-0.2237,-0.0977,-0.0077,0.0,0.0,0.0,0.0,0.0,0.0,0.0,0.0,0.0,0.4059,0.6377,0.6647,0.8471,0.9458,0.9307,0.9291,0.9225,0.9225,0.9225,0.9225,0.9218,0.9062,0.8872,0.8642,0.8194,0.7807,0.7475,0.7204,0.6661,0.0,0.0,0.0,0.0,0.0,0.0,0.0,0.0,0.0,0.0,0.0,0.0,0.0,0.0,0.0,0.0,0.0,0.0,0.0,0.0,0.0,0.0,0.0,0.0,0.0,0.0,0.0,0.0,0.0,0.0,0.0,0.0,0.0,0.0,0.0,0.0,0.0,0.0,0.0,0.0,0.0,0.0,0.0,0.0,0.0,0.0,0.0,0.0,0.0,0.0,0.0,0.0,0.0,0.0,0.0,0.0,0.0,0.2791,0.8079,0.8462,0.706,0.4374,0.4061,0.4053,0.403,0.4084,0.2513,0.0,0.0,0.0,0.0,0.0,0.0,0.0,0.0,-0.3548,0.0,-0.3581,-0.3581,-0.3462,-0.305,-0.3323,-0.3302,-0.251,-0.1007,0.0,0.0,0.0,0.0,0.0,0.0,0.0,0.0,0.0,0.0974,0.3239,0.7454,0.8774,0.6577,0.8593,0.956,0.953,0.953,0.953,0.953,0.953,0.953,0.9523,0.9374,0.9306,0.9286,0.8933,0.8526,0.8099,0.7889,0.74,0.677,0.0,0.0,0.0,0.0,0.0,0.0,0.0,0.0,0.0,0.0,0.0,0.0,0.0,0.0,0.0,0.0,0.0,0.0,0.0,0.0,0.0,0.0,0.0,0.0,0.0,0.0,0.0,0.0,0.0,0.0,0.0,0.0,0.0,0.0,0.0,0.0,0.0,0.0,0.0,0.0,0.0,0.0,0.0,0.0,0.0,0.0,0.0,0.0,0.0,0.0,0.0,0.0,0.3067,0.4502,0.4557,0.3004,0.5235,1.0673,1.239,1.1764,0.8978,0.8819,0.8636,0.859,0.843,0.6702,0.4011,0.2672,0.2078,0.2082,0.2108,0.121,0.0,0.0,-0.348,-0.3581,-0.3581,-0.3581,-0.3224,-0.2027,-0.2785,-0.2623,-0.032,0.0,0.0,0.0,0.0,0.0,0.0,0.0,0.0,0.0,0.0199,0.315,0.9507,0.9827,0.9821,0.9765,0.9829,0.9771,0.9829,0.9829,0.9829,0.9829,0.9829,0.9829,0.9815,0.968,0.9618,0.9605,0.9456,0.9137,0.8689,0.8092,0.7841,0.7746,0.0,0.0,0.0,0.0,0.0,0.0,0.0,0.0,0.0,0.0,0.0,0.0,0.0,0.0,0.0,0.0,0.0,0.0,0.0,0.0,0.0,0.0,0.0,0.0,0.0,0.0,0.0,0.0,0.0,0.0,0.0,0.0,0.0,0.0,0.0,0.0,0.0,0.0,0.0,0.0,0.0,0.0,0.0,0.0,0.0,0.0,0.0285,0.0433,0.0438,0.0299,0.0153,0.0157,0.8926,1.3283,1.3281,0.894,0.6971,0.7132,1.1236,1.3233,1.3401,1.3401,1.3311,1.2999,1.2691,1.2542,1.2093,0.7999,0.6448,0.6459,0.6537,0.3751,0.0157,-0.3527,-0.3554,-0.3581,-0.3581,-0.3585,-0.3491,-0.315,-0.1919,-0.074,-0.0066,0.0,0.0,0.0,0.0,0.0,0.0,0.0,0.0,0.0,0.4472,0.7875,0.9747,0.9785,0.981,0.9842,0.9758,0.9882,0.9985,0.9985,0.9985,0.9985,0.9985,0.993,0.9822,0.9781,0.9761,0.9754,0.9605,0.9476,0.9327,0.894,0.8526,0.8119,0.0,0.0,0.0,0.0,0.0,0.0,0.0,0.0,0.0,0.0,0.0,0.0,0.0,0.0,0.0,0.0,0.0,0.0,0.0,0.0,0.0,0.0,0.0,0.0,0.0,0.0,0.0,0.0,0.0,0.0,0.0,0.0,0.0,0.0,0.0,0.0,0.0,0.0,0.0,0.0,0.0,0.0,0.0,0.0,0.0,0.0,0.623,0.9788,0.9753,0.6619,0.4836,0.491,0.7545,1.0433,1.3439,1.2319,1.1842,1.1854,1.3118,1.3659,1.3471,1.3471,1.3451,1.3397,1.3241,1.3159,1.3057,1.1343,1.0812,1.083,1.0809,0.8288,0.4915,-0.3493,-0.3534,-0.3602,-0.3618,-0.3187,-0.304,-0.3506,-0.155,0.0,0.0,0.0,0.0,0.0,0.0,0.0,0.0,0.0,0.1184,0.3908,0.7718,0.9835,0.9754,0.9824,0.9919,0.993,1.0046,1.0148,1.0236,1.0297,1.0331,1.0331,1.0331,1.0249,1.01,1.01,1.0032,0.991,0.9829,0.9754,0.968,0.9442,0.9096,0.8716,0.8526,0.8201,0.7834,0.7794,0.7645,0.7502,0.7733,0.0,0.0,0.0,0.0,0.0,0.0,0.0,0.0,0.0,0.0,0.0,0.0,0.0,0.0,0.0,0.0,0.0,0.0,0.0,0.0,0.0,0.0,0.0,0.0,0.0,0.0,0.0,0.0,0.0,0.0,0.0,0.0,0.0,0.0,0.0,0.0,0.3199,0.5299,0.5585,0.8834,1.1581,1.3538,1.1094,0.9621,0.9617,0.9881,1.1186,1.3566,1.3789,1.3851,1.3919,1.3981,1.4036,0.0,1.3912,1.3912,1.3899,1.3743,1.3682,0.0,0.0,0.0,0.0,0.0,1.129,0.945,-0.3356,-0.35,-0.3597,-0.3591,-0.2585,-0.2122,-0.3071,-0.1377,0.0,0.0,0.0,0.0,0.0,0.0,0.0,0.0,0.0654,0.355,0.9463,0.9823,0.9853,0.9873,0.9966,1.0074,1.0093,1.0358,1.0507,1.0541,1.0677,1.0744,1.0744,1.0744,1.0663,1.0514,1.05,1.0344,1.01,1.008,0.9998,0.9863,0.972,0.9557,0.9361,0.8927,0.8676,0.852,0.8241,0.797,0.7773,0.7936,0.0,0.0,0.0,0.0,0.0,0.0,0.0,0.0,0.0,0.0,0.0,0.0,0.0,0.0,0.0,0.0,0.0,0.0,0.0,0.0,0.0,0.0,0.0,0.0,0.0,0.0,0.0,0.0,0.0,0.0,0.0,0.0,0.0,0.0861,0.1451,0.1336,0.7905,1.2285,1.3392,0.0,0.0,0.0,0.0,1.3781,1.3895,1.402,1.3995,1.3973,1.3953,1.4014,1.4156,1.415,1.4224,1.4346,1.4346,1.4346,1.434,1.4204,1.415,1.4102,1.3634,1.3451,1.3458,1.3331,1.3177,0.0,-0.3493,-0.3649,-0.3718,-0.3617,-0.2605,-0.1569,-0.0796,-0.0305,0.0,0.0,0.0,0.0,0.0,0.0,0.0,0.0,0.4848,0.8457,0.9758,0.9961,1.0044,1.0026,1.0243,1.0335,1.0399,1.046,1.0616,1.086,1.0894,1.0907,1.0907,1.0907,1.0819,1.067,1.0548,1.046,1.0399,1.0283,1.0215,1.0175,1.0025,0.9802,0.953,0.9191,0.9049,0.9001,0.8825,0.873,0.8723,0.8988,0.8838,0.856,0.8682,0.8452,0.0,0.0,0.0,0.0,0.0,0.0,0.0,0.0,0.0,0.0,0.0,0.0,0.0,0.0,0.0,0.0,0.0,0.0,0.0,0.0,0.0,0.0,0.0,0.0,0.0,0.0,0.0,0.0,0.0,0.613,1.0098,1.015,0.8552,0.9183,1.3204,1.2503,0.0,1.4006,1.3796,1.3947,1.396,1.4109,1.4265,1.4249,0.0,0.0,1.4658,1.4624,1.4624,1.4658,1.4658,1.4658,1.4652,1.4624,1.4611,1.4557,1.398,1.3756,1.377,1.3905,1.3953,1.3966,-0.3572,-0.3553,-0.3625,-0.3761,-0.3177,-0.2091,-0.0273,0.0,0.0,0.0,0.0,0.0,0.0,0.0,0.0,0.0,0.6022,0.9771,0.9802,1.0044,1.0116,1.0102,1.028,1.0453,1.0602,1.0751,1.0941,1.1172,1.1246,1.1287,1.1287,1.1287,1.1206,1.105,1.0975,1.086,1.0711,1.0561,1.046,1.0371,1.0222,1.008,0.9903,0.9523,0.9381,0.9361,0.9211,0.9157,0.9184,0.9334,0.9279,0.9171,0.9252,0.9069,0.8737,0.0,0.0,0.0,0.0,0.0,0.0,0.0,0.0,0.0,0.0,0.0,0.0,0.0,0.0,0.0,0.0,0.0,0.4577,0.0691,0.0,0.1403,0.5238,0.6023,0.6188,0.582,0.6058,0.5396,0.3344,0.6965,1.0277,1.2595,1.0821,1.0884,1.3443,1.3582,1.3693,1.4146,1.4041,1.4177,1.4407,1.4482,1.4563,1.447,1.4713,1.4787,1.4889,1.4936,1.5004,1.5079,1.5153,1.5187,1.5187,1.5187,1.5187,1.516,1.4855,1.4604,1.4414,1.4496,1.4523,1.4529,-0.3651,-0.3268,-0.3133,-0.3789,-0.3827,-0.2943,-0.0391,0.0,0.0,0.0,0.0,0.0,0.0,0.0,0.0,0.0,0.5394,0.9169,0.9764,0.9982,1.0079,1.0086,1.0351,1.0588,1.0799,1.1043,1.1253,1.1436,1.1558,1.1619,1.1619,1.1619,1.1552,1.1436,1.1402,1.126,1.1023,1.0839,1.0697,1.0568,1.0392,1.0324,1.0276,0.989,0.972,0.9673,0.9523,0.9469,0.9469,0.9469,0.9564,0.9693,0.9693,0.9632,0.9476,0.9083,0.8859,0.0,0.0,0.0,0.0,0.0,0.0,0.0,0.0,0.4756,0.1305,0.1106,0.1138,0.1169,0.1066,0.5597,0.7812,0.2961,0.2273,0.4432,1.0855,1.2156,1.2191,1.1791,1.2157,1.1095,0.7909,0.754,0.9061,1.278,1.3089,1.3374,1.3679,1.3648,1.3919,1.4373,1.4387,1.4516,1.478,1.4814,1.4841,1.4869,1.4903,1.4977,1.5106,1.5221,1.5337,1.5459,1.5588,1.5642,1.5642,1.5642,1.5642,1.5642,1.5642,1.5438,1.514,1.5113,1.5099,1.5099,-0.3744,-0.2573,-0.1965,-0.3398,-0.4069,-0.3416,-0.0449,0.0,0.0,0.0,0.0,0.0,0.0,0.0,0.0,0.0,0.3365,0.6664,0.9655,0.9923,1.008,1.0249,1.0405,1.0683,1.1104,1.1145,1.1307,1.1592,1.1613,1.1619,1.1619,1.1619,1.1613,1.1586,1.145,1.1375,1.1321,1.1043,1.0914,1.0873,1.0582,1.0466,1.0453,1.0276,1.012,0.9978,0.9829,0.9774,0.9774,0.9774,0.9876,0.9998,0.9998,1.008,1.0141,0.9958,0.9788,0.9605,0.9313,0.9062,0.8843,0.9218,0.9422,0.9163,0.0,0.6567,0.577,0.5215,0.5192,0.5131,0.521,0.2972,0.328,0.9302,1.0269,1.0725,1.2185,1.2213,1.2086,1.2175,1.2088,1.2182,1.2311,1.2119,1.2414,1.3061,1.315,1.3322,1.3777,1.3939,1.4231,1.4679,1.4692,1.4774,1.4943,1.5072,1.5201,1.5337,1.5472,1.5547,1.5567,1.5581,1.5594,1.5615,1.5635,1.5642,1.5642,1.5642,1.5642,1.5642,1.5642,1.5683,1.5737,1.5615,1.556,1.556,-0.3872,-0.3516,-0.3081,-0.2802,-0.2282,-0.1457,-0.0168,0.0,0.0,0.0,0.0,0.0,0.0,0.0,0.0,0.0,0.2989,0.6318,0.9617,0.9975,1.008,1.0141,1.0371,1.0622,1.09,1.1077,1.1267,1.1484,1.1572,1.1619,1.1619,1.1619,1.1619,1.1613,1.1457,1.1389,1.1369,1.1077,1.0948,1.0928,1.0711,1.0622,1.0616,1.0561,1.0493,1.0412,1.0175,1.0032,0.0,1.0059,1.0073,1.0066,1.0154,1.0107,1.0053,1.0249,1.0141,0.9985,1.012,0.9876,0.9639,0.9849,1.017,1.0149,0.918,0.9163,0.9273,0.8948,0.9035,0.9231,0.9139,0.7842,0.701,0.7996,0.8905,1.0129,1.1904,1.2292,1.2457,1.2332,1.2501,1.2576,1.2776,1.2821,1.3089,1.3411,1.3451,1.3756,1.4211,1.438,1.4624,1.4984,1.4997,1.5113,1.5357,1.5418,1.5479,1.5547,1.5608,1.5642,1.5642,1.5723,1.5811,1.5893,1.5893,1.5893,1.5893,1.5893,1.5893,1.5893,1.5893,1.5934,1.5967,1.5818,1.5818,1.5893,-0.3447,-0.3975,-0.4169,-0.3035,-0.1289,0.0,0.0,0.0,0.0,0.0,0.0,0.0,0.0,0.0,0.0,0.0,0.2169,0.5377,0.9508,0.994,1.0012,1.0046,1.0256,1.048,1.0717,1.0968,1.1199,1.1389,1.1545,1.1619,1.1619,1.1619,1.1599,1.1552,1.1443,1.1369,1.1314,1.1056,1.0948,1.0934,1.0778,1.0717,1.0717,1.0717,1.0697,1.0629,1.0419,1.027,1.0175,1.0209,1.0168,1.0127,1.0195,1.0093,1.0039,1.0487,1.0466,1.0351,1.0588,1.0453,1.0263,1.0371,1.0767,1.1008,1.0725,1.0946,1.1321,1.1281,1.1484,1.166,1.166,1.1681,1.0712,0.7879,0.8411,0.9843,1.1904,1.2498,1.2718,1.2623,1.2895,1.2996,1.2773,1.2949,1.3268,1.3715,1.3885,1.4163,1.4611,1.478,1.4997,1.5296,1.5309,1.5411,1.5635,1.5676,1.5696,1.5696,1.5737,1.5764,1.5764,1.5866,1.5974,1.6083,1.6083,1.6083,1.6083,1.6083,1.6083,1.6083,1.6083,1.6083,1.6069,1.5954,1.5988,1.6083,-0.208,-0.3265,-0.4455,-0.4455,-0.1964,0.0,0.0,0.0,0.0,0.0,0.0,0.0,0.0,0.0,0.0,0.0,0.0092,0.2862,0.9399,0.9852,0.9917,1.0046,1.0059,1.027,1.0711,1.0873,1.1097,1.1389,1.1545,1.1619,1.1619,1.1619,1.1538,1.1396,1.1396,1.1307,1.1158,1.1009,1.0948,1.0934,1.0778,1.0717,1.0717,1.0717,1.0629,1.05,1.0487,1.048,1.0432,1.0154,1.0154,1.0249,1.01,1.0154,1.0351,1.0806,1.0928,1.086,1.0575,1.0595,1.0704,1.0704,1.0928,1.1151,1.1151,1.1274,1.1389,1.1396,1.1511,1.1613,1.1613,1.1755,1.187,1.1724,1.1844,1.2196,1.2656,1.2677,1.261,1.2915,1.3207,1.3383,1.3376,1.3383,1.3573,1.4021,1.4197,1.4482,1.4936,1.5092,1.5309,1.5615,1.5628,1.5628,1.5642,1.5778,1.5845,1.5845,1.5995,1.6069,1.6069,1.6076,1.6076,1.6083,1.6083,1.6083,1.6083,1.6083,1.6083,1.6083,1.6083,1.6083,1.6083,1.6076,1.6076,1.6083,-0.2785,-0.3827,-0.4524,-0.4524,-0.2023,0.0,0.0,0.0,0.0,0.0,0.0,0.0,0.0,0.0,0.0,0.0,0.0,0.0976,0.3117,0.7432,0.9766,0.9895,0.9951,1.012,1.027,1.0616,1.0846,1.0948,1.1192,1.1314,1.1314,1.1314,1.1287,1.1233,1.1138,1.107,1.1009,1.086,1.0799,1.0792,1.0744,1.0717,1.0731,1.0833,1.0656,1.0337,0.0,1.0134,1.0046,1.0053,1.0019,1.0005,1.0154,1.01,1.0046,1.0399,1.0717,1.0968,1.1063,1.105,1.1063,1.1267,1.1463,1.1606,1.1606,1.1728,1.1837,1.1837,1.1959,1.2094,1.2189,1.2176,1.2182,1.2277,1.2332,1.24,1.2508,1.2766,1.3024,1.3227,1.3431,1.3627,1.3824,1.3756,0.0,1.4333,1.4509,1.4787,1.5235,1.5404,1.5574,1.5778,1.5784,1.5832,1.5934,1.5981,1.6001,1.6008,1.6056,1.6083,1.6083,1.6083,1.6083,1.6083,1.6083,1.6083,1.6083,1.6083,1.6083,1.6083,1.6083,1.6083,1.6083,1.6083,1.6083,1.6083,-0.1999,-0.2617,-0.2871,-0.2871,-0.1303,0.0,0.0,0.0,0.0,0.0,0.0,0.0,0.0,0.0,0.0,0.0,0.0,0.0,0.0,0.3956,0.7387,0.971,0.9717,0.9754,0.9964,1.0202,1.0453,1.0717,1.0914,1.1084,1.1246,1.1192,1.1138,1.1084,1.0989,1.0921,1.086,1.0765,1.0812,1.0941,1.0724,1.0738,1.086,1.069,1.0412,0.0,0.9822,0.9666,0.9591,0.9639,0.9659,0.97,0.9897,1.0005,1.0114,1.0365,1.0717,1.1104,1.145,1.1436,1.1396,1.1701,1.1843,1.1911,1.1911,1.2033,1.2142,1.2142,1.2223,1.2332,1.2474,1.2427,1.2467,1.2773,1.2868,1.2942,1.3051,1.3308,1.3512,1.3553,1.3695,1.3885,1.4129,1.4156,1.4306,1.4652,1.4862,1.5153,1.5547,1.5662,1.5784,1.5934,1.5934,1.5981,1.6083,1.6083,1.6083,1.6083,1.6083,1.6083,1.6083,1.6083,1.6083,1.6083,1.6137,1.6164,1.6171,1.6218,1.6239,1.6239,1.6239,1.6239,1.6239,1.6239,1.6239,1.6218,0.0,0.0,0.0,0.0,0.0,0.0,0.0,0.0,0.0,0.0,0.0,0.0,0.0,0.0,0.0,0.0,0.0,0.0,0.0,0.0,0.2808,0.901,0.9252,0.9339,0.9774,0.9673,0.9958,1.0663,1.0677,1.09,1.1321,1.1179,1.1043,1.0914,1.0914,1.0833,1.0697,1.0697,1.0941,1.1274,1.0697,1.0717,1.1016,1.0317,0.9944,0.9741,0.9313,0.9157,0.9123,0.8994,0.9164,0.9442,0.9449,0.9944,1.0555,1.0711,1.0962,1.1294,1.1728,1.1755,1.1735,1.2013,1.2088,1.2094,1.2094,1.2216,1.2325,1.2318,1.2318,1.2366,1.2501,1.2522,1.2718,1.3295,1.3519,1.3715,1.4,1.4048,1.4014,1.3878,1.3994,1.415,1.4319,1.4604,1.4841,1.4991,0.0,1.5547,1.5839,1.5859,1.5934,1.6076,1.6083,1.6083,1.6083,1.6083,1.6083,1.6083,1.6083,1.6083,1.6096,1.6096,1.6096,1.611,1.6259,1.632,1.6334,1.6469,1.6524,1.6524,1.6524,1.6524,1.6524,1.6524,1.6524,1.6463,0.0,0.0,0.0,0.0,0.0,0.0,0.0,0.0,0.0,0.0,0.0,0.0,0.0,0.0,0.0,0.0,0.0,0.0,0.0,0.0,0.0702,0.2435,0.692,0.9314,0.9109,0.9399,0.97,0.9897,1.0114,1.0276,1.0392,1.0466,1.0487,1.0453,1.0453,1.0432,1.0392,1.0392,1.0392,1.0378,1.0222,1.0161,1.0154,1.008,0.9815,0.9476,0.9361,0.9184,0.9008,0.9076,0.9591,1.0229,1.0344,1.0663,1.1023,1.1179,1.143,1.1708,1.1938,1.2135,1.2298,1.2372,1.2474,1.2562,1.2562,1.2678,1.2759,1.2644,1.2712,1.28,1.284,1.2847,1.2929,1.3186,1.3356,1.3485,1.3559,1.3763,1.3966,1.4163,1.4217,1.4387,1.4767,1.5065,1.5303,0.0,1.554,1.5662,1.5845,1.5961,1.6042,1.6083,1.6083,1.6083,1.6083,1.6083,1.6083,1.6083,1.6083,1.6144,1.6252,1.6252,1.6307,1.6408,1.6449,1.6469,1.6469,1.651,1.6524,1.6524,1.6524,1.6524,1.6524,1.6524,1.6524,1.649,0.0,0.0,0.0,0.0,0.0,0.0,0.0,0.0,0.0,0.0,0.0,0.0,0.0,0.0,0.0,0.0,0.0,0.0,0.0,0.0,0.0,0.0,0.3445,0.6396,0.8689,0.89,0.8994,0.9313,0.9347,0.953,0.9856,0.9808,0.9822,0.989,0.9958,0.9985,0.9992,1.0053,1.0107,0.0,0.0,0.9781,0.9795,0.9551,0.9306,0.9076,0.9008,0.9049,0.9164,0.9374,0.9869,1.0426,1.0575,1.0867,1.1219,1.1504,1.1748,1.1979,1.2196,1.2372,1.2515,1.2583,1.2664,1.2732,1.2732,1.28,1.2813,1.2664,1.2698,1.2759,1.2759,1.2922,1.3146,1.3417,1.3702,1.3912,1.398,1.419,1.4353,1.4387,1.4448,1.4645,1.5025,1.5276,1.5499,1.5716,1.5798,1.5866,1.5947,1.6035,1.6083,1.6083,1.6083,1.6083,1.6083,1.6083,1.6083,1.6083,1.6151,1.6225,1.6313,1.6374,1.6442,1.6524,0.0,1.6619,1.6625,1.6693,1.672,1.672,1.672,1.672,1.672,1.672,1.672,1.6714,0.0,0.0,0.0,0.0,0.0,0.0,0.0,0.0,0.0,0.0,0.0,0.0,0.0,0.0,0.0,0.0,0.0,0.0,0.0,0.0,0.0,0.0,0.0,0.2447,0.7766,0.7889,0.8261,0.8791,0.8567,0.8791,0.9429,0.9198,0.9164,0.93,0.9456,0.9523,0.953,0.9652,0.9836,0.9998,0.9496,0.9435,0.9571,0.0,0.8696,0.8696,0.8581,0.892,0.9462,0.9774,1.0114,1.0426,1.0588,1.0948,1.1389,1.1803,1.2013,1.2176,1.2433,1.2515,1.2562,1.2698,1.2759,1.2786,1.2766,1.2745,1.2678,1.2508,1.2461,1.244,1.244,1.2813,1.3261,1.3709,1.4143,1.4489,1.4679,1.4828,1.4828,1.4597,1.4692,1.4896,1.5215,1.5364,1.5567,1.5859,1.6008,1.6083,1.6083,1.6083,1.6083,1.6083,1.6083,1.6083,1.6083,1.6103,1.611,1.611,1.6266,1.6347,1.6374,1.6497,1.6564,1.6592,0.0,0.0,1.6788,1.6924,1.6978,1.6978,1.6978,1.6992,1.7012,1.7012,1.7019,1.7039,0.0,0.0,0.0,0.0,0.0,0.0,0.0,0.0,0.0,0.0,0.0,0.0,0.0,0.0,0.0,0.0,0.0,0.0,0.0,0.0,0.0,0.0,0.0,0.1274,0.4018,0.6463,0.7798,0.8004,0.8208,0.8377,0.8506,0.8696,0.8798,0.8832,0.8988,0.9055,0.9055,0.9083,0.8974,0.8798,0.8818,0.8784,0.8703,0.8567,0.0,0.0,0.8825,0.9164,0.9632,1.0059,1.0561,1.1056,1.1335,1.1735,1.2135,1.2332,1.2406,1.2433,1.2488,1.2596,1.2698,1.2725,1.2915,1.3064,1.2949,1.282,1.2651,1.2379,1.223,1.2135,1.2135,1.2508,1.2956,1.3403,1.3749,1.4095,1.4496,1.4577,1.4665,1.4869,1.4916,1.5099,1.552,1.5588,1.5723,1.6022,1.6069,1.6083,1.6083,1.6083,1.6083,1.6083,1.6083,1.6083,1.6083,1.6205,1.6273,1.6273,1.6415,1.6551,1.6673,1.67,1.6781,1.6904,0.0,0.0,1.6944,1.6971,1.6978,1.6978,1.6978,1.7053,1.7154,1.7154,1.7236,1.7344,0.0,0.0,0.0,0.0,0.0,0.0,0.0,0.0,0.0,0.0,0.0,0.0,0.0,0.0,0.0,0.0,0.0,0.0,0.0,0.0,0.0,0.0,0.0,0.1032,0.3332,0.5896,0.7362,0.7584,0.0,0.7767,0.7923,0.8065,0.8174,0.8255,0.8486,0.8587,0.8594,0.8669,0.8526,0.8269,0.8418,0.8391,0.8255,0.0,0.0,0.0,0.8764,0.9259,0.9869,1.0086,1.0711,1.1436,1.166,1.1932,1.2216,1.2433,1.2501,1.2522,1.2596,1.2671,1.2766,1.2922,1.3071,1.3112,1.2895,1.2725,1.2481,1.2033,1.1938,1.1898,1.1742,1.2271,1.2827,1.3125,1.3614,1.4116,1.457,1.4699,1.4835,1.5059,1.5079,1.5228,1.5601,1.5642,1.5764,1.6056,1.6083,1.6083,1.6083,1.6083,1.6083,1.6083,1.6083,1.6123,1.6198,1.6273,1.6347,1.6422,1.6571,1.668,1.6754,1.6836,1.691,1.6978,1.6978,0.0,1.6978,1.6978,1.6978,1.6985,1.706,1.7134,1.7202,1.7283,1.7358,1.7419,0.0,0.0,0.0,0.0,0.0,0.0,0.0,0.0,0.0,0.0,0.0,0.0,0.0,0.0,0.0,0.0,0.0,0.0,0.0,0.0,0.0,0.0,0.0,0.114,0.3575,0.0,0.0,0.7278,0.7183,0.0,0.0,0.0,0.0,0.0,0.8085,0.8221,0.8228,0.8343,0.8214,0.0,0.0,0.8126,0.7997,0.0,0.0,0.0,0.0,0.9273,0.9978,1.0141,1.0724,1.1436,1.1775,1.1986,1.2162,1.2427,1.2501,1.2535,1.2684,1.2752,1.284,1.3105,1.32,1.3132,1.2807,1.2562,1.225,1.1687,1.1606,1.1599,1.1463,1.2067,1.2698,1.3044,1.362,1.4211,1.476,1.4943,1.5072,1.5215,1.5228,1.5337,1.5615,1.5642,1.5764,1.6056,1.611,0.0,1.613,1.613,1.6144,1.6178,1.6178,1.6232,1.6354,1.6388,1.6463,1.6571,1.6727,1.6802,1.6802,1.6924,1.6978,1.6978,1.6978,0.0,0.0,1.7026,1.7046,1.7087,1.7195,1.7263,1.7304,1.7426,1.7487,1.7514,0.0,0.0,0.0,0.0,0.0,0.0,0.0,0.0,0.0,0.0,0.0,0.0,0.0,0.0,0.0,0.0,0.0,0.0,0.0,0.0,0.0,0.0,0.0,0.0,0.0,0.0,0.0,0.6966,0.7082,0.0,0.0,0.0,0.0,0.0,0.0,0.8058,0.8058,0.8072,0.0,0.0,0.0,0.0,0.0,0.0,0.0,0.0,0.0,0.9232,0.9754,1.0432,1.0629,1.0765,1.1735,1.2149,1.2298,1.2454,1.2501,1.2535,1.2684,1.2834,1.2976,1.3132,1.3275,1.3268,1.2827,1.2406,1.1972,1.1504,1.1206,1.1145,1.1525,1.1884,1.244,1.341,1.3736,1.4163,1.5025,1.5153,1.5221,1.5371,1.5391,1.5452,1.5622,1.5642,1.5764,1.6056,0.0,0.0,1.6286,1.6286,1.6347,1.6476,1.6483,1.649,1.6503,1.6639,1.6714,1.6727,1.6883,1.6958,1.6958,1.6971,1.6978,1.6978,1.6978,0.0,0.0,1.7175,1.7256,1.7378,1.7392,1.7487,1.7609,1.7623,1.7704,1.7826,0.0,0.0,0.0,0.0,0.0,0.0,0.0,0.0,0.0,0.0,0.0,0.0,0.0,0.0,0.0,0.0,0.0,0.0,0.0,0.0,0.0,0.0,0.0,0.0,0.0,0.0,0.7077,0.7032,0.717,0.0,0.0,0.0,0.0,0.0,0.0,0.7991,0.7902,0.7902,0.0,0.0,0.0,0.0,0.0,0.0,0.0,0.0,0.0,0.0,0.9917,1.0215,1.0575,1.0968,1.1389,1.1809,1.2196,1.2433,1.263,1.2793,1.2854,1.2976,1.3125,1.3275,1.3288,1.3146,1.2698,1.2244,1.1796,1.1348,1.1158,1.1158,1.143,1.1721,1.221,1.3085,1.3349,1.3722,1.4536,1.4808,1.5004,1.5248,1.5357,1.5506,1.5744,1.5771,1.5893,1.6198,0.0,0.0,1.6558,1.649,1.6463,1.6517,1.6524,1.6564,1.6659,1.672,1.6795,1.689,1.6951,1.6978,1.6978,1.6978,1.7026,1.7107,1.7107,0.0,0.0,1.7331,1.7365,1.7433,1.7521,1.7595,1.7663,1.7738,1.7812,1.786,0.0,0.0,0.0,0.0,0.0,0.0,0.0,0.0,0.0,0.0,0.0,0.0,0.0,0.0,0.0,0.0,0.0,0.0,0.0,0.0,0.0,0.0,0.0,0.0,0.0,0.0,0.6427,0.7176,0.7416,0.738,0.0,0.0,0.7801,0.7672,0.0,0.0,0.0,0.0,0.0,0.0,0.0,0.0,0.0,0.0,0.0,0.0,0.0,0.0,0.0,0.0,0.0,1.0934,1.1111,1.1518,1.2013,1.244,1.2725,1.2922,1.3057,1.3132,1.3207,1.3363,1.3288,1.3057,1.2603,1.2155,1.1701,1.1253,1.1131,1.1158,1.1355,1.1633,1.2081,1.284,1.3119,1.3519,1.4319,1.4652,1.4916,1.5215,1.5384,1.556,1.5771,1.5913,1.6056,0.0,0.0,0.0,0.0,1.6693,1.6659,1.6659,1.6659,1.6707,1.6815,1.6815,1.687,1.6978,1.6978,1.6978,1.6985,1.7026,1.71,1.7195,0.0,0.0,0.0,1.7487,1.7514,1.7561,1.767,1.7717,1.7717,1.7826,1.786,1.786,0.0,0.0,0.0,0.0,0.0,0.0,0.0,0.0,0.0,0.0,0.0,0.0,0.0,0.0,0.0,0.0,0.0,0.0,0.0,0.0,0.0,0.0,0.0,0.0,0.0,0.0,0.4851,0.74,0.7536,0.7597,0.7604,0.7896,0.7957,0.7814,0.0,0.0,0.0,0.0,0.0,0.0,0.0,0.0,0.8689,0.0,0.0,0.0,0.0,0.0,0.0,0.0,0.0,0.0,0.0,1.1375,1.1769,1.2508,1.2732,1.2827,1.3275,1.3288,1.3207,1.3363,1.3288,1.3057,1.2603,1.2155,1.1701,1.1253,1.105,1.1043,1.1335,1.1633,1.2081,1.284,1.3207,1.3709,1.4611,1.4869,1.5079,1.5371,1.5547,1.5635,1.5642,1.6042,1.6246,0.0,0.0,0.0,0.0,1.6897,1.6978,1.6978,1.6978,1.6978,1.6978,1.6978,1.6978,1.6978,1.6978,1.6978,1.6985,1.7127,1.7188,0.0,0.0,0.0,0.0,1.765,1.7738,1.786,1.786,1.786,1.786,1.786,1.786,1.786,0.0,0.0,0.0,0.0,0.0,0.0,0.0,0.0,0.0,0.0,0.0,0.0,0.0,0.0,0.0,0.0,0.0,0.0,0.0,0.0,0.0,0.0,0.0,0.0,0.0,0.0,0.5489,0.8153,0.8202,0.8201,0.8208,0.8296,0.8262,0.8119,0.8065,0.7984,0.0,0.0,0.0,0.0,0.0,0.8201,0.8574,0.0,0.0,0.0,0.0,0.0,0.0,0.0,0.0,0.0,0.0,0.0,0.0,1.1925,1.2481,1.2895,1.2935,1.3057,1.3159,1.3112,1.2983,1.2779,1.2433,1.2006,1.1586,1.1233,1.1124,1.1158,1.1355,1.1552,1.2033,1.3091,1.3254,1.3559,1.4455,1.4889,1.5153,1.5242,1.5567,1.5784,1.5784,1.5825,1.5961,0.0,0.0,0.0,0.0,1.6951,1.6978,1.6978,1.6978,1.6978,1.6978,1.6978,1.6978,1.6978,1.6978,1.7032,1.7127,1.7168,0.0,0.0,0.0,0.0,0.0,1.7792,1.7826,1.786,1.786,1.786,1.786,1.786,1.786,1.786,0.0,0.0,0.0,0.0,0.0,0.0,0.0,0.0,0.0,0.0,0.0,0.0,0.0,0.0,0.0,0.0,0.0,0.0,0.0,0.0,0.0,0.0,0.0,0.0,0.0,0.1803,0.484,0.9015,0.8924,0.8855,0.8737,0.8852,0.871,0.8343,0.8248,0.8092,0.0,0.0,0.0,0.0,0.8024,0.8289,0.8676,0.0,0.0,0.0,0.0,0.0,0.0,0.0,0.0,0.0,0.0,0.0,0.0,0.0,1.1952,1.2508,1.2752,1.2949,1.3071,1.2983,1.28,1.2569,1.2271,1.1857,1.145,1.1145,1.1124,1.1192,1.1287,1.1525,1.1979,1.284,1.2996,1.3342,1.4299,1.4672,1.495,1.5235,1.5615,1.5832,1.5778,1.5893,0.0,0.0,0.0,0.0,0.0,1.6978,1.6951,1.6897,1.6951,1.6978,1.6978,1.6978,1.6978,1.6978,1.7032,1.7107,1.7195,1.7311,0.0,0.0,0.0,0.0,0.0,1.786,1.786,1.786,1.786,1.786,1.786,1.786,1.786,1.786,0.0,0.0,0.0,0.0,0.0,0.0,0.0,0.0,0.0,0.0,0.0,0.0,0.0,0.0,0.0,0.0,0.0,0.0,0.0,0.0,0.0,0.0,0.0,0.0,0.0,0.0341,0.3392,0.9754,0.9615,0.9404,0.9225,0.9496,0.9232,0.8526,0.8506,0.833,0.0,0.0,0.0,0.0,0.8126,0.8411,0.0,0.0,0.0,0.0,0.0,0.0,0.0,0.0,0.0,0.0,0.0,0.0,0.0,0.0,0.0,0.0,0.0,1.2861,1.2881,1.2868,1.2651,1.2366,1.2081,1.1681,0.0,1.1009,1.1056,1.1158,1.1192,1.1538,1.1938,1.2311,1.261,1.3159,1.4204,1.4373,1.4665,1.5391,1.5689,1.5798,1.5696,1.6164,0.0,0.0,0.0,0.0,0.0,1.6978,1.6917,1.6768,1.6904,1.6978,1.6965,1.6978,1.6985,1.6998,1.7127,1.7202,1.7236,1.7521,0.0,0.0,0.0,0.0,0.0,1.786,1.786,1.786,1.786,1.786,1.786,1.786,1.786,1.786,0.0,0.0,0.0,0.0,0.0,0.0,0.0,0.0,0.0,0.0,0.0,0.0,0.0,0.0,0.0,0.0,0.0,0.0,0.0,0.0,0.0,0.0,0.0,0.0,0.0,0.4125,0.5326,0.9075,0.9469,0.9676,0.9836,0.9795,0.9496,0.8988,0.8757,0.8425,0.0,0.0,0.0,0.0,0.835,0.8533,0.0,0.0,0.0,0.0,0.9381,0.9578,0.0,0.0,0.0,0.0,0.0,0.0,0.0,0.0,1.0839,1.1199,1.164,0.0,1.2074,1.1959,1.1877,1.1775,0.0,1.1375,1.1165,1.0989,1.0975,1.1104,1.145,1.1599,1.1993,1.2976,1.3295,1.3743,1.4679,1.5106,1.552,1.6035,1.5859,1.5811,1.6123,1.6062,0.0,0.0,0.0,0.0,0.0,1.6978,1.6965,1.6931,1.6965,1.6924,1.6802,1.6924,1.7032,1.7141,1.7175,1.7317,1.7541,1.7616,0.0,0.0,0.0,0.0,1.786,1.786,1.786,1.786,1.786,1.786,1.786,1.786,1.786,1.786,0.0,0.0,0.0,0.0,0.0,0.0,0.0,0.0,0.0,0.0,0.0,0.0,0.0,0.0,0.0,0.0,0.0,0.0,0.0,0.0,0.0,0.0,0.0,0.0,0.6956,0.6155,0.6778,0.9054,0.9495,0.9868,1.0154,1.0073,0.9754,0.9239,0.873,0.8336,0.0,0.0,0.0,0.837,0.8377,0.0,0.0,0.0,0.0,0.0,0.93,0.9483,0.0,1.0188,1.0365,1.0378,0.0,0.0,0.0,0.0,1.05,1.0772,1.0934,1.145,1.1918,1.1843,1.1769,1.1681,1.1531,1.1274,1.1023,1.0873,1.0955,1.1145,1.1457,1.185,1.2338,1.299,1.3566,1.4224,1.5059,1.5622,1.6015,1.6185,1.611,1.6083,0.0,0.0,0.0,0.0,0.0,0.0,0.0,1.6978,1.6917,1.6775,1.6836,1.687,1.6856,1.6937,1.7053,1.7195,1.7263,1.7419,1.765,1.7717,1.7792,0.0,0.0,0.0,1.786,1.786,1.786,1.786,1.786,1.786,1.786,1.786,1.786,1.786,0.0,0.0,0.0,0.0,0.0,0.0,0.0,0.0,0.0,0.0,0.0,0.0,0.0,0.0,0.0,0.0,0.0,0.0,0.0,0.0,0.0,0.0,0.0,0.2117,0.6692,0.7025,0.7738,0.9182,0.9701,1.0051,1.0317,1.0385,1.0046,0.9354,0.8648,0.8228,0.0,0.0,0.8092,0.8472,0.835,0.0,0.0,0.0,0.0,0.0,0.0,0.0,0.0,1.0344,1.0561,1.0507,1.0588,0.0,0.0,0.0,0.0,0.0,1.0561,1.1314,1.2033,1.1918,1.183,1.1728,1.1586,1.1253,1.0941,1.0812,1.1009,1.1287,1.1579,1.223,1.2793,1.2969,1.379,1.4631,1.5282,1.5872,1.6212,1.6123,1.6313,0.0,0.0,0.0,0.0,0.0,0.0,0.0,0.0,1.6978,1.6863,1.6598,1.6714,1.6849,1.6978,1.6978,1.7066,1.7229,1.7385,1.7534,1.7684,1.7812,1.786,0.0,0.0,0.0,1.786,1.786,1.786,1.786,1.786,1.786,1.786,1.786,1.786,1.786,0.0,0.0,0.0,0.0,0.0,0.0,0.0,0.0,0.0,0.0,0.0,0.0,0.0,0.0,0.0,0.0,0.0,0.0,0.0,0.0,0.0,0.0,0.0,0.0,0.5204,0.6453,0.7713,0.894,0.9891,1.0406,1.0466,1.0846,1.0439,0.9361,0.8866,0.8418,0.8038,0.8018,0.8187,0.8479,0.8459,0.0,0.0,0.0,0.0,0.0,0.0,0.0,0.0,1.0019,1.0304,1.0453,1.0222,0.0,0.0,0.0,0.0,0.0,1.0887,1.1552,1.1911,1.128,1.1287,1.1416,1.1267,1.1179,1.1124,1.1097,1.1233,1.1633,1.2549,1.2725,1.3064,1.4075,1.459,1.495,1.5181,1.5628,1.6008,1.6246,0.0,0.0,0.0,0.0,0.0,0.0,0.0,0.0,0.0,1.6978,1.6958,1.691,1.6931,1.6958,1.6978,1.6978,1.7114,1.7385,1.7541,1.7684,1.7826,1.7846,1.786,0.0,0.0,1.786,1.786,1.786,1.786,1.786,1.786,1.786,1.786,1.786,1.786,1.786,0.0,0.0,0.0,0.0,0.0,0.0,0.0,0.0,0.0,0.0,0.0,0.0,0.0,0.0,0.0,0.0,0.0,0.0,0.0,0.0,0.0,0.0,0.0,0.0,0.4869,0.7576,0.9151,0.9415,1.028,1.0816,1.0975,1.0778,1.0175,0.9239,0.8784,0.8384,0.8038,0.8038,0.8214,0.8479,0.0,0.0,0.0,0.0,0.0,0.0,0.0,0.0,0.0,0.0,1.0249,1.0453,1.0243,0.0,0.0,0.0,0.0,0.0,1.0568,1.1179,1.1674,1.1579,1.1952,1.2359,1.2372,1.2182,1.1986,1.1904,1.2006,1.2311,1.2956,1.3349,1.3939,1.5059,1.5221,1.5289,1.5513,1.5866,1.6151,0.0,0.0,0.0,0.0,0.0,0.0,0.0,0.0,0.0,0.0,0.0,1.6978,1.6978,1.6822,1.6815,1.6978,1.6978,1.7127,1.7419,1.7575,1.7717,1.786,1.786,1.786,1.786,0.0,1.786,1.786,1.786,1.786,1.786,1.786,1.786,1.786,1.786,1.786,1.786,0.0,0.0,0.0,0.0,0.0,0.0,0.0,0.0,0.0,0.0,0.0,0.0,0.0,0.0,0.0,0.0,0.0,0.0,0.0,0.0,0.0,0.0,0.0,0.0,0.0,0.9046,1.0779,0.9978,1.089,1.1382,1.1375,1.0663,0.991,0.9137,0.8723,0.835,0.8038,0.8079,0.8241,0.8486,0.0,0.0,0.0,0.0,0.0,0.0,0.0,0.0,0.0,0.0,0.0,0.0,0.0,0.0,0.0,1.008,1.0039,1.0168,1.046,1.1009,1.1619,1.2142,1.2623,1.3044,1.3336,1.3051,1.2725,1.2712,1.2861,1.3091,1.3424,1.4102,1.4862,1.5628,1.556,1.5493,1.5716,1.6008,1.6205,0.0,0.0,0.0,0.0,0.0,0.0,0.0,0.0,0.0,0.0,0.0,1.7046,1.708,1.6788,1.6775,1.708,1.7046,1.7161,1.7419,1.7609,1.7758,1.786,1.786,1.786,1.786,1.786,1.786,1.786,1.786,1.786,1.786,1.786,1.786,1.786,1.786,1.786,1.786,0.0,0.0,0.0,0.0,0.0,0.0,0.0,0.0,0.0,0.0,0.0,0.0,0.0,0.0,0.0,0.0,0.0,0.0,0.0,0.0,0.0,0.0,0.0,0.0,0.0,0.9953,1.1717,1.0446,1.1769,1.21,1.1375,1.0765,1.0005,0.9137,0.8832,0.8452,0.8052,0.8194,0.8343,0.8492,0.8635,0.0,0.0,0.0,0.0,0.0,0.0,0.0,0.0,0.0,0.0,0.0,0.0,0.0,1.0487,1.0453,1.0358,1.0419,1.1118,1.1552,1.1979,1.2712,1.2623,1.2535,1.3241,1.3051,1.2847,1.3254,1.3559,1.3892,1.4333,1.5031,1.552,1.5452,1.5425,1.5418,1.5438,0.0,0.0,0.0,0.0,0.0,0.0,0.0,0.0,0.0,0.0,0.0,0.0,0.0,0.0,1.7385,1.71,1.7087,1.7385,1.7249,1.7256,1.7426,1.7704,1.7846,1.786,1.786,1.786,1.786,1.786,1.786,1.786,1.786,1.786,1.786,1.786,1.786,1.786,1.786,1.786,1.786,0.0,0.0,0.0,0.0,0.0,0.0,0.0,0.0,0.0,0.0,0.0,0.0,0.0,0.0,0.0,0.0,0.0,0.0,0.0,0.0,0.0,0.0,0.0,0.2916,0.9076,1.1073,1.1698,1.1214,1.1722,1.1823,1.1233,1.0446,0.9747,0.9137,0.8743,0.8472,0.8316,0.8377,0.854,0.8764,0.8723,0.8804,0.0,0.0,0.0,0.0,0.0,0.0,0.0,0.0,0.9836,1.0168,1.0039,1.029,1.0595,1.0412,1.0324,1.0385,1.0846,1.1396,1.1965,1.2535,1.2901,1.3295,1.3946,1.396,1.3939,1.4306,1.4468,1.4624,1.4882,1.5391,1.5696,1.5452,1.5411,1.5411,1.5411,0.0,0.0,0.0,0.0,0.0,0.0,0.0,0.0,0.0,0.0,0.0,0.0,0.0,0.0,1.7555,1.7182,1.7121,1.7419,1.727,1.727,1.7426,1.7724,1.786,1.786,1.786,1.786,1.786,1.786,1.786,1.786,1.786,1.786,1.786,1.786,1.786,1.786,1.786,1.786,1.786,0.0,0.0,0.0,0.0,0.0,0.0,0.0,0.0,0.0,0.0,0.0,0.0,0.0,0.0,0.0,0.0,0.0,0.0,0.0,0.0,0.0,0.0,0.0,0.304,0.9609,0.9777,1.0373,1.1531,1.164,1.1436,1.0934,1.0175,0.9632,0.9279,0.8825,0.8676,0.8764,0.8669,0.875,0.8927,0.8825,0.8845,0.0,0.0,0.0,0.0,0.0,0.0,0.0,0.0,0.9754,1.012,1.0053,1.0351,1.0677,1.048,1.0622,1.0873,1.1029,1.1545,1.2162,1.2664,1.3173,1.3736,1.4428,1.455,1.4624,1.5025,1.5113,1.5181,1.5425,1.556,1.5608,1.5499,1.5404,1.5357,0.0,0.0,0.0,0.0,0.0,0.0,0.0,0.0,0.0,0.0,0.0,0.0,0.0,0.0,0.0,0.0,1.7283,1.7216,1.7555,1.7317,1.7297,1.7494,1.7738,1.786,1.786,1.786,1.786,1.786,1.786,1.786,1.786,1.786,1.786,1.786,1.786,1.786,1.786,1.786,1.786,1.786,0.0,0.0,0.0,0.0,0.0,0.0,0.0,0.0,0.0,0.0,0.0,0.0,0.0,0.0,0.0,0.0,0.0,0.0,0.0,0.0,0.0,0.0,0.0,0.1862,0.575,0.5859,0.7769,1.1585,1.1469,1.1077,1.048,1.0025,0.9741,0.0,0.0,0.0,0.9361,0.9069,0.894,0.894,0.894,0.894,0.894,0.0,0.0,0.0,0.0,0.0,0.0,0.0,0.97,0.9903,1.0344,1.0595,1.0724,1.0717,1.1355,1.202,1.1864,1.2155,1.2651,1.3247,1.3403,1.3648,1.4536,1.4624,1.4685,1.5289,1.5418,1.5554,1.5995,1.5588,1.5282,1.5588,1.5377,1.5242,0.0,0.0,0.0,0.0,0.0,0.0,0.0,0.0,0.0,0.0,0.0,0.0,0.0,0.0,0.0,0.0,1.7426,1.7405,1.7846,1.7412,1.7344,1.765,1.7792,1.786,1.786,1.786,1.786,1.786,1.786,1.786,1.786,1.786,1.786,1.786,1.786,1.786,1.786,1.786,1.786,1.786,0.0,0.0,0.0,0.0,0.0,0.0,0.0,0.0,0.0,0.0,0.0,0.0,0.0,0.0,0.0,0.0,0.0,0.0,0.0,0.0,0.0,0.0,0.0,0.1466,0.4463,0.7225,0.9516,1.1323,1.1207,1.0772,1.0175,0.972,0.0,0.9442,0.0,0.0,0.9211,0.913,0.915,0.9239,0.913,0.915,0.9239,0.0,0.0,0.0,0.0,0.0,0.0,0.0,0.0,0.0,1.0141,1.0575,1.0968,1.0649,1.0968,1.1396,1.1253,1.1918,1.2705,1.2881,1.3722,1.4577,1.4841,1.4869,1.5004,1.5601,1.5811,1.5859,1.5784,1.5622,1.5466,1.5337,1.533,0.0,0.0,0.0,0.0,0.0,0.0,0.0,0.0,0.0,0.0,0.0,0.0,0.0,0.0,0.0,0.0,0.0,1.748,1.7365,1.7392,1.7256,1.729,1.7494,1.7629,1.7717,1.7717,1.7812,1.786,1.786,1.786,1.786,1.786,1.786,1.7812,1.7717,1.7826,1.786,1.786,1.786,1.786,1.786,0.0,0.0,0.0,0.0,0.0,0.0,0.0,0.0,0.0,0.0,0.0,0.0,0.0,0.0,0.0,0.0,0.0,0.0,0.0,0.0,0.0,0.0,0.2544,0.3919,0.4013,0.779,0.9954,1.0276,1.0371,1.0202,0.9781,0.9686,0.0,0.9822,0.0,0.9829,0.968,0.9557,0.9496,0.9462,0.9367,0.9388,0.9456,0.0,0.0,0.0,0.0,0.0,0.0,0.0,0.0,0.0,1.0032,1.0399,1.0819,1.0839,1.1335,1.1925,1.2135,1.28,1.3498,1.3736,1.434,1.4957,1.5255,1.5323,1.5438,1.5859,1.5967,1.5934,1.5757,1.5628,0.0,1.5303,0.0,0.0,0.0,0.0,0.0,0.0,0.0,0.0,0.0,0.0,0.0,0.0,0.0,0.0,0.0,0.0,0.0,0.0,1.7439,1.7317,1.7283,1.7222,1.727,1.7419,1.7575,1.7616,1.7561,1.7772,1.786,1.786,1.786,1.786,1.786,1.786,1.7812,1.7738,1.7826,1.786,1.786,1.786,1.786,1.786,0.0,0.0,0.0,0.0,0.0,0.0,0.0,0.0,0.0,0.0,0.0,0.0,0.0,0.0,0.0,0.0,0.0,0.0,0.0,0.0,0.0,0.0,0.6219,0.8099,0.4535,0.784,0.9408,0.8859,0.9334,0.949,0.9354,0.0,1.0202,1.048,0.0,1.0616,1.0412,1.0114,0.9836,0.9591,0.9591,0.9605,0.9612,0.9442,0.0,0.0,0.0,0.0,0.0,0.0,0.0,0.0,1.0012,1.0175,1.0432,1.1111,1.2054,1.3024,1.3702,1.4177,1.4611,1.5201,1.5092,1.5018,1.5696,1.5866,1.5913,1.6056,1.5967,1.5866,1.5839,1.5622,1.5445,0.0,0.0,0.0,0.0,0.0,0.0,0.0,0.0,0.0,0.0,0.0,0.0,0.0,0.0,0.0,0.0,0.0,0.0,0.0,1.7338,1.7256,1.7378,1.7243,1.7256,0.0,1.7561,1.7568,1.7473,1.7738,1.786,1.786,1.786,1.786,1.7846,1.786,1.7846,1.7826,1.7846,1.786,1.7846,1.786,1.786,1.786,0.0,0.0,0.0,0.0,0.0,0.0,0.0,0.0,0.0,0.0,0.0,0.0,0.0,0.0,0.0,0.0,0.0,0.0,0.0,0.0,0.0,0.0,0.5801,0.8799,0.8246,0.8295,0.8357,0.8235,0.892,0.9178,0.0,0.0,0.0,1.0337,0.0,1.0439,0.0,0.9652,0.949,0.9429,0.9429,0.9571,0.9747,0.9483,0.9361,0.0,0.0,0.0,0.0,0.0,0.0,0.0,1.0107,1.0331,1.048,1.0636,1.143,1.2291,1.2447,1.3308,1.4278,1.476,1.5255,1.5655,1.5818,1.5947,1.6042,1.6076,1.6056,1.5961,1.573,1.5723,0.0,0.0,0.0,0.0,0.0,0.0,0.0,0.0,0.0,0.0,0.0,0.0,0.0,0.0,0.0,0.0,0.0,0.0,0.0,1.729,1.7229,1.7154,1.7073,1.7039,1.7161,0.0,1.7453,1.7575,1.7772,1.7826,1.786,1.786,1.786,1.7792,1.7704,1.7812,1.7724,1.7541,1.7772,1.7792,1.7704,1.7826,1.786,1.786,0.0,0.0,0.0,0.0,0.0,0.0,0.0,0.0,0.0,0.0,0.0,0.0,0.0,0.0,0.0,0.0,0.0,0.0,0.0,0.0,0.0,0.0,0.418,0.727,0.8668,0.8295,0.7984,0.7828,0.8289,0.8621,0.0,0.0,0.0,1.0385,0.0,1.0358,0.0,0.0,0.0,0.9503,0.9646,0.9747,0.9795,0.9578,0.9401,0.9245,0.9022,0.0,0.0,0.0,0.0,0.0,0.0,0.0,1.0378,1.0887,1.1518,1.223,1.3024,1.3749,1.4428,1.5025,1.5513,1.5872,1.5947,1.6022,1.6083,1.6083,1.6083,1.6015,1.5784,0.0,0.0,0.0,0.0,0.0,0.0,0.0,0.0,0.0,0.0,0.0,0.0,0.0,0.0,0.0,0.0,0.0,0.0,1.7209,1.7121,1.7188,1.7127,1.7053,1.6978,1.6978,1.7127,1.7419,1.7419,1.7575,1.786,1.786,1.786,1.786,1.786,1.7826,1.7758,1.7826,1.7772,1.765,1.7812,1.7812,1.7758,1.7826,1.786,1.786,0.0,0.0,0.0,0.0,0.0,0.0,0.0,0.0,0.0,0.0,0.0,0.0,0.0,0.0,0.0,0.0,0.0,0.0,0.0,0.0,0.0,0.0,0.2478,0.5226,0.7878,0.7972,0.7855,0.7638,0.778,0.816,0.0,0.0,0.0,1.0453,0.0,0.0,0.0,0.0,0.0,0.0,0.9795,0.9836,0.9727,0.9585,0.9374,0.913,0.8988,0.911,0.9347,0.9374,0.0,0.0,0.0,0.0,1.027,1.1192,1.1728,1.2325,1.3715,1.4312,1.4726,1.5459,1.5764,1.5927,1.6056,1.6083,1.6083,1.6083,1.6083,1.6042,0.0,0.0,0.0,0.0,0.0,0.0,0.0,0.0,0.0,0.0,0.0,0.0,0.0,0.0,0.0,0.0,0.0,0.0,1.7324,1.7114,1.7032,1.7154,1.7039,1.6978,1.6978,1.7005,1.7154,1.7419,1.7473,1.7623,1.786,1.786,1.786,1.786,1.786,1.786,1.786,1.786,1.7846,1.7826,1.7846,1.7846,1.7826,1.7846,1.786,1.786,0.0,0.0,0.0,0.0,0.0,0.0,0.0,0.0,0.0,0.0,0.0,0.0,0.0,0.0,0.0,0.0,0.0,0.0,0.0,0.0,0.0,0.0,0.2382,0.4956,0.761,0.7621,0.7699,0.778,0.7936,0.8316,0.0,0.0,0.0,1.031,0.0,0.0,0.0,0.0,0.0,0.0,0.9259,0.934,0.9422,0.9273,0.9191,0.913,0.8988,0.9042,0.9205,0.934,0.9578,0.0,0.0,0.0,1.0331,1.0724,1.1328,1.1938,1.2291,1.3526,1.4862,1.5486,1.5845,1.6056,1.6076,1.6083,1.6083,1.6083,1.6083,1.6076,0.0,0.0,0.0,0.0,0.0,0.0,0.0,0.0,0.0,0.0,0.0,0.0,0.0,0.0,0.0,0.0,0.0,0.0,1.7032,1.7005,1.6992,1.7012,1.6992,1.6978,1.6978,1.71,1.7249,1.7426,1.7684,1.7826,1.786,1.786,1.786,1.786,1.786,1.786,1.786,1.786,1.7792,1.7684,1.7812,1.7792,1.7684,1.7812,1.786,1.786,0.0,0.0,0.0,0.0,0.0,0.0,0.0,0.0,0.0,0.0,0.0,0.0,0.0,0.0,0.0,0.0,0.0,0.0,0.0,0.0,0.1194,0.3845,0.3748,0.4772,0.724,0.7402,0.7543,0.7692,0.7841,0.835,0.0,0.9544,0.9951,0.0,0.0,0.0,0.0,0.0,0.0,0.0,0.9123,0.9395,0.9713,0.9306,0.9361,0.9591,0.911,0.9083,0.9293,0.9361,0.9632,0.9985,1.0209,0.0,0.0,0.0,1.107,1.1674,1.2671,1.3885,1.5011,1.5608,1.592,1.6083,1.6083,1.6083,1.6083,1.6083,1.6151,0.0,0.0,0.0,0.0,0.0,0.0,0.0,0.0,0.0,0.0,0.0,0.0,0.0,0.0,0.0,0.0,0.0,0.0,1.6815,1.6971,1.6978,1.6978,1.6978,1.6978,1.6978,1.6978,1.7121,1.7311,1.7548,1.7758,1.786,1.786,1.786,1.786,1.786,1.786,1.786,1.786,1.786,1.7826,1.7772,1.7846,1.7826,1.7772,1.7846,1.786,1.786,0.0,0.0,0.0,0.0,0.0,0.0,0.0,0.0,0.0,0.0,0.0,0.0,0.0,0.0,0.0,0.0,0.0,0.0,0.0,0.0,0.213,0.6866,0.5455,0.531,0.7038,0.7289,0.7407,0.7597,0.7821,0.0,0.9442,0.9673,1.0114,0.0,1.0175,0.9917,0.0,0.0,0.0,0.0,0.9306,0.9673,1.008,0.9822,1.0025,1.0351,0.9605,0.9503,0.9693,0.9503,0.9734,1.0127,1.0243,1.0405,0.0,0.0,0.0,1.1375,1.2881,1.3831,1.459,1.5377,1.5744,1.594,1.6056,1.6083,1.6083,1.6083,1.6171,0.0,0.0,0.0,0.0,0.0,0.0,0.0,0.0,0.0,0.0,0.0,0.0,0.0,0.0,0.0,0.0,0.0,0.0,1.6856,1.6978,1.6978,1.6978,1.6978,1.6978,1.6978,1.6978,1.7161,1.7405,1.7704,1.7812,1.786,1.786,1.786,1.786,1.786,1.786,1.786,1.786,1.786,1.786,1.786,1.786,1.786,1.786,1.786,1.786,1.786,0.0,0.0,0.0,0.0,0.0,0.0,0.0,0.0,0.0,0.0,0.0,0.0,0.0,0.0,0.0,0.0,0.0,0.0,0.0,0.0,0.2085,0.692,0.7021,0.0,0.7108,0.7081,0.7299,0.7597,0.0,0.0,0.9605,1.0039,1.0636,1.1314,1.0582,1.0175,1.0012,0.0,0.0,0.0,0.0,1.0107,1.0344,1.1016,1.1382,1.1436,1.0683,1.0514,1.0541,0.0,0.9897,1.027,1.0276,1.048,1.0711,0.0,0.0,0.0,1.2067,1.2596,1.3159,1.4468,1.5126,1.5554,1.5988,1.6083,1.6083,1.6083,1.609,0.0,0.0,0.0,0.0,0.0,0.0,0.0,0.0,0.0,0.0,0.0,0.0,0.0,0.0,0.0,0.0,0.0,0.0,1.6971,1.6978,1.6978,1.6978,1.6978,1.6978,1.6978,1.6978,1.7263,1.7561,1.7846,1.786,1.786,1.786,1.786,1.786,1.786,1.786,1.786,1.786,1.786,1.786,1.786,1.786,1.786,1.786,1.786,1.786,1.786,0.0,0.0,0.0,0.0,0.0,0.0,0.0,0.0,0.0,0.0,0.0,0.0,0.0,0.0,0.0,0.0,0.0,0.0,0.0,0.0,0.0,0.4676,0.6313,0.7121,0.7061,0.7143,0.7244,0.0,0.0,0.8438,0.9327,0.9774,1.0337,1.0941,1.0575,1.0385,1.029,0.9652,0.0,0.0,0.0,1.0521,1.1036,1.1402,1.187,1.2237,1.1484,1.1002,1.0677,0.0,0.0,1.0283,1.0283,1.048,1.0717,1.0717,1.0853,1.1192,1.2054,1.2576,1.3112,1.4068,1.4794,1.5303,1.5466,1.5805,1.6083,1.6083,1.6232,0.0,0.0,0.0,0.0,0.0,0.0,0.0,0.0,0.0,0.0,0.0,0.0,0.0,0.0,0.0,0.0,0.0,0.0,0.0,1.6978,1.6978,1.6978,1.6978,1.6978,1.7073,1.7263,1.7365,1.7521,1.7717,1.7717,1.7717,1.7717,1.7717,1.7772,1.786,1.786,1.786,1.786,1.786,1.786,1.786,1.786,1.786,1.786,1.786,1.786,1.786,0.0,0.0,0.0,0.0,0.0,0.0,0.0,0.0,0.0,0.0,0.0,0.0,0.0,0.0,0.0,0.0,0.0,0.0633,0.2044,0.2152,0.2849,0.4606,0.6141,0.7059,0.7136,0.7143,0.7217,0.0,0.0,0.0,0.0,0.9591,1.0141,1.0711,1.0514,1.0507,0.0,0.0,0.0,0.968,0.0,1.1084,1.1457,1.2067,1.2535,0.0,0.0,0.0,0.0,0.0,0.0,0.0,0.0,1.0724,1.0717,1.0717,1.0894,1.1199,1.1701,1.2203,1.2773,1.3573,1.4183,1.4719,1.5221,1.5567,1.5839,1.6042,1.6279,0.0,0.0,0.0,0.0,0.0,0.0,0.0,0.0,0.0,0.0,0.0,0.0,0.0,0.0,0.0,0.0,0.0,0.0,0.0,1.6971,1.6978,1.6978,1.6978,1.6978,1.71,1.7344,1.7344,1.7419,1.7568,1.7568,1.7602,1.765,1.765,1.7704,1.7792,1.7792,1.7826,1.786,1.786,1.786,1.786,1.786,1.786,1.786,1.786,1.786,1.786,0.0,0.0,0.0,0.0,0.0,0.0,0.0,0.0,0.0,0.0,0.0,0.0,0.0,0.0,0.0,0.0,0.0163,0.1942,0.6041,0.6342,0.6458,0.6798,0.6812,0.0,0.0,0.7143,0.0,0.0,0.0,0.0,0.0,0.0,1.012,1.0683,1.0405,1.0521,1.0921,0.0,1.0616,1.0582,0.0,1.1796,1.1599,0.0,0.0,0.0,1.3064,1.3003,0.0,1.2644,0.0,0.0,0.0,1.1199,1.0717,1.0717,1.0833,1.0955,0.0,0.0,0.0,1.2915,1.3261,1.3763,1.5235,1.535,1.5323,1.5927,1.6178,0.0,0.0,0.0,0.0,0.0,0.0,0.0,0.0,0.0,0.0,0.0,0.0,0.0,0.0,0.0,0.0,0.0,0.0,1.6809,1.6965,1.6978,1.6978,1.6978,1.6978,1.7046,1.7188,1.7195,1.7263,1.7412,1.7412,1.7494,1.765,1.7629,1.765,1.765,1.765,1.7717,1.7846,1.786,1.786,1.786,1.786,1.786,1.786,1.786,1.786,1.786,0.0,0.0,0.0,0.0,0.0,0.0,0.0,0.0,0.0,0.0,0.0,0.0,0.0,0.0,0.0,0.0,0.3162,0.5659,0.6831,0.6702,0.6709,0.6963,0.7055,0.7052,0.7136,0.7143,0.7163,0.0,0.0,0.0,0.0,0.0,0.9598,1.008,1.0215,1.0351,1.0446,1.0181,0.0,1.0555,1.128,1.1959,0.0,0.0,0.0,0.0,0.0,1.3899,1.3444,0.0,1.2922,1.2135,0.0,1.1029,1.0717,1.0717,1.09,1.1104,1.1104,0.0,0.0,0.0,0.0,0.0,1.3709,1.4129,1.4577,1.5289,1.5642,1.5954,0.0,0.0,0.0,0.0,0.0,0.0,0.0,0.0,0.0,0.0,0.0,0.0,0.0,0.0,0.0,0.0,1.6612,1.6653,1.6802,1.6917,1.6978,1.6978,1.6978,1.7046,1.7188,1.7195,1.7216,1.7256,1.7256,1.7338,1.748,1.7372,1.7439,1.765,1.7534,1.7507,1.7555,1.767,1.7704,1.7717,1.7826,1.786,1.786,1.786,1.786,1.786,0.0,0.0,0.0,0.0,0.0,0.0,0.0,0.0,0.0,0.0,0.0,0.0,0.0,0.0,0.0,0.0,0.4311,0.6236,0.719,0.7011,0.6949,0.7025,0.7087,0.7183,0.7238,0.7299,0.7299,0.7238,0.7624,0.0,0.0,0.0,0.9144,0.9469,0.9768,0.9937,0.9992,0.9808,1.0059,0.0,1.1714,0.0,0.0,1.3756,1.4224,0.0,0.0,0.0,1.398,1.4434,1.3715,0.0,0.0,1.1538,1.0975,1.0853,1.1111,1.1416,1.1294,1.1525,1.1837,1.1986,0.0,0.0,1.3532,1.3905,1.4353,0.0,1.575,1.6042,0.0,0.0,0.0,0.0,0.0,0.0,0.0,0.0,0.0,0.0,0.0,0.0,0.0,0.0,0.0,1.6592,1.6503,1.6524,1.6741,1.6897,1.6978,1.6978,1.6978,1.7019,1.71,1.7107,1.7107,1.7107,1.7107,1.7182,1.7324,1.7236,1.729,1.7453,1.7365,1.7324,1.7338,1.7494,1.7589,1.7663,1.7812,1.786,1.786,1.786,1.786,1.786,0.0,0.0,0.009,0.0455,0.0286,0.0099,0.0498,0.0896,0.1002,0.0,0.0,0.0,0.0,0.0,0.0,0.0,0.4714,0.5312,0.7305,0.7278,0.708,0.698,0.7115,0.7265,0.7414,0.7556,0.7556,0.7421,0.7685,0.7828,0.7875,0.8425,0.0,0.8954,0.9232,0.9442,0.9591,0.9673,1.0148,1.0968,1.2433,1.28,0.0,0.0,1.4326,1.4129,1.4801,1.4787,1.4563,1.5316,1.4665,0.0,0.0,0.0,1.1531,1.1118,1.145,1.1884,1.1552,1.1769,1.2115,1.2237,1.2176,0.0,1.3892,1.4048,1.4258,0.0,1.592,1.6096,0.0,0.0,0.0,0.0,0.0,0.0,0.0,0.0,0.0,0.0,0.0,0.0,0.0,1.649,1.6435,1.668,1.6456,1.6435,1.6734,1.6876,1.6958,1.6958,1.6971,1.6978,1.6978,1.6978,1.6978,1.6978,1.6978,1.7053,1.7195,1.7175,1.7188,1.7216,1.7202,1.7202,1.7229,1.7365,1.7507,1.7663,1.7812,1.786,1.786,1.786,1.786,1.786,0.3592,0.1459,0.0838,0.3512,0.1712,0.0937,0.3898,0.6383,0.6986,0.4648,0.0,0.0,0.0,0.0,0.0,0.0,0.0,0.7528,0.7831,0.7516,0.7292,0.7285,0.7428,0.7577,0.7719,0.7753,0.7753,0.7726,0.778,0.7936,0.8187,0.8418,0.8676,0.8947,0.9123,0.9286,0.9462,1.0066,1.0819,1.164,1.1965,0.0,1.362,1.4401,1.4943,1.5309,1.5459,1.5452,1.535,1.5167,1.4821,1.4285,0.0,0.0,1.2786,1.164,1.1986,1.2623,1.2081,1.2088,1.2223,1.2128,1.2176,0.0,1.2338,1.2589,1.3017,1.377,1.4136,1.4482,0.0,0.0,0.0,0.0,0.0,0.0,0.0,0.0,0.0,0.0,0.0,0.0,0.0,1.6517,1.6456,1.6402,1.6341,1.6435,1.6734,1.6781,1.6795,1.6795,1.6917,1.6978,1.6978,1.6978,1.6978,1.6978,1.6978,1.7053,1.7188,1.7073,1.7154,1.7372,1.7243,1.7263,1.7378,1.7405,1.7507,1.7663,1.7812,1.786,1.786,1.786,1.786,1.786,0.6067,0.4988,0.4472,0.5089,0.5186,0.5178,0.542,0.8119,0.9717,0.0,0.0,0.0,0.0,0.0,0.0,0.0,0.0,0.0,0.8309,0.7991,0.7719,0.7495,0.7699,0.7889,0.8038,0.8038,0.8038,0.8038,0.7963,0.8004,0.816,0.8377,0.8886,0.9591,0.9286,0.953,1.0161,1.0161,1.0588,1.1355,1.225,0.0,1.4238,1.4841,1.5309,1.5649,1.5716,1.5845,1.5913,1.554,1.5059,0.0,1.4095,1.3749,1.3336,1.244,1.2705,1.3146,1.2467,1.2393,1.2488,1.2413,1.2345,0.0,0.0,1.2617,1.2868,1.377,1.3892,1.4021,1.4631,0.0,0.0,0.0,0.0,0.0,0.0,0.0,0.0,0.0,0.0,0.0,0.0,1.668,1.6605,1.6537,1.653,1.6592,1.6741,1.6822,1.6829,1.6754,1.6904,1.6978,1.6978,1.6978,1.6978,1.6978,1.6978,1.7019,1.7087,1.7012,1.706,1.7195,1.7121,1.7216,1.7412,1.7338,1.7487,1.7758,1.7758,1.7792,1.786,1.786,1.786,1.786,0.7794,0.8158,0.8014,0.628,0.8439,0.9347,0.6712,0.8694,1.0514,0.0,0.0,0.0,0.0,0.0,0.0,0.0,0.0,0.0,0.0,0.8581,0.8336,0.8004,0.8072,0.8262,0.856,0.8397,0.8296,0.8269,0.8113,0.8058,0.8092,0.8357,0.9035,1.0005,0.9591,0.9937,1.0792,1.0351,1.0582,1.1362,0.0,1.3729,1.4292,1.5045,1.5418,1.5581,1.5811,1.6056,1.6212,1.5879,1.5282,1.4706,1.4841,1.4482,0.0,1.3132,1.3376,1.3702,1.2861,1.2766,1.2868,1.2725,1.2569,1.2569,0.0,0.0,0.0,1.3926,1.3858,1.3777,1.4265,0.0,0.0,0.0,0.0,0.0,0.0,1.5778,0.0,0.0,0.0,0.0,0.0,0.0,1.6639,1.6781,1.6659,1.6612,1.67,1.6883,1.6897,1.6714,1.6883,1.6978,1.6978,1.6978,1.6978,1.6978,1.6978,1.6978,1.6978,1.6978,1.6992,1.7019,1.7019,1.7175,1.7405,1.7256,1.7439,1.7812,1.7704,1.7738,1.786,1.786,1.786,1.786,0.7991,0.8262,0.854,0.836,0.9469,1.003,0.9438,0.9605,1.0012,0.0,0.0,0.0,0.0,0.0,0.0,0.0,0.0,0.0,0.9727,0.0,0.9293,0.9374,0.8771,0.8811,0.9625,0.8866,0.8397,0.8269,0.8113,0.8113,0.8248,0.8411,0.8703,0.913,0.9964,1.0344,1.0405,1.1111,1.2067,0.0,1.3315,1.3295,0.0,1.4543,1.5113,1.5303,1.5859,1.6076,1.6042,0.0,1.5391,1.5133,0.0,1.4543,1.5059,1.3281,1.3736,1.457,1.341,1.3308,1.337,1.2698,1.28,1.2888,1.2169,0.0,1.2569,1.2705,0.0,1.2874,1.2942,0.0,0.0,0.0,0.0,0.0,1.3627,1.4516,1.5201,0.0,0.0,0.0,0.0,0.0,0.0,1.6904,1.6334,1.613,1.6524,1.6822,1.6849,1.6558,1.6829,1.6978,1.6978,1.6978,1.6978,1.6978,1.6978,1.6978,1.6978,1.6978,1.7046,1.7168,1.7168,1.7263,1.7405,1.7256,1.7385,1.767,1.765,1.7738,1.786,1.786,1.786,1.786,0.8004,0.8431,0.8777,0.8832,0.9537,0.9981,0.9924,1.0331,1.0677,0.0,0.0,0.0,0.0,0.0,0.0,0.0,0.0,1.0955,0.0,0.0,0.97,0.9239,0.8994,0.9049,0.9429,0.8893,0.8587,0.8526,0.8201,0.816,0.8397,0.8547,0.9191,1.0243,1.0595,1.1206,1.1959,1.1898,1.2162,0.0,0.0,0.0,0.0,1.4713,1.5445,1.5628,1.6062,1.6212,1.6198,0.0,1.5655,0.0,0.0,0.0,1.4733,1.4089,1.4156,1.4265,1.3403,1.3458,1.3593,1.2935,1.2969,1.3003,1.2366,1.2162,1.221,1.2562,0.0,0.0,0.0,0.0,0.0,0.0,1.3207,0.0,0.0,0.0,1.4774,0.0,0.0,0.0,0.0,0.0,0.0,0.0,0.0,1.6218,1.6761,1.6822,1.6788,1.6659,1.6781,1.689,1.6978,1.6978,1.6978,1.6978,1.6978,1.6978,1.6978,1.6978,1.7012,1.7073,1.7154,1.7229,1.729,1.7317,1.7399,1.7528,1.7616,1.7738,1.786,1.786,1.786,1.786,0.8113,0.8547,0.8872,0.8872,0.9367,0.9829,1.0019,1.0548,1.0982,0.0,0.0,0.0,1.1762,1.187,0.0,0.0,1.204,1.1748,0.0,0.0,1.0466,1.0059,0.9551,0.9449,0.9822,0.9171,0.8791,0.871,0.8343,0.8316,0.8608,0.8723,0.9476,1.0751,1.1056,1.1816,1.2854,1.2637,1.2671,1.2881,1.3166,1.3431,1.3783,1.5038,1.5683,1.5947,1.6171,1.6246,1.6246,1.6225,1.5716,0.0,1.5832,0.0,1.4679,1.4726,1.4624,1.4346,1.3614,1.3688,1.3783,1.3024,1.2942,1.2935,1.2481,1.2189,1.2142,1.2576,0.0,0.0,0.0,0.0,1.2406,1.2583,0.0,1.3112,1.2528,1.3356,1.4109,0.0,0.0,0.0,0.0,0.0,0.0,0.0,0.0,0.0,1.6883,1.6931,1.6876,1.6754,1.6829,1.6904,1.6978,1.6978,1.6978,1.6978,1.6978,1.6978,1.6978,1.6978,1.6978,1.6985,1.7087,1.7134,1.7148,1.7297,1.7358,1.7378,1.7575,1.7717,1.7812,1.7846,1.786,1.786,0.8438,0.8601,0.8716,0.8716,0.9218,0.9713,1.0005,1.0195,1.0514,0.0,0.0,0.0,0.0,0.0,0.0,0.0,0.0,1.3444,1.2698,0.0,1.1952,1.2793,1.0751,1.0209,0.0,0.9964,0.9001,0.871,0.8547,0.8621,0.8927,0.8927,0.9191,0.972,1.1158,1.1911,1.2169,1.3302,1.4204,1.4862,1.4733,1.5194,1.592,0.0,1.556,1.6076,1.6083,0.0,0.0,1.5588,1.5425,0.0,0.0,0.0,0.0,0.0,0.0,0.0,0.0,0.0,0.0,1.2813,0.0,0.0,0.0,0.0,1.2488,1.2508,1.2732,1.2847,1.2562,1.2501,1.2454,1.2325,1.2433,0.0,0.0,1.2583,1.2793,1.28,0.0,0.0,0.0,0.0,0.0,0.0,0.0,0.0,1.6707,1.7161,1.7202,1.6761,1.7026,1.7114,1.6985,1.6978,1.6978,1.6978,1.6978,1.6978,1.6978,1.6978,1.6978,1.6978,1.6985,1.6985,1.6998,1.7141,1.7202,1.7229,1.7534,1.765,1.767,1.7812,1.786,1.786,0.8777,0.9069,0.9178,0.8777,0.9211,0.9774,1.027,1.0643,0.0,0.0,0.0,0.0,0.0,1.3017,1.3247,0.0,0.0,1.3464,1.2915,1.2454,0.0,0.0,0.0,1.0853,0.0,1.0283,0.9551,0.915,0.8906,0.894,0.9232,0.9232,0.9578,1.0243,1.1341,1.2305,1.3139,1.3743,1.4312,0.0,0.0,1.5221,1.592,0.0,0.0,1.6083,1.6083,1.6083,0.0,1.5906,1.5655,1.5438,1.5581,1.5357,1.5065,1.5153,1.512,0.0,0.0,0.0,1.4746,1.3546,0.0,0.0,0.0,0.0,0.0,1.2542,1.282,1.2976,1.2576,1.2427,1.2379,1.242,1.2393,1.2311,0.0,1.2223,1.24,1.2698,1.3573,1.415,0.0,0.0,0.0,0.0,0.0,0.0,0.0,1.6951,1.6998,1.7039,1.6951,1.6971,1.7121,1.7026,1.6978,1.6978,1.6978,1.6978,1.6978,1.6978,1.6978,1.6985,1.708,1.7066,1.7005,1.7351,1.7317,1.71,1.7595,1.767,1.7528,1.7772,1.786,1.786,0.9266,0.9483,0.9544,0.911,0.9523,1.0073,0.0,0.0,0.0,0.0,1.2338,0.0,1.3146,0.0,1.341,0.0,1.3838,1.3702,1.3302,1.2942,0.0,1.284,1.202,0.0,0.0,0.0,1.0385,0.9937,0.9591,0.9517,0.97,0.9646,0.993,1.0527,1.1375,1.2393,1.3498,1.4014,1.4611,0.0,0.0,1.5588,0.0,0.0,1.6171,1.6096,0.0,1.6205,1.6164,1.6164,1.5934,1.5703,1.5988,1.5683,1.5276,1.5567,1.5445,1.5181,1.5025,1.5187,0.0,1.4129,1.4014,0.0,1.2956,0.0,1.3125,0.0,1.2969,1.3105,1.3139,1.2718,1.2447,1.2698,1.2488,1.2237,0.0,1.2149,1.2305,1.2542,1.318,1.3688,1.3919,0.0,0.0,0.0,0.0,0.0,0.0,0.0,1.6992,1.7188,1.706,1.7053,1.7188,1.71,1.7032,1.6978,1.6978,1.6978,1.6978,1.6978,1.6978,1.6985,1.708,1.7093,1.708,1.7426,1.7399,1.7182,1.767,1.7717,1.7534,1.7772,1.786,1.786,0.9883,0.9869,0.9836,0.9707,1.012,0.0,0.0,0.0,1.1993,0.0,1.28,1.3166,1.3614,1.379,1.3939,1.4089,1.4238,1.4197,1.3905,1.3471,0.0,0.0,1.2915,1.2637,1.3207,0.0,0.0,1.1002,1.0534,1.0304,1.0297,1.0154,1.0236,1.0534,1.1287,1.2203,1.3254,1.4129,1.512,1.6103,1.6252,1.6307,1.6327,1.6476,0.0,1.6137,1.6422,1.6435,1.632,1.632,1.6225,1.6103,1.6103,1.6096,1.609,1.609,1.609,1.5988,1.556,1.5445,1.5269,1.4536,0.0,0.0,0.0,0.0,1.3654,0.0,0.0,1.3315,1.4116,1.3322,1.2678,1.3064,1.2651,1.223,1.2094,1.2311,1.244,1.2338,1.2583,1.3193,1.4285,1.3322,0.0,0.0,0.0,1.5309,0.0,0.0,1.7161,1.7188,1.7331,1.7344,1.7202,1.7195,1.7127,1.6992,1.6985,1.6978,1.6978,1.6978,1.6978,1.6978,1.6978,1.706,1.7202,1.7358,1.7419,1.7453,1.7738,1.7772,1.7684,1.7812,1.786,1.786,1.0351,1.05,1.0683,0.0,1.0432,1.0399,0.0,0.0,0.0,0.0,1.32,1.3627,1.4082,1.4251,1.4401,1.4557,1.4604,0.0,0.0,0.0,0.0,1.4665,1.3885,1.3566,1.3838,1.2712,0.0,1.1775,1.0989,1.0609,1.0609,1.0568,1.0588,1.069,1.1335,1.2325,1.3546,1.4116,1.5086,1.6252,1.6293,1.6307,0.0,0.0,1.6571,1.6415,1.6497,1.6497,1.6469,1.6469,1.6442,1.6408,1.6408,1.6334,1.6252,1.6252,1.6171,1.6056,1.594,1.5906,1.5784,1.5255,1.5038,1.4814,0.0,0.0,0.0,0.0,0.0,0.0,0.0,0.0,0.0,1.2589,1.2291,1.2149,1.2223,0.0,0.0,1.2739,0.0,0.0,0.0,1.3688,1.4516,0.0,0.0,0.0,1.71,0.0,0.0,1.7175,1.7229,1.729,1.7358,1.7249,1.7175,1.7134,1.7032,1.6978,1.6978,1.6978,1.6978,1.6978,1.6978,1.706,1.7202,1.7358,1.7419,1.7453,1.7738,1.7846,1.7812,1.7846,1.786,1.786,1.0792,1.1138,1.1484,1.1626,0.0,0.0,1.1891,0.0,0.0,1.3159,1.3587,0.0,1.4177,1.4448,1.4645,1.4733,1.474,0.0,1.4557,0.0,0.0,1.4672,1.4394,1.4272,1.436,1.358,0.0,1.2454,0.0,1.1267,1.0819,1.0887,1.088,1.0846,1.1443,1.2318,1.3403,1.4441,1.5357,1.613,1.6395,0.0,0.0,1.6761,1.6795,1.672,1.672,1.668,1.6619,1.6619,1.6578,1.6524,1.6524,1.6469,1.6402,1.6402,1.6341,1.6273,1.6273,1.6273,1.6212,1.5961,1.5832,1.5635,1.512,1.5201,1.5309,0.0,0.0,0.0,0.0,0.0,0.0,1.2332,1.2121,1.2067,0.0,0.0,0.0,0.0,1.2929,0.0,0.0,1.3688,1.4631,1.4523,1.5276,0.0,0.0,0.0,0.0,1.7175,1.7195,1.7263,1.7419,1.727,1.7195,1.7188,1.7046,1.6978,1.6978,1.6978,1.6978,1.6978,1.6978,1.71,1.7297,1.7385,1.7494,1.7629,1.7792,1.786,1.786,1.786,1.786,1.786,1.1199,1.1708,1.2162,0.0,0.0,0.0,0.0,1.303,0.0,1.3688,0.0,1.4245,1.4245,1.4611,1.4855,1.4855,0.0,1.4746,1.4496,1.4713,1.4746,1.4489,1.4719,1.4855,1.4855,1.4529,1.3939,0.0,0.0,1.1999,1.0982,1.1145,1.1138,1.1002,1.1619,1.2379,1.3302,1.4923,1.575,1.6015,1.6537,1.6761,1.6795,1.6931,1.6978,1.6978,1.6958,1.6876,1.6781,1.6781,1.6693,1.6585,1.6585,1.6564,1.6551,1.6551,1.6537,1.6524,1.6524,1.6524,1.6524,1.6524,1.6524,1.6388,1.5872,1.5771,1.5784,1.5784,1.5371,1.5296,0.0,0.0,0.0,1.24,0.0,0.0,0.0,0.0,0.0,0.0,0.0,0.0,0.0,1.3485,1.4292,1.4414,1.4597,0.0,0.0,0.0,1.649,1.7148,1.7202,0.0,1.7365,0.0,1.7222,1.7161,1.706,1.6998,1.6978,1.6978,1.6978,1.6978,1.6978,1.7148,1.7419,1.7419,1.7595,1.786,1.786,1.786,1.786,1.786,1.786,1.786,1.1538,1.202,1.2433,1.2461,0.0,1.3607,1.4122,1.3905,1.3851,1.4299,1.4835,1.5174,1.5174,1.5357,1.5479,1.5479,1.5479,0.0,0.0,0.0,0.0,1.5404,1.5452,1.5479,1.5479,1.4943,1.434,0.0,0.0,1.2155,1.1131,1.1409,1.1389,1.1158,1.1884,1.3037,1.4475,1.516,0.0,1.6605,1.6707,1.6829,1.6944,1.6971,1.6978,1.6965,1.6836,1.6856,1.6937,1.6937,1.6924,1.6897,1.6897,1.6815,1.6707,1.6707,1.6619,1.6524,1.6524,1.6524,1.6524,1.6524,1.6524,1.6497,1.6388,1.6463,1.6558,1.6558,1.6469,1.6307,1.6022,0.0,0.0,0.0,0.0,0.0,0.0,0.0,0.0,0.0,0.0,0.0,0.0,0.0,1.3933,1.396,1.4326,0.0,0.0,0.0,1.6015,0.0,1.7256,0.0,0.0,0.0,0.0,1.7019,1.7114,1.7093,1.6978,1.6978,1.6978,1.6978,1.6978,1.7148,1.7419,1.7419,1.7595,1.786,1.786,1.786,1.786,1.786,1.786,1.786,1.2413,1.2779,1.3159,1.3397,0.0,0.0,0.0,1.4875,0.0,1.476,1.5004,1.5181,1.5181,1.5459,1.5642,1.5642,1.5642,1.5642,1.5642,1.5642,1.5642,1.5642,1.5642,0.0,1.5642,1.5357,1.476,1.3838,0.0,1.2542,1.1287,1.1511,1.1497,1.1335,1.2474,1.3512,1.4455,0.0,0.0,1.6544,1.6775,1.6958,1.7087,1.7087,1.7141,1.7188,1.7032,1.6978,1.6971,1.689,1.6863,1.6876,1.6958,1.6876,1.6768,1.6842,1.6761,1.6659,1.6741,1.6761,1.6761,1.6761,1.6761,1.6761,1.6761,1.6815,1.687,1.687,1.687,1.6659,1.5981,1.5181,0.0,0.0,0.0,0.0,0.0,0.0,1.415,0.0,0.0,0.0,0.0,0.0,1.398,1.3749,1.415,1.4923,0.0,0.0,1.5893,0.0,0.0,0.0,0.0,0.0,0.0,1.7209,1.7121,1.7046,1.6978,1.6978,1.6978,1.6978,1.6978,1.71,1.7317,1.7473,1.767,1.786,1.786,1.786,1.786,1.786,1.786,1.786,1.3281,1.3559,1.3892,1.4278,1.4645,0.0,1.5194,1.5615,1.5723,1.5221,1.5187,1.5208,1.5208,1.552,1.573,1.573,1.573,1.573,1.573,1.573,1.573,1.573,1.573,1.573,1.573,1.6307,1.5744,0.0,0.0,0.0,1.1626,1.1748,1.1843,1.1965,0.0,0.0,0.0,0.0,1.6212,1.653,1.6883,1.7114,1.7236,1.7202,1.727,1.7351,1.7202,1.7032,1.687,1.6781,1.6727,1.6734,1.6924,1.6849,1.6727,1.6849,1.6822,1.6775,1.6897,1.6958,1.6978,1.6978,1.6978,1.6978,1.6978,1.6978,1.6978,1.6978,1.6978,1.6748,1.5995,1.5506,0.0,0.0,0.0,0.0,0.0,0.0,0.0,0.0,0.0,0.0,0.0,0.0,0.0,1.396,1.4197,1.4801,1.5832,0.0,0.0,0.0,0.0,1.7127,1.7182,0.0,1.7331,0.0,1.7154,1.7039,1.6978,1.6978,1.6978,1.6978,1.6978,1.708,1.7263,1.7534,1.7738,1.786,1.786,1.786,1.786,1.786,1.786,1.786,1.3722,1.4027,0.0,0.0,0.0,0.0,0.0,1.5771,1.5988,1.5798,1.5893,1.5981,1.5981,1.6015,1.6042,1.6042,1.6042,1.6042,1.6042,1.6042,1.6042,1.6042,1.6042,1.6042,1.6042,1.8371,1.812,0.0,0.0,1.5917,0.0,1.2413,1.2847,0.0,0.0,0.0,0.0,1.5879,1.6354,1.7114,1.7154,1.7263,1.7385,1.7243,1.7202,1.7195,1.7053,1.6815,1.6585,1.6707,1.6659,1.6592,1.689,1.6781,1.6544,1.6558,1.6653,1.6754,1.6768,1.6876,1.6978,1.6978,1.6978,1.6978,1.6978,1.6978,1.6978,1.6978,1.6978,1.6748,1.5995,1.6354,1.632,0.0,0.0,0.0,0.0,0.0,1.5147,1.5683,0.0,0.0,0.0,0.0,0.0,0.0,1.4699,1.4719,0.0,0.0,0.0,1.6361,1.6646,1.6666,1.6415,1.7338,0.0,1.7026,1.7263,1.7243,1.6978,1.6978,1.6978,1.6978,1.6978,1.7141,1.7412,1.7582,1.7738,1.786,1.786,1.786,1.786,1.786,1.786,1.786,0.0,0.0,0.0,0.0,0.0,0.0,0.0,1.8286,1.8395,1.8325,1.7019,1.6083,1.6083,1.7444,1.8418,1.8418,1.979,2.0764,2.0764,2.0764,2.0764,2.0764,2.0764,2.0764,2.0764,2.0175,1.9195,0.0,0.0,0.0,0.0,0.0,0.0,0.0,0.0,1.5384,1.5974,1.6361,1.6741,1.7073,1.7161,1.7229,1.729,1.7317,1.7331,1.7311,1.7161,1.6917,1.668,1.6836,1.6727,1.6558,1.6775,1.6693,1.6537,1.6632,1.6639,1.6632,1.6727,1.6863,1.6978,1.6978,1.6978,1.6978,1.6978,1.6978,1.6978,1.6978,1.6978,1.689,1.6585,1.6408,1.6286,0.0,0.0,0.0,0.0,0.0,0.0,1.649,0.0,1.6029,0.0,0.0,0.0,0.0,1.4,1.3994,0.0,0.0,0.0,1.5893,0.0,1.6965,1.6578,1.7256,1.748,1.7243,1.7182,1.7093,1.6978,1.6978,1.6978,1.6978,1.6978,1.7148,1.7426,1.7487,1.765,1.786,1.786,1.786,1.786,1.786,1.786,1.786,2.0313,0.0,1.7335,0.0,1.8912,2.049,2.0192,2.0843,2.1255,2.1308,1.9751,1.8359,1.7533,1.9091,2.0475,2.1317,2.3091,2.4072,2.4072,2.4072,2.4072,2.4072,2.4072,0.0,2.4072,2.3091,2.2023,2.0684,1.9173,0.0,0.0,0.0,0.0,0.0,1.6015,1.6022,1.6218,1.6754,1.7005,1.7053,1.7154,1.7216,1.7263,1.7331,1.7351,1.7338,1.7229,1.6998,1.6775,1.6931,1.6809,1.6598,1.6659,1.6551,1.6415,1.6524,1.651,1.649,1.6639,1.6795,1.6924,1.6971,1.6978,1.6978,1.6978,1.6978,1.6978,1.6978,1.6978,1.6978,1.6978,1.6544,1.632,1.6734,0.0,0.0,0.0,1.6693,0.0,1.6707,1.6497,0.0,0.0,0.0,0.0,0.0,1.4027,0.0,0.0,0.0,0.0,0.0,0.0,0.0,0.0,1.7263,1.7467,1.7419,1.7161,1.7019,1.6978,1.6978,1.6978,1.6985,1.7026,1.7188,1.7426,1.7467,1.7629,1.786,1.786,1.786,1.786,1.786,1.786,1.786,2.4334,2.3392,2.2583,2.0294,2.2116,2.2965,2.0829,2.2633,2.4274,2.4696,2.4727,2.3649,2.0682,2.0465,2.1523,2.4507,2.4727,2.4727,2.4727,2.4727,2.4727,0.0,0.0,2.4727,2.4727,2.7334,2.7322,2.4706,0.0,0.0,2.3386,2.037,1.9268,1.9961,1.7246,1.6408,1.6971,1.6978,1.706,1.7188,1.7195,1.7283,1.7399,1.7249,1.7195,1.7195,1.7195,1.6998,1.6775,1.6931,1.6876,1.672,1.6571,1.632,1.609,1.609,1.6198,1.6341,1.6483,1.6632,1.6788,1.6944,1.6978,1.6978,1.6978,1.6978,1.6978,1.6978,1.6978,1.6978,1.6978,1.6971,1.6727,1.5988,0.0,0.0,0.0,1.613,0.0,1.611,1.5052,0.0,1.5967,0.0,0.0,0.0,0.0,0.0,0.0,0.0,0.0,1.649,1.6673,0.0,1.6978,1.7419,1.7568,1.7419,1.7263,1.7114,1.6978,1.6978,1.6978,1.6985,1.7127,1.7277,1.7433,1.7582,1.7738,1.786,1.786,1.786,1.786,1.786,1.786,1.786,2.7384,2.526,2.3786,2.3285,2.5522,2.6934,2.6222,2.6826,2.7255,2.7532,2.5943,2.5167,2.6261,2.6132,2.6463,0.0,2.9135,3.0131,0.0,3.0131,3.0131,3.0131,3.0131,3.0131,3.0131,2.9147,2.8346,2.7543,0.0,0.0,0.0,2.0369,1.9142,1.7916,1.7203,1.6944,1.7134,1.7236,1.7304,1.7351,1.7351,1.7317,1.7256,1.7209,1.7134,1.7046,1.7046,1.6917,1.6754,1.6809,1.672,1.6585,1.6537,1.653,1.6537,1.6537,1.6497,1.6463,1.651,1.6558,1.6605,1.6653,1.6666,1.6666,1.6666,1.6748,1.6822,1.6822,1.691,1.6978,1.6978,1.6978,1.6931,1.6788,1.6795,0.0,1.6768,0.0,1.6632,1.6686,1.6442,0.0,0.0,1.5995,0.0,0.0,0.0,0.0,0.0,0.0,0.0,0.0,1.691,0.0,1.6985,1.7324,1.7467,1.7419,1.7168,1.7026,1.6978,1.6978,1.6978,1.6985,1.7127,1.7277,1.7433,1.7589,1.7738,1.786,1.786,1.786,1.786,1.786,1.786,1.786,3.0078,2.8493,2.7153,2.6309,2.8346,2.9775,2.9069,2.9699,3.033,3.0429,2.9025,2.8673,3.0477,3.0553,0.0,3.0441,3.1866,3.2866,3.2866,3.2866,3.2866,3.2866,3.2866,3.2866,3.2866,0.0,0.0,3.0441,2.7509,2.5252,2.3786,2.1457,1.9882,1.8513,1.7572,1.7195,1.7195,1.7236,1.7256,1.7249,1.7188,1.7148,1.7114,1.7114,1.706,1.6978,1.6978,1.6917,1.6836,1.6836,1.6775,1.6693,1.6693,1.6761,1.6815,1.67,1.6598,1.653,1.6592,1.6605,1.6619,1.668,1.6653,1.6592,1.653,1.6639,1.6748,1.6748,1.687,1.6978,1.6978,1.6978,1.7012,1.71,1.6958,1.6904,1.7087,0.0,1.6788,0.0,0.0,0.0,0.0,1.6408,0.0,0.0,0.0,0.0,0.0,0.0,0.0,1.6429,1.7229,0.0,1.7236,1.7358,1.7392,1.7331,1.7093,1.6978,1.6978,1.6978,1.7012,1.7066,1.7216,1.7365,1.7514,1.767,1.7772,1.786,1.786,1.786,1.786,1.786,1.786,1.786,3.2572,3.2572,0.0,0.0,3.1005,0.0,2.9731,3.1387,3.3106,3.3374,3.3414,3.3414,3.3414,3.3414,3.3414,3.3414,0.0,0.0,0.0,3.3414,3.3414,3.3414,3.3414,0.0,3.3414,3.3414,3.3414,3.3414,3.0735,2.9522,2.9139,2.399,2.1621,2.118,1.8682,1.7429,1.7202,1.708,1.7019,1.6998,1.6842,1.6876,1.7012,1.6985,1.6985,1.6992,1.6985,1.6978,1.6978,1.6978,1.6978,1.6978,1.6978,1.6978,1.6924,1.6639,1.6544,1.6571,1.6714,1.6741,1.6768,1.691,1.6842,1.67,1.6551,1.6632,1.6734,1.6734,1.6849,1.6951,1.6965,1.6965,1.6971,1.6978,1.6978,1.6978,1.6978,1.6978,1.6775,0.0,0.0,0.0,0.0,1.6273,1.651,0.0,0.0,0.0,0.0,0.0,1.6096,1.7399,1.7575,1.765,1.765,1.7487,1.7324,1.7175,1.7046,1.6978,1.6978,1.6978,1.706,1.7202,1.7351,1.7507,1.7663,1.7812,1.786,1.786,1.786,1.786,1.786,1.786,1.786,1.786,0.0,0.0,3.2735,3.2351,3.2802,3.3027,3.2481,3.2894,3.3334,3.34,3.3414,3.3414,3.3414,3.3414,3.3414,3.3414,3.3414,3.3414,3.3414,3.3414,3.3414,3.3414,3.3414,3.3414,3.3414,3.3414,3.3414,3.3414,3.2576,3.1265,2.9612,2.8178,2.5417,2.1585,2.1095,1.96,1.7372,1.7453,1.7426,1.7304,1.7148,1.7182,1.729,1.7066,1.7046,1.7127,1.7019,1.6978,1.6978,1.6978,1.6978,1.6978,1.6978,1.6978,1.6965,1.6897,1.6788,1.6707,1.6741,1.6666,1.6585,1.6619,1.6605,1.6564,1.653,1.6551,1.6578,1.6578,1.6605,1.6666,1.6781,1.6802,1.6842,1.6965,1.6978,1.6978,1.6978,1.6978,1.6931,0.0,1.6768,1.6768,1.6768,1.6802,1.6673,0.0,0.0,0.0,0.0,1.6463,1.6788,1.7568,1.7629,1.765,1.765,1.7385,1.7175,1.7032,1.6998,1.6978,1.6978,1.6978,1.706,1.7202,1.7351,1.7507,1.7663,1.7812,1.786,1.786,1.786,1.786,1.786,1.786,1.786,1.786,3.3146,3.3173,3.3227,3.3387,3.3414,3.3414,3.3414,3.3414,3.3414,3.3414,3.3534,3.3627,3.3627,3.3748,3.3828,3.3828,3.3574,3.3414,3.3414,3.3547,3.3561,3.3414,3.3681,3.3761,3.3627,3.3761,3.3828,3.3828,3.2415,3.0431,2.7994,2.6608,2.3812,1.9869,1.9962,1.9102,1.7521,1.7467,1.7433,1.7399,1.7182,1.7222,1.7399,1.7168,1.7127,1.7175,1.7032,1.6978,1.6978,1.6978,1.6978,1.6978,1.6978,1.6978,1.6978,1.6978,1.6917,1.6856,1.6856,1.6795,1.6714,1.6646,1.6625,1.6605,1.6537,1.6578,1.6625,1.6625,1.6625,1.6653,1.6734,1.6748,1.6775,1.6863,1.6937,1.6978,1.6978,1.6978,0.0,1.6978,1.6978,1.6978,1.6978,1.6978,1.687,1.6612,0.0,0.0,1.6917,1.7073,1.7311,1.7629,1.765,1.7616,1.7548,1.7249,1.706,1.6978,1.6978,1.6978,1.6978,1.6978,1.71,1.7304,1.7385,1.7541,1.7758,1.7826,1.786,1.786,1.786,1.786,1.786,1.786,1.786,1.786,3.3414,3.3414,3.3414,3.3414,3.3414,3.3414,3.3414,3.3454,3.348,3.348,3.3761,3.3948,3.3948,3.4175,3.4322,3.4322,3.3841,3.3547,3.3547,3.3801,3.3828,3.3561,3.4002,3.4162,3.3961,3.4189,3.4322,3.4322,3.195,2.9643,2.7176,2.4827,2.219,1.9619,1.9184,1.8748,1.8276,1.7586,1.7532,1.803,1.7777,1.8046,1.8711,1.8543,1.8294,1.7868,1.7699,1.7447,1.7039,1.6998,1.6992,1.7012,1.6985,1.6978,1.6978,1.6978,1.6978,1.6978,1.6978,1.6978,1.6951,1.6815,1.6788,1.6748,1.6619,1.6673,1.6748,1.6748,1.6734,1.672,1.6748,1.6748,1.6734,1.6686,1.6849,1.6958,1.689,0.0,1.6978,1.6978,1.6978,1.6978,1.6978,1.6998,1.706,1.7182,1.7236,0.0,0.0,1.767,1.7684,1.7684,1.7663,1.7561,1.7385,1.7114,1.6978,1.6978,1.6978,1.6978,1.6978,1.6978,1.7141,1.7419,1.7419,1.7589,1.786,1.786,1.786,1.786,1.786,1.786,1.786,1.786,1.786,1.786,3.3414,3.3414,3.3414,3.3414,3.3414,3.3414,3.3414,3.3641,3.3814,3.3814,3.4068,3.4255,3.4255,3.4295,3.4322,3.4322,3.4229,3.4175,3.4175,3.4229,3.4229,3.4175,3.4028,3.4055,3.4242,3.4295,3.4322,3.4322,3.3646,3.3368,3.3394,3.2735,3.1191,2.8628,2.6263,2.3791,2.1067,1.8668,1.9007,2.1004,2.1168,2.253,2.4836,2.4846,2.3187,2.116,2.0832,1.9341,1.7317,1.7066,1.706,1.7141,1.7019,1.6978,1.6978,1.6978,1.6978,1.6978,1.6978,1.6978,1.6978,1.6951,1.6944,1.6937,1.6917,1.6829,1.6748,1.6748,1.6646,1.6598,1.6727,1.6748,1.6666,1.6422,1.672,1.6849,1.6469,0.0,1.6978,1.6978,1.6978,1.6978,1.6978,1.7087,1.7168,1.7188,1.7433,1.7595,1.765,1.7758,1.7826,1.7826,1.7717,1.7514,1.7229,1.7066,1.6978,1.6978,1.6978,1.6978,1.6978,1.6978,1.7141,1.7419,1.7419,1.7589,1.786,1.786,1.786,1.786,1.786,1.786,1.786,1.786,1.786,1.786,3.3414,3.3414,3.3414,3.3414,3.3414,3.3467,3.3641,3.3788,3.3948,3.4095,3.4376,3.4563,3.4563,3.4696,3.479,3.479,3.479,3.479,3.479,3.4643,3.4482,3.4322,3.4496,3.4656,3.479,3.479,3.479,3.479,3.4656,3.3876,3.2611,3.2486,3.1046,2.8468,2.5447,2.3457,2.2075,2.0473,2.0658,2.2156,2.3536,2.5108,2.6347,2.6337,2.4409,2.1898,2.1831,1.9836,1.729,1.7236,1.7154,1.708,1.7093,1.7039,1.6978,1.6978,1.6978,1.6978,1.6978,1.6978,1.6978,1.6978,1.6978,1.6978,1.6978,1.6924,1.6876,1.6876,1.6754,1.6666,1.6734,1.6748,1.6734,1.668,1.691,0.0,0.0,1.7087,1.7216,1.7216,1.7216,1.7216,1.7216,1.7277,1.7351,1.7433,1.7568,1.7684,1.7758,1.7826,1.786,1.786,1.765,1.746,1.7317,1.7093,1.7019,1.7093,1.7019,1.7019,1.7093,1.7093,1.7256,1.7541,1.7541,1.767,1.786,1.786,1.786,1.786,1.786,1.786,1.786,1.786,1.786,1.786,3.3414,3.3414,3.3427,3.3507,3.3521,3.3627,3.3935,3.4042,3.4175,3.4389,3.4683,3.487,3.487,3.5057,3.5191,3.5191,3.5191,3.5191,3.5191,3.499,3.4763,3.4536,3.495,3.5164,3.5097,3.5164,3.5191,3.5191,3.5191,3.4108,3.1923,3.1923,3.0632,2.8468,2.5447,2.4155,2.4145,2.3341,2.3584,2.4353,2.6551,2.7867,2.8446,2.8475,2.648,2.3888,2.3054,2.1013,1.8202,1.7614,1.7297,1.7148,1.7222,1.7148,1.7032,1.7032,1.7005,1.6978,1.6978,1.6978,1.6978,1.6978,1.6978,1.6978,1.6978,1.6978,1.6978,1.6978,1.689,1.6802,1.6802,1.6802,1.6809,1.6822,0.0,0.0,0.0,1.7304,1.7378,1.7419,1.7419,1.7419,1.7419,1.7453,1.7521,1.7629,1.7684,1.7738,1.786,1.786,1.786,1.786,1.7609,1.7453,1.7419,1.7195,1.7121,1.7195,1.7121,1.7141,1.7243,1.7243,1.7392,1.765,1.765,1.7738,1.786,1.786,1.786,1.786,1.786,1.786,1.786,1.786,1.786,1.786,3.3414,3.3414,3.3507,3.3801,3.3855,3.3948,3.4242,3.4523,3.471,3.4723,3.4977,3.5164,3.5164,3.5177,3.5191,3.5191,3.5191,3.5191,3.5191,3.5177,3.5151,3.5137,3.5177,3.507,3.4803,3.5057,3.5191,3.5191,3.5191,3.5191,3.498,3.498,3.4755,3.4332,3.1497,3.0193,2.9979,2.7371,2.7801,3.0193,3.0384,3.2124,3.4544,3.4518,3.2761,2.9911,2.71,2.4149,2.1456,1.8366,1.75,1.7575,1.7446,1.7297,1.7175,1.7175,1.708,1.6978,1.6978,1.6978,1.6978,1.6978,1.6978,1.6978,1.6978,1.6978,1.6978,1.6978,1.6971,1.6965,1.6965,1.6965,1.6829,1.6422,0.0,0.0,1.6625,1.6944,1.7263,1.7405,1.7419,1.7419,1.7419,1.7548,1.7629,1.765,1.7772,1.7846,1.786,1.786,1.786,1.786,1.7717,1.7561,1.7419,1.7399,1.7324,1.7195,1.7324,1.7392,1.7405,1.7405,1.7494,1.765,1.765,1.7738,1.786,1.786,1.786,1.786,1.786,1.786,1.786,1.786,1.786,1.786,3.3975,3.3975,3.4015,3.4135,3.4148,3.4255,3.4549,3.4696,3.483,3.5004,3.5124,3.5191,3.5191,3.5191,3.5191,3.5191,3.5191,3.5191,3.5191,3.5191,3.5191,3.5191,3.5191,3.5151,3.503,3.5137,3.5191,3.5191,3.5191,3.5191,3.5191,3.5191,3.5191,3.498,3.2148,3.0846,3.0846,2.9765,2.9979,3.1059,3.2798,3.4319,3.5191,3.5191,3.3447,3.0609,2.7502,2.4646,2.1599,1.8776,1.7609,1.7514,1.7548,1.746,1.7331,1.7331,1.7229,1.7114,1.7114,1.7046,1.6978,1.6978,1.6978,1.6978,1.6978,1.6978,1.6978,1.6978,1.6978,1.6978,1.6978,1.6978,1.6951,1.687,0.0,1.7107,1.708,1.7311,1.75,1.7555,1.7629,1.7704,1.7704,1.7738,1.7772,1.7772,1.7826,1.786,1.786,1.786,1.786,1.786,1.7812,1.7758,1.7704,1.7514,1.7439,1.7473,1.7439,1.7467,1.7561,1.7561,1.765,1.7772,1.7772,1.7812,1.786,1.786,1.786,1.786,1.786,1.786,1.786,1.786,1.786,1.786,3.4555,3.4541,3.4362,3.4442,3.4456,3.4563,3.4857,3.4897,3.4963,3.5177,3.5191,3.5191,3.5191,3.5191,3.5191,3.5191,3.5191,3.5191,3.5191,3.5191,3.5191,3.5191,3.5191,3.5191,3.5191,3.5191,3.5191,3.5191,3.5191,3.5191,3.5191,3.5191,3.5191,3.5191,3.3235,3.2148,3.2148,3.2148,3.2148,3.2361,3.4319,3.5191,3.5191,3.5191,3.3883,3.1923,2.8897,2.5997,2.289,2.0216,1.8587,1.7575,1.7684,1.7616,1.748,1.7433,1.7344,1.7256,1.7202,1.7121,1.7039,1.6992,1.6978,1.6978,1.6978,1.6978,1.6978,1.6978,1.6978,1.6978,1.6978,1.6978,1.7012,1.7107,1.7127,1.7175,1.7324,1.748,1.7595,1.765,1.7772,1.786,1.786,1.786,1.786,1.786,1.786,1.786,1.786,1.786,1.786,1.786,1.786,1.786,1.786,1.767,1.7589,1.765,1.7589,1.7616,1.7717,1.7717,1.7772,1.786,1.786,1.786,1.786,1.786,1.786,1.786,1.786,1.786,1.786,1.786,1.786,1.786,3.5253,3.4801,3.4649,3.4723,3.4763,3.487,3.5151,3.5191,3.5191,3.5191,3.5191,3.5191,3.5191,3.5191,3.5191,3.5191,3.5191,3.5191,3.5191,3.5191,3.5191,3.5191,3.5191,3.5191,3.5191,3.5191,3.5191,3.5191,3.5191,3.5191,3.5191,3.5191,3.5191,3.5191,3.5191,3.5191,3.5191,3.5191,3.5191,3.5191,3.5191,3.5191,3.5191,3.5191,3.5191,3.4768,3.1923,2.9112,2.6097,2.3075,2.0262,1.7867,1.786,1.7772,1.7623,1.7467,1.7426,1.7392,1.7236,1.7195,1.7161,1.7019,1.6978,1.6978,1.6978,1.6978,1.6978,1.6978,1.6978,1.6978,1.6978,1.6978,1.6978,1.6978,1.6978,1.7032,1.7168,1.7324,1.7473,1.7629,1.7772,1.786,1.786,1.786,1.786,1.786,1.786,1.786,1.786,1.786,1.786,1.786,1.786,1.786,1.786,1.786,1.7792,1.765,1.7792,1.786,1.786,1.786,1.786,1.786,1.786,1.786,1.786,1.786,1.786,1.786,1.786,1.786,1.786,1.786,1.786,1.786,3.5173,3.516,3.4977,3.5057,3.507,3.5097,3.5177,3.5191,3.5191,3.5191,3.5191,3.5191,3.5191,3.5191,3.5191,3.5191,3.5191,3.5191,3.5191,3.5191,3.5191,3.5191,3.5191,3.5191,3.5191,3.5191,3.5191,3.5191,3.5191,3.5191,3.5191,3.5191,3.5191,3.5191,3.5191,3.5191,3.5191,3.5191,3.5191,3.5191,3.5191,3.5191,3.5191,3.5191,3.5191,3.4768,3.1923,3.0407,2.8897,2.3937,2.1554,2.0474,1.8508,1.7826,1.7792,1.7738,1.767,1.7568,1.7528,1.7433,1.729,1.7039,1.6978,1.6978,1.6978,1.6978,1.6978,1.6978,1.6978,1.6978,1.6978,1.6978,1.6978,1.6978,1.6978,1.6992,1.7039,1.7263,1.7399,1.7338,1.765,1.7826,1.7717,1.7812,1.786,1.786,1.786,1.786,1.786,1.786,1.786,1.786,1.786,1.786,1.786,1.786,1.7846,1.7792,1.7846,1.786,1.786,1.786,1.786,1.786,1.786,1.786,1.786,1.786,1.786,1.786,1.786,1.786,1.786,1.786,1.786,1.786,3.5191,3.5191,3.5191,3.5191,3.5191,3.5191,3.5191,3.5191,3.5191,3.5191,3.5191,3.5191,3.5191,3.5191,3.5191,3.5191,3.5191,3.5191,3.5191,3.5191,3.5191,3.5191,3.5191,3.5191,3.5191,3.5191,3.5191,3.5191,3.5191,3.5191,3.5191,3.5191,3.5191,3.5191,3.5191,3.5191,3.5191,3.5191,3.5191,3.5191,3.5191,3.5191,3.5191,3.5191,3.5191,3.498,3.3235,3.1923,3.0193,2.5447,2.242,2.0255,1.8522,1.786,1.786,1.786,1.7806,1.7717,1.7663,1.7582,1.7453,1.7216,1.7107,1.7053,1.6992,1.6978,1.6978,1.6978,1.6978,1.6978,1.6978,1.6978,1.6978,1.6978,1.6978,1.6978,1.6978,1.7236,1.7385,1.7297,1.7629,1.7826,1.7738,1.7812,1.786,1.786,1.786,1.786,1.786,1.786,1.786,1.786,1.786,1.786,1.786,1.786,1.786,1.786,1.786,1.786,1.786,1.786,1.786,1.786,1.786,1.786,1.786,1.786,1.786,1.786,1.786,1.786,1.786,1.786,1.786,1.786,3.5191,3.5191,3.5191,3.5191,3.5191,3.5191,3.5191,3.5191,3.5191,3.5191,3.5191,3.5191,3.5191,3.5191,3.5191,3.5191,3.5191,3.5191,3.5191,3.5191,3.5191,3.5191,3.5191,3.5191,3.5191,3.5191,3.5191,3.5191,3.5191,3.5191,3.5191,3.5191,3.5191,3.5191,3.5191,3.5191,3.5191,3.5191,3.5191,3.5191,3.5191,3.5191,3.5191,3.5191,3.5191,3.5191,3.5191,3.3447,3.0846,2.7607,2.263,1.786,1.786,1.786,1.786,1.786,1.786,1.7826,1.7704,1.767,1.7629,1.748,1.7338,1.7195,1.7053,1.7012,1.6998,1.6998,1.6992,1.6978,1.6978,1.6978,1.6978,1.6978,1.6992,1.6998,1.6998,1.7256,1.7439,1.7419,1.7684,1.786,1.7846,1.786,1.786,1.786,1.786,1.786,1.786,1.786,1.786,1.786,1.786,1.786,1.786,1.786,1.786,1.786,1.786,1.786,1.786,1.786,1.786,1.786,1.786,1.786,1.786,1.786,1.786,1.786,1.786,1.786,1.786,1.786,1.786,1.786,3.5191,3.5191,3.5191,3.5191,3.5191,3.5191,3.5191,3.5191,3.5191,3.5191,3.5191,3.5191,3.5191,3.5191,3.5191,3.5191,3.5191,3.5191,3.5191,3.5191,3.5191,3.5191,3.5191,3.5191,3.5191,3.5191,3.5191,3.5191,3.5191,3.5191,3.5191,3.5191,3.5191,3.5191,3.5191,3.5191,3.5191,3.5191,3.5191,3.5191,3.5191,3.5191,3.5191,3.5191,3.5191,3.5191,3.5191,3.4755,3.3447,2.8253,2.263,1.786,1.786,1.786,1.786,1.786,1.786,1.786,1.7826,1.7812,1.7772,1.7629,1.7575,1.7507,1.7358,1.7229,1.7148,1.7148,1.706,1.6978,1.6978,1.6978,1.6978,1.6978,1.7073,1.7148,1.7148,1.7405,1.7555,1.7433,1.7684,1.7826,1.7704,1.7792,1.786,1.786,1.786,1.786,1.786,1.786,1.786,1.786,1.786,1.786,1.786,1.786,1.786,1.786,1.786,1.786,1.786,1.786,1.786,1.786,1.786,1.786,1.786,1.786,1.786,1.786,1.786,1.786,1.786,1.786,1.786,1.786,3.5191,3.5191,3.5191,3.5191,3.5191,3.5191,3.5191,3.5191,3.5191,3.5191,3.5191,3.5191,3.5191,3.5191,3.5191,3.5191,3.5191,3.5191,3.5191,3.5191,3.5191,3.5191,3.5191,3.5191,3.5191,3.5191,3.5191,3.5191,3.5191,3.5191,3.5191,3.5191,3.5191,3.5191,3.5191,3.5191,3.5191,3.5191,3.5191,3.5191,3.5191,3.5191,3.5191,3.5191,3.5191,3.5191,3.5191,3.4319,3.2373,2.8038,2.3502,1.9815,1.8302,1.786,1.786,1.786,1.786,1.786,1.786,1.786,1.7846,1.7772,1.7758,1.7684,1.7473,1.7358,1.7304,1.7304,1.7182,1.708,1.708,1.7026,1.7005,1.7073,1.7148,1.7216,1.729,1.75,1.7616,1.7541,1.7724,1.7826,1.7758,1.7826,1.786,1.786,1.786,1.786,1.786,1.786,1.786,1.786,1.786,1.786,1.786,1.786,1.786,1.786,1.786,1.786,1.786,1.786,1.786,1.786,1.786,1.786,1.786,1.786,1.786,1.786,1.786,1.786,1.786,1.786,1.786,1.786,3.5191,3.5191,3.5191,3.5191,3.5191,3.5191,3.5191,3.5191,3.5191,3.5191,3.5191,3.5191,3.5191,3.5191,3.5191,3.5191,3.5191,3.5191,3.5191,3.5191,3.5191,3.5191,3.5191,3.5191,3.5191,3.5191,3.5191,3.5191,3.5191,3.5191,3.5191,3.5191,3.5191,3.5191,3.5191,3.5191,3.5191,3.5191,3.5191,3.5191,3.5191,3.5191,3.5191,3.5191,3.5191,3.5191,3.5191,3.3447,3.0621,2.8038,2.5014,2.1781,1.9383,1.8302,1.786,1.786,1.786,1.786,1.786,1.786,1.786,1.786,1.786,1.7792,1.7555,1.748,1.746,1.746,1.7338,1.7229,1.7229,1.7134,1.7093,1.7209,1.7256,1.7317,1.7439,1.7589,1.7684,1.7684,1.7792,1.786,1.786,1.786,1.786,1.786,1.786,1.786,1.786,1.786,1.786,1.786,1.786,1.786,1.786,1.786,1.786,1.786,1.786,1.786,1.786,1.786,1.786,1.786,1.786,1.786,1.786,1.786,1.786,1.786,1.786,1.786,1.786,1.786,1.786,1.786,3.5191,3.5191,3.5191,3.5191,3.5191,3.5191,3.5191,3.5191,3.5191,3.5191,3.5191,3.5191,3.5191,3.5191,3.5191,3.5191,3.5191,3.5191,3.5191,3.5191,3.5191,3.5191,3.5191,3.5191,3.5191,3.5191,3.5191,3.5191,3.5191,3.5191,3.5191,3.5191,3.5191,3.5191,3.5191,3.5191,3.5191,3.5191,3.5191,3.5191,3.5191,3.5191,3.5191,3.5191,3.5191,3.5191,3.5191,3.3447,3.0846,3.0407,2.6745,2.221,2.1773,1.9823,1.786,1.786,1.786,1.786,1.786,1.786,1.786,1.786,1.786,1.7846,1.7812,1.7704,1.7616,1.7616,1.7494,1.7392,1.7392,1.7372,1.7365,1.7385,1.75,1.7595,1.7616,1.7738,1.7826,1.7826,1.7846,1.786,1.786,1.786,1.786,1.786,1.786,1.786,1.786,1.786,1.786,1.786,1.786,1.786,1.786,1.786,1.786,1.786,1.786,1.786,1.786,1.786,1.786,1.786,1.786,1.786,1.786,1.786,1.786,1.786,1.786,1.786,1.786,1.786,1.786,1.786,3.5191,3.5191,3.5191,3.5191,3.5191,3.5191,3.5191,3.5191,3.5191,3.5191,3.5191,3.5191,3.5191,3.5191,3.5191,3.5191,3.5191,3.5191,3.5191,3.5191,3.5191,3.5191,3.5191,3.5191,3.5191,3.5191,3.5191,3.5191,3.5191,3.5191,3.5191,3.5191,3.5191,3.5191,3.5191,3.5191,3.5191,3.5191,3.5191,3.5191,3.5191,3.5191,3.5191,3.5191,3.5191,3.5191,3.5191,3.4319,3.2798,2.9551,2.6745,2.3937,2.0897,1.8949,1.786,1.786,1.786,1.786,1.786,1.786,1.786,1.786,1.786,1.786,1.786,1.7812,1.7772,1.7772,1.765,1.7548,1.7548,1.748,1.7446,1.7534,1.7602,1.7684,1.7758,1.7826,1.786,1.786,1.786,1.786,1.786,1.786,1.786,1.786,1.786,1.786,1.786,1.786,1.786,1.786,1.786,1.786,1.786,1.786,1.786,1.786,1.786,1.786,1.786,1.786,1.786,1.786,1.786,1.786,1.786,1.786,1.786,1.786,1.786,1.786,1.786,1.786,1.786,1.786]}]]